     2.11           OBSERVATION DATA    G (GPS)             RINEX VERSION / TYPE
teqc 2010Oct21 OPUS Account 20111025 17:40:58UTC            PGM / RUN BY / DATE
N 1521                                                      MARKER NAME
1141                                                        MARKER NUMBER
CSMIDDLETON NGS                                             OBSERVER / AGENCY
0220320152 TRIMBLE 5700 2.01                                REC # / TYPE / VERS
12214372 TRM41249.00 NONE                                   ANT # / TYPE
  -737754.8853 -5467932.7331  3189231.4212                  APPROX POSITION XYZ
        2.0000        0.0000        0.0000                  ANTENNA: DELTA H/E/N
     1     1                                                WAVELENGTH FACT L1/2
     5    L1    L2    C1    P1    P2                        # / TYPES OF OBSERV
    15                                                      LEAP SECONDS
  2011     7    25     0     0   30.0000000     GPS         TIME OF FIRST OBS
                                                            END OF HEADER
 11  7 25  0  0 30.0000000  0  8G02G17G28G09G04G27G10G20
 -12383448.44157  -9637009.76655  22638647.2114                   22638644.6334
 -33651342.73057 -26209319.26656  21145032.3594                   21145029.8794
 -38907280.20358 -30307695.10256  21517675.2974                   21517672.6994
 -12007706.57057  -9344761.59055  22250307.3134                   22250305.9574
 -31298493.93758 -24374910.29357  19933405.5474                   19933403.7774
 -19260225.89157 -14996570.20355  22403754.8984                   22403753.8324
  -2069850.95756  -1601212.34853  23924650.3204                   23924651.6954
  -5698127.12956  -4433422.66053  23980010.8674                   23980008.8984
 11  7 25  0  1  0.0000000  0  8G02G17G28G09G04G27G10G20
 -12503673.16047  -9730691.25845  22615769.2814                   22615766.5904
 -33656256.08247 -26213147.85946  21144097.3524                   21144094.8094
 -38899011.87548 -30301252.27346  21519248.8984                   21519246.4734
 -12084004.09047  -9404214.18045  22235788.6884                   22235786.6804
 -31361271.93048 -24423828.19546  19921459.2584                   19921457.2234
 -19316136.25447 -15040136.72345  22393115.4384                   22393114.3914
  -2197615.27346  -1700768.75443  23900337.2664                   23900338.6844
  -5709735.27346  -4442467.96543  23977801.3834                   23977800.1524
 11  7 25  0  1 30.0000000  0  8G02G17G28G09G04G27G10G20
 -12623633.80147  -9824167.00045  22592941.3594                   22592939.0904
 -33661051.74648 -26216884.75046  21143184.7424                   21143182.2814
 -38890366.81247 -30294515.88346  21520893.9144                   21520891.4654
 -12159680.20347  -9463182.57045  22221387.9694                   22221385.6294
 -31423467.57848 -24472292.32846  19909624.1254                   19909622.2154
 -19371549.10547 -15083315.56245  22382570.8984                   22382569.8014
  -2325401.58246  -1800342.32443  23876020.1644                   23876021.6134
  -5720828.73446  -4451112.19143  23975690.1724                   23975689.2384
 11  7 25  0  2  0.0000000  0  8G02G17G28G09G04G27G10G20
 -12743331.80147  -9917438.09045  22570163.6884                   22570161.1214
 -33665733.30948 -26220532.72346  21142294.1804                   21142291.5554
 -38881347.53948 -30287487.90246  21522610.0864                   21522607.8164
 -12234737.10547  -9521668.46545  22207104.8364                   22207102.4924
 -31485083.60948 -24520304.80546  19897898.8444                   19897896.7344
 -19426466.89147 -15126108.62945  22372120.1334                   22372118.9344
  -2453209.82846  -1899932.98443  23851698.6884                   23851700.2034
  -5731410.89846  -4459358.01243  23973677.1414                   23973675.8094
 11  7 25  0  2 30.0000000  0  8G02G17G28G09G04G27G10G20
 -12862765.23047 -10010503.02345  22547436.1484                   22547433.6254
 -33670301.18048 -26224092.10246  21141424.3594                   21141422.3404
 -38871953.60248 -30280167.98046  21524397.8054                   21524395.4964
 -12309172.74247  -9579670.23445  22192940.2344                   22192938.3674
 -31546119.37148 -24567865.12546  19886284.0474                   19886282.0084
 -19480888.93047 -15168515.39545  22361764.1804                   22361763.0204
  -2581036.85946  -1999538.25843  23827374.1254                   23827375.1884
  -5741481.50046  -4467205.23043  23971760.4534                   23971759.2774
 11  7 25  0  3  0.0000000  0  8G02G17G28G09G04G27G10G20
 -12981932.88347 -10103360.86345  22524758.8444                   22524756.5664
 -33674756.20348 -26227563.53946  21140576.8364                   21140574.6054
 -38862184.43748 -30272555.66846  21526256.8364                   21526254.6644
 -12382986.14547  -9637187.14545  22178894.0864                   22178892.0204
 -31606574.81248 -24614973.24246  19874779.6954                   19874777.5984
 -19534815.02348 -15210535.69945  22351502.0314                   22351500.7384
  -2708879.95346  -2099156.08244  23803046.1564                   23803046.9844
  -5751040.53546  -4474653.78543  23969941.6094                   23969940.3134
 11  7 25  0  3 30.0000000  0  8G02G17G28G09G04G27G10G20
 -13100831.72347 -10196009.23845  22502133.6414                   22502131.0274
 -33679097.26648 -26230946.18746  21139750.8594                   21139748.5634
 -38852038.93447 -30264650.10546  21528187.5164                   21528185.2114
 -12456174.79347  -9694217.21545  22164966.6254                   22164965.4964
 -31666448.09848 -24661627.73046  19863386.1254                   19863384.2854
 -19588243.31248 -15252168.10545  22341335.0474                   22341334.2344
  -2836734.64846  -2198782.91844  23778715.8594                   23778716.8914
  -5760087.18046  -4481703.12143  23968220.2194                   23968218.5784
 11  7 25  0  4  0.0000000  0  8G02G17G28G09G04G27G10G20
 -13219461.02047 -10288447.55945  22479558.8444                   22479556.5514
 -33683325.65648 -26234241.03546  21138946.3134                   21138943.9144
 -38841517.35248 -30256451.48446  21530190.0864                   21530187.1954
 -12528738.35247  -9750760.19545  22151158.0084                   22151156.7034
 -31725740.12948 -24707829.28947  19852103.2424                   19852101.3954
 -19641174.08647 -15293412.83645  22331262.9304                   22331261.7234
  -2964598.83246  -2298417.16044  23754384.4304                   23754385.2894
  -5768622.09446  -4488353.71543  23966596.1484                   23966594.6804
 11  7 25  0  4 30.0000000  0  8G02G17G28G09G04G27G10G20
 -13337817.11347 -10380673.01645  22457036.5004                   22457034.3204
 -33687439.90648 -26237446.94146  21138163.0164                   21138160.8984
 -38830617.32848 -30247957.99246  21532263.9534                   21532261.7464
 -12600673.53547  -9806813.54745  22137468.8914                   22137468.0984
 -31784448.56648 -24753576.10247  19840931.5864                   19840929.4964
 -19693604.96547 -15334268.03545  22321285.4454                   22321284.2974
  -3092467.36346  -2398054.80544  23730051.9454                   23730052.1884
  -5776643.55146  -4494604.20743  23965069.2504                   23965068.3134
 11  7 25  0  5  0.0000000  0  8G02G17G28G09G04G27G10G20
 -13455898.26647 -10472684.23845  22434566.4534                   22434563.6454
 -33691440.14548 -26240564.01646  21137402.2424                   21137399.5124
 -38819338.08247 -30239168.98046  21534410.0704                   21534407.9414
 -12671978.77747  -9862376.02345  22123900.1804                   22123899.6564
 -31842572.75048 -24798867.64847  19829870.8834                   19829868.6954
 -19745535.45747 -15374733.32445  22311403.3984                   22311402.0744
  -3220336.89546  -2497693.20344  23705719.4144                   23705719.6174
  -5784151.42346  -4500454.50843  23963640.8594                   23963639.5274
 11  7 25  0  5 30.0000000  0  8G02G17G28G09G04G27G10G20
 -11998283.09847  -9336880.13745  22711941.3524                   22711938.6684
 -32119910.88748 -25015995.77046  21436454.1884                   21436451.7584
 -37232264.22747 -29002488.07846  21836420.2424                   21836418.1844
 -11167234.69947  -8689848.12545  22410243.4384                   22410242.8094
 -30324694.86748 -23616105.63346  20118713.4534                   20118711.4144
 -18221547.62148 -14187210.30945  22601408.7424                   22601407.1884
  -1772784.39146  -1369730.03143  23981178.8444                   23981179.3164
  -4215729.94146  -3278307.81643  24262102.0634                   24262100.0514
 11  7 25  0  6  0.0000000  0  8G02G17G28G09G04G27G10G20
 -12115814.50447  -9428462.97745  22689576.0944                   22689573.0314
 -32123689.47748 -25018940.12946  21435735.2974                   21435732.6954
 -37220230.95747 -28993111.53146  21838710.5944                   21838707.9384
 -11237281.45347  -8744429.97345  22396914.1804                   22396913.3834
 -30381655.16448 -23660490.25446  20107874.1564                   20107871.9534
 -18272481.39847 -14226898.95345  22591716.5554                   22591715.2154
  -1900652.19946  -1469367.14144  23956846.0004                   23956846.7854
  -4222216.57046  -3283362.31243  24260867.4694                   24260865.5634
 11  7 25  0  6 30.0000000  0  8G02G17G28G09G04G27G10G20
 -12233068.57447  -9519829.72745  22667262.8524                   22667260.1484
 -32127357.60548 -25021798.42246  21435036.6724                   21435034.5434
 -37207819.94947 -28983440.64146  21841072.1724                   21841069.9224
 -11306697.15647  -8798520.09845  22383704.4534                   22383704.0594
 -30438032.95748 -23704420.97346  20097145.8444                   20097143.5704
 -18322916.02347 -14266198.64845  22582118.7664                   22582117.6214
  -2028514.24247  -1568999.76244  23932514.9844                   23932515.3524
  -4228192.46146  -3288018.88343  24259729.1024                   24259728.4344
 11  7 25  0  7  0.0000000  0  8G02G17G28G09G04G27G10G20
 -12350043.39147  -9610978.84845  22645003.4774                   22645000.5554
 -32130915.55548 -25024570.85946  21434360.0634                   21434357.5864
 -37195030.49647 -28973474.86746  21843505.9844                   21843503.9494
 -11375480.59047  -8852117.55545  22370615.4774                   22370615.1764
 -30493828.05948 -23747897.65247  20086528.3204                   20086525.9844
 -18372851.00047 -14305109.01245  22572616.3444                   22572615.1024
  -2156367.04346  -1668625.14144  23908185.3364                   23908185.2384
  -4233657.80146  -3292277.61743  24258690.0944                   24258688.8984
 11  7 25  0  7 30.0000000  0  8G02G17G28G09G04G27G10G20
 -12466735.86347  -9701907.98445  22622797.1564                   22622794.8164
 -32134362.19548 -25027256.55946  21433704.1564                   21433701.7544
 -37181860.91448 -28963212.88346  21846012.1094                   21846009.8164
 -11443628.86347  -8905220.08645  22357647.7034                   22357646.3954
 -30549038.62548 -23790918.85246  20076021.7974                   20076019.5274
 -18422284.46547 -14343628.58245  22563209.4924                   22563208.2194
  -2284206.02346  -1768239.76243  23883857.4614                   23883858.4454
  -4238611.28546  -3296137.48043  24257747.2114                   24257745.8324
 11  7 25  0  8  0.0000000  0  8G02G17G28G09G04G27G10G20
 -12583146.69147  -9792617.64145  22600644.9614                   22600642.3054
 -32137699.92648 -25029857.41046  21433069.0164                   21433066.5704
 -37168312.83648 -28952655.96545  21848589.9924                   21848587.5514
 -11511143.05947  -8957828.53945  22344799.5394                   22344798.1804
 -30603666.78148 -23833486.22346  20065626.6334                   20065624.4884
 -18471218.06648 -14381758.65645  22553898.0474                   22553896.5864
  -2412030.06246  -1867842.76643  23859534.0864                   23859534.2034
  -4243055.09046  -3299600.19143  24256901.8054                   24256900.1844
 11  7 25  0  8 30.0000000  0  8G02G17G28G09G04G27G10G20
 -12699271.50047  -9883104.41445  22578547.5634                   22578544.6764
 -32140926.28948 -25032371.47346  21432455.2114                   21432452.4924
 -37154383.41447 -28941801.89845  21851240.5474                   21851238.2384
 -11578019.42647  -9009939.99645  22332073.7504                   22332072.0164
 -30657709.47748 -23875597.39547  20055342.8054                   20055340.6684
 -18519648.87947 -14419496.94545  22544681.8594                   22544680.4844
  -2539833.36746  -1967429.60243  23835213.4774                   23835213.4774
  -4246986.68746  -3302663.75443  24256153.2894                   24256152.2304
 11  7 25  0  9  0.0000000  0  8G02G17G28G09G04G27G10G20
 -12815110.81647  -9973368.74245  22556503.6484                   22556500.6054
 -32144044.10948 -25034800.95746  21431861.5784                   21431859.1054
 -37140074.55547 -28930652.17246  21853964.0234                   21853961.0204
 -11644259.14547  -9061555.35945  22319468.2664                   22319466.9614
 -30711168.94548 -23917254.10946  20045169.5004                   20045167.5354
 -18567578.85247 -14456844.98845  22535560.7274                   22535559.5744
  -2667615.19546  -2066999.69543  23810897.3444                   23810897.0274
  -4250408.96946  -3305330.45743  24255501.9694                   24255500.7344
 11  7 25  0  9 30.0000000  0  8G02G17G28G09G04G27G10G20
 -12930661.56247 -10063408.21145  22534515.1954                   22534512.3014
 -32147051.73848 -25037144.57446  21431289.5004                   21431287.0124
 -37125384.34048 -28919205.28945  21856759.1174                   21856757.0744
 -11709859.50447  -9112672.51245  22306984.7504                   22306983.0554
 -30764043.53148 -23958455.06647  20035108.1414                   20035106.0434
 -18615006.04747 -14493801.25845  22526535.8364                   22526534.8524
  -2795370.94946  -2166549.48843  23786585.4144                   23786585.8244
  -4253320.40646  -3307599.12543  24254948.0554                   24254946.5984
 11  7 25  0 10  0.0000000  0  8G02G17G28G09G04G27G10G20
 -13045921.73847 -10153221.25845  22512581.3674                   22512578.8874
 -32149949.18448 -25039402.32446  21430737.9534                   21430735.8594
 -37110312.47748 -28907461.01245  21859627.1334                   21859624.4144
 -11774818.92247  -9163290.23445  22294623.8754                   22294621.6524
 -30816332.91448 -23999200.02747  20025157.5554                   20025155.5594
 -18661929.85547 -14530365.27745  22517606.9384                   22517605.9844
  -2923096.69546  -2266075.89144  23762279.9844                   23762280.8794
  -4255721.27346  -3309469.93743  24254491.2034                   24254490.3984
 11  7 25  0 10 30.0000000  0  8G02G17G28G09G04G27G10G20
 -13160888.80548 -10242805.89845  22490704.0554                   22490700.9104
 -32152736.04748 -25041573.90646  21430207.8054                   21430205.2464
 -37094857.12147 -28895417.91445  21862568.6884                   21862566.1524
 -11839135.58647  -9213407.12145  22282384.9844                   22282382.2074
 -30868035.76248 -24039487.95347  20015318.6564                   20015316.9654
 -18708349.05947 -14566536.10245  22508773.2344                   22508772.0704
  -3050787.74246  -2365575.27043  23737980.8754                   23737982.0004
  -4257610.42246  -3310942.01243  24254132.0864                   24254130.2664
 11  7 25  0 11  0.0000000  0  8G02G17G28G09G04G27G10G20
 -13275558.60547 -10332158.91445  22468882.9844                   22468880.1684
 -32155409.68447 -25043657.25446  21429699.1174                   21429696.9454
 -37079015.74647 -28883074.01645  21865583.0554                   21865580.6134
 -11902806.06647  -9263020.48445  22270268.9064                   22270266.5084
 -30919149.63748 -24079316.93446  20005592.1414                   20005590.2464
 -18754260.89847 -14602311.57845  22500036.3834                   22500035.2894
  -3178438.81246  -2465043.48043  23713690.8134                   23713690.8834
  -4258985.69146  -3312013.63743  24253870.3444                   24253868.9304
 11  7 25  0 11 30.0000000  0  8G02G17G28G09G04G27G10G20
 -13389927.97748 -10421277.82445  22447119.4144                   22447116.2624
 -32157968.64148 -25045651.25046  21429211.9144                   21429209.3484
 -37062786.39847 -28870427.81246  21868671.1024                   21868669.1524
 -11965827.80547  -9312128.32445  22258276.4144                   22258273.9964
 -30969672.73048 -24118685.57047  19995977.9774                   19995975.9104
 -18799663.43447 -14637690.18745  22491396.8204                   22491395.6524
  -3306044.75446  -2564476.55144  23689407.5394                   23689407.6724
  -4259845.88346  -3312683.91843  24253706.8204                   24253705.3484
 11  7 25  0 12  0.0000000  0  8G02G17G28G09G04G27G10G20
 -13503997.33647 -10510162.95345  22425412.3914                   22425409.4844
 -32160415.09048 -25047557.56646  21428746.2424                   21428744.0124
 -37046170.66847 -28857480.52345  21871833.3204                   21871831.1294
 -12028201.53147  -9360731.22345  22246407.1804                   22246405.1024
 -31019607.07048 -24157595.43446  19986475.8444                   19986473.8554
 -18844558.27047 -14672673.19545  22482853.5314                   22482853.0704
  -3433604.48846  -2663873.59444  23665134.1564                   23665134.0204
  -4260193.09046  -3312954.49643  24253640.2274                   24253639.1174
 11  7 25  0 12 30.0000000  0  8G02G17G28G09G04G27G10G20
 -13617763.14848 -10598811.55946  22403763.6564                   22403760.3634
 -32162747.52047 -25049375.03946  21428302.5554                   21428300.4344
 -37029166.37947 -28844230.45345  21875068.9534                   21875066.4454
 -12089924.62947  -9408827.11345  22234661.2664                   22234659.8404
 -31068950.95348 -24196045.19947  19977085.8204                   19977083.8444
 -18888943.46547 -14707259.07845  22474407.3674                   22474406.5234
  -3561113.03147  -2763230.78144  23640869.5234                   23640869.7704
  -4260026.19946  -3312824.49643  24253671.8594                   24253670.2734
 11  7 25  0 13  0.0000000  0  8G02G17G28G09G04G27G10G20
 -13731223.44148 -10687222.10246  22382173.1484                   22382169.8134
 -32164965.59048 -25051103.39146  21427880.2114                   21427878.0004
 -37011772.73047 -28830676.99245  21878379.0704                   21878376.9104
 -12150995.76247  -9456414.98845  22223039.9064                   22223038.6524
 -31117703.56648 -24234034.24247  19967808.3674                   19967806.3364
 -18932818.31247 -14741447.28545  22466058.6024                   22466057.8054
  -3688566.07047  -2862544.69944  23616615.9064                   23616616.4804
  -4259344.60546  -3312293.43443  24253801.7814                   24253800.6524
 11  7 25  0 13 30.0000000  0  8G02G17G28G09G04G27G10G20
 -13844377.52048 -10775394.02745  22360640.3984                   22360637.3164
 -32167070.50848 -25052743.57846  21427479.8594                   21427477.8204
 -36993990.75047 -28816820.92645  21881762.5164                   21881760.1174
 -12211415.11747  -9503494.98445  22211542.5234                   22211541.0634
 -31165866.29348 -24271563.62947  19958643.6954                   19958641.5824
 -18976183.74247 -14775238.53545  22457806.2274                   22457805.4024
  -3815961.62146  -2961813.84844  23592372.6724                   23592373.3524
  -4258150.03546  -3311362.64543  24254029.7734                   24254027.8914
 11  7 25  0 14  0.0000000  0  8G02G17G28G09G04G27G10G20
 -13957227.34048 -10863328.87545  22339165.4144                   22339162.6684
 -32169065.70348 -25054298.27346  21427100.1254                   21427098.1644
 -36975823.60547 -28802664.73445  21885220.0164                   21885217.6254
 -12271185.08247  -9550068.96145  22200168.7894                   22200167.4614
 -31213442.46548 -24308635.96947  19949590.1094                   19949588.0354
 -19019043.05947 -14808635.43445  22449650.1644                   22449649.7034
  -3943299.59446  -3061038.11344  23568141.1804                   23568141.6024
  -4256446.26646  -3310035.02043  24254353.3674                   24254352.5164
 11  7 25  0 14 30.0000000  0  8G02G17G28G09G04G27G10G20
 -14069773.40248 -10951027.03545  22317748.3914                   22317745.4804
 -32170953.57047 -25055769.34846  21426741.1094                   21426738.9264
 -36957272.98047 -28788209.72745  21888750.0004                   21888747.3674
 -12330306.84847  -9596137.84845  22188918.1094                   22188916.6644
 -31260434.27348 -24345252.94946  19940647.8594                   19940645.8324
 -19061398.21947 -14841639.46945  22441590.5234                   22441589.2584
  -4070578.83647  -3160216.60944  23543920.8524                   23543920.9304
  -4254236.02746  -3308312.75043  24254774.0164                   24254772.8324
 11  7 25  0 15  0.0000000  0  8G02G17G28G09G04G27G10G20
 -14182009.93748 -11038484.00445  22296391.0704                   22296387.8714
 -32172730.03948 -25057153.61346  21426403.1954                   21426400.8444
 -36938334.62947 -28773452.59045  21892353.8204                   21892351.6724
 -12388775.54347  -9641697.85245  22177792.1094                   22177791.0634
 -31306837.82048 -24381411.54747  19931817.5314                   19931815.4344
 -19103245.03147 -14874247.39845  22433627.4534                   22433626.5984
  -4197791.93446  -3259343.59844  23519713.2114                   23519712.9774
  -4251515.43446  -3306192.81243  24255292.2664                   24255290.6724
 11  7 25  0 15 30.0000000  0  8G02G17G28G09G04G27G10G20
 -14293942.19948 -11125703.89145  22275090.8204                   22275087.5354
 -32174401.75048 -25058456.25846  21426084.8204                   21426082.6334
 -36919014.84047 -28758398.22345  21896030.5704                   21896028.1414
 -12446597.05947  -9686753.55545  22166788.8204                   22166787.6374
 -31352659.58248 -24417116.80947  19923097.9844                   19923096.0824
 -19144589.72747 -14906464.05945  22425759.5084                   22425758.7624
  -4324942.00046  -3358421.45344  23495516.6564                   23495516.9304
  -4248291.50446  -3303680.66443  24255905.4454                   24255904.1724
 11  7 25  0 16  0.0000000  0  8G02G17G28G09G04G27G10G20
 -14405569.21148 -11212685.90246  22253849.0314                   22253846.0274
 -32175969.87547 -25059678.18046  21425786.2584                   21425784.2974
 -36899314.28947 -28743047.16045  21899779.4454                   21899776.8244
 -12503771.38747  -9731304.96545  22155908.8674                   22155907.5204
 -31397900.45748 -24452369.43046  19914489.1174                   19914486.8914
 -19185432.82447 -14938289.86345  22417987.6254                   22417986.8914
  -4452026.27746  -3457448.03944  23471333.7584                   23471333.6374
  -4244565.45746  -3300777.28543  24256614.3364                   24256612.9734
 11  7 25  0 16 30.0000000  0  8G02G17G28G09G04G27G10G20
 -14516890.21548 -11299429.47746  22232665.3054                   22232662.2504
 -32177434.94548 -25060819.79346  21425507.6024                   21425505.2734
 -36879233.59047 -28727399.88745  21903600.1174                   21903597.9694
 -12560298.80547  -9775352.28545  22145151.6954                   22145150.8324
 -31442561.46948 -24487170.21146  19905990.5084                   19905988.3484
 -19225775.15247 -14969725.46545  22410310.4774                   22410309.7544
  -4579042.46946  -3556421.60244  23447163.1334                   23447162.7384
  -4240338.60946  -3297483.68043  24257418.8674                   24257417.4494
 11  7 25  0 17  0.0000000  0  8G02G17G28G09G04G27G10G20
 -14627903.07848 -11385932.93045  22211539.8754                   22211537.0784
 -32178796.34047 -25061880.64546  21425248.7734                   21425246.1604
 -36858771.81647 -28711455.67245  21907494.2424                   21907492.0864
 -12616177.93047  -9818894.44945  22134518.1024                   22134517.1454
 -31486642.29348 -24521518.89846  19897601.9144                   19897599.5234
 -19265616.26647 -15000770.50045  22402729.3054                   22402728.3714
  -4705986.80546  -3655339.16844  23423006.6484                   23423006.6764
  -4235610.94146  -3293799.80943  24258318.5474                   24258317.0474
 11  7 25  0 17 30.0000000  0  8G02G17G28G09G04G27G10G20
 -14738603.19148 -11472192.68445  22190474.3364                   22190471.2034
 -32180051.62548 -25062858.80946  21425009.6644                   21425007.3484
 -36837925.77347 -28695212.03145  21911461.1484                   21911458.7584
 -12671404.79347  -9861928.36345  22124008.8444                   22124007.6524
 -31530139.84448 -24555413.08246  19889324.8594                   19889322.5084
 -19304952.84847 -15031422.39845  22395243.7194                   22395242.7934
  -4832852.23846  -3754195.23844  23398864.2734                   23398864.8284
  -4230379.98846  -3289723.72343  24259314.1174                   24259312.6994
 11  7 25  0 18  0.0000000  0  8G02G17G28G09G04G27G10G20
 -14848991.05948 -11558209.13345  22169468.4454                   22169464.9654
 -32181202.31648 -25063755.48046  21424790.9064                   21424788.4734
 -36816697.23447 -28678670.34445  21915500.6024                   21915498.2974
 -12725980.70747  -9904455.04345  22113623.4224                   22113622.4654
 -31573056.30948 -24588854.48047  19881157.9454                   19881155.6684
 -19343786.69547 -15061682.54745  22387853.9534                   22387853.0314
  -4959637.17646  -3852988.58244  23374738.5314                   23374738.4734
  -4224647.81246  -3285257.07043  24260404.6884                   24260403.5354
 11  7 25  0 18 30.0000000  0  8G02G17G28G09G04G27G10G20
 -14959060.93748 -11643977.79345  22148522.4774                   22148519.2774
 -32182244.30548 -25064567.44146  21424592.4144                   21424590.1764
 -36795082.14847 -28661827.45345  21919613.8754                   21919611.8134
 -12779901.16447  -9946470.98445  22103362.6254                   22103361.2384
 -31615387.78948 -24621840.04746  19873102.4774                   19873100.5514
 -19382113.93447 -15091547.93045  22380560.5004                   22380559.6214
  -5086334.16846  -3951713.43044  23350628.6094                   23350628.6954
  -4218411.21946  -3280397.38343  24261591.1024                   24261590.3874
 11  7 25  0 19  0.0000000  0  8G02G17G28G09G04G27G10G20
 -15068813.15648 -11729498.92645  22127637.0004                   22127633.9964
 -32183179.53548 -25065296.21146  21424414.6414                   21424412.1844
 -36773081.71947 -28644684.28945  21923800.5394                   21923798.4654
 -12833167.05147  -9987976.87145  22093226.6724                   22093225.5514
 -31657136.42648 -24654371.44547  19865158.1484                   19865156.0394
 -19419936.28947 -15121019.91045  22373362.9694                   22373362.2034
  -5212941.76246  -4050368.58244  23326535.7734                   23326536.1414
  -4211672.25446  -3275146.25843  24262873.5394                   24262872.1294
 11  7 25  0 19 30.0000000  0  8G02G17G28G09G04G27G10G20
 -15178245.86748 -11814771.09045  22106813.1564                   22106809.4494
 -32184007.19148 -25065941.15646  21424257.3054                   21424254.6294
 -36750695.52047 -28627240.53945  21928060.5314                   21928058.0784
 -12885777.19147 -10028971.79345  22083215.2974                   22083214.1954
 -31698301.67248 -24686448.25447  19857324.4614                   19857322.1954
 -19457253.07047 -15150097.93445  22366261.8594                   22366261.0514
  -5339455.78546  -4148950.82844  23302460.8914                   23302460.5864
  -4204431.23846  -3269503.93743  24264251.5634                   24264250.6174
 11  7 25  0 20  0.0000000  0  8G02G17G28G09G04G27G10G20
 -15287360.89548 -11899795.70345  22086048.4694                   22086045.5554
 -32184731.25848 -25066505.37946  21424119.2734                   21424116.7894
 -36727927.08647 -28609498.93045  21932393.4614                   21932391.2384
 -12937734.96947 -10069458.37145  22073327.8754                   22073326.9614
 -31738887.57048 -24718073.62547  19849601.3594                   19849598.9064
 -19494068.23847 -15178785.09045  22359256.1024                   22359255.7504
  -5465876.45346  -4247460.32844  23278404.1484                   23278403.3594
  -4196692.45346  -3263473.70743  24265724.8134                   24265723.2814
 11  7 25  0 20 30.0000000  0  8G02G17G28G09G04G27G10G20
 -15396156.90648 -11984571.75046  22065345.8284                   22065342.1804
 -32185352.23448 -25066989.27346  21424001.0164                   21423999.2074
 -36704776.67647 -28591459.68045  21936798.8134                   21936796.5514
 -12989040.19147 -10109436.46945  22063564.6644                   22063563.2704
 -31778894.93048 -24749248.18747  19841987.9534                   19841985.8014
 -19530382.31647 -15207081.78945  22352346.1174                   22352345.2704
  -5592200.81246  -4345894.78544  23254365.0474                   23254364.8714
  -4188456.72346  -3257056.26643  24267291.2274                   24267290.3324
 11  7 25  0 21  0.0000000  0  8G02G17G28G09G04G27G10G20
 -15504630.80948 -12069096.78946  22044704.0234                   22044700.3874
 -32185867.93748 -25067391.13346  21423902.9064                   21423900.4614
 -36681242.40247 -28573121.32045  21941277.2664                   21941274.9064
 -13039690.51247 -10148904.26245  22053926.7504                   22053924.9964
 -31818322.12948 -24779970.66846  19834485.4454                   19834483.3594
 -19566193.18747 -15234986.37945  22345531.4614                   22345530.8014
  -5718423.18446  -4444249.76244  23230345.8364                   23230345.6134
  -4179722.78946  -3250250.60943  24268953.8984                   24268952.0124
 11  7 25  0 21 30.0000000  0  8G02G17G28G09G04G27G10G20
 -15612785.47748 -12153373.08246  22024122.2584                   22024119.3244
 -32186282.60248 -25067714.25846  21423824.2034                   21423821.9304
 -36657328.01647 -28554486.77045  21945828.1024                   21945825.8634
 -13089689.25447 -10187864.34445  22044412.3674                   22044410.7274
 -31857173.48048 -24810244.44546  19827092.1334                   19827089.9144
 -19601504.90247 -15262502.01645  22338811.8444                   22338810.9924
  -5844544.04746  -4542525.65644  23206345.6954                   23206345.5004
  -4170495.14846  -3243060.25843  24270709.2664                   24270708.5204
 11  7 25  0 22  0.0000000  0  8G02G17G28G09G04G27G10G20
 -15720616.93448 -12237397.52046  22003602.6644                   22003600.0664
 -32186593.89847 -25067956.83246  21423765.3444                   21423762.3674
 -36633031.34047 -28535554.32845  21950451.5234                   21950449.2464
 -13139034.07047 -10226314.85945  22035022.4384                   22035020.4654
 -31895447.19948 -24840068.11347  19819808.7504                   19819806.6764
 -19636315.56647 -15289627.22745  22332188.0784                   22332186.5784
  -5970558.07446  -4640718.30944  23182365.3914                   23182365.5904
  -4160772.39546  -3235484.12143  24272559.3054                   24272558.1684
 11  7 25  0 22 30.0000000  0  8G02G17G28G09G04G27G10G20
 -15828126.85948 -12321171.41846  21983144.2734                   21983141.4344
 -32186804.77347 -25068121.16046  21423724.6254                   21423722.3754
 -36608355.52047 -28516326.44945  21955147.0554                   21955145.1054
 -13187727.59047 -10264257.88345  22025756.1954                   22025755.2504
 -31933146.89148 -24869444.48847  19812634.7034                   19812632.4024
 -19670628.41847 -15316364.53545  22325658.3444                   22325657.2114
  -6096464.88746  -4738827.40644  23158406.7974                   23158406.2424
  -4150558.74246  -3227525.43743  24274503.5164                   24274501.9654
 11  7 25  0 23  0.0000000  0  8G02G17G28G09G04G27G10G20
 -15935313.06248 -12404693.07046  21962747.4454                   21962744.3794
 -32186914.33247 -25068206.52346  21423704.0084                   21423701.8674
 -36583299.80947 -28496802.55545  21959915.2734                   21959912.8054
 -13235768.77047 -10301692.58245  22016614.5394                   22016613.1564
 -31970272.12948 -24898373.23847  19805570.1884                   19805567.8914
 -19704443.00447 -15342713.59845  22319223.2974                   22319222.8054
  -6222260.12146  -4836849.57844  23134468.3984                   23134468.2664
  -4139854.12546  -3219184.17643  24276539.9064                   24276539.1174
 11  7 25  0 23 30.0000000  0  8G02G17G28G09G04G27G10G20
 -16042175.66448 -12487962.55946  21942411.9534                   21942409.1724
 -32186923.95347 -25068214.01646  21423702.0864                   21423699.8054
 -36557865.50447 -28476983.63745  21964755.2974                   21964753.1214
 -13283158.48047 -10338619.64545  22007596.5554                   22007595.4614
 -32006824.73048 -24926855.77347  19798614.4144                   19798612.2194
 -19737760.77047 -15368675.52745  22312882.9384                   22312882.2704
  -6347941.52346  -4934783.04344  23110552.0634                   23110551.5744
  -4128660.26246  -3210461.68443  24278670.2504                   24278669.4384
 11  7 25  0 24  0.0000000  0  8G02G17G28G09G04G27G10G20
 -16148711.00048 -12570977.05946  21922138.7894                   21922135.8134
 -32186831.98447 -25068142.35546  21423719.3054                   21423717.5084
 -36532050.69147 -28456868.22745  21969667.5394                   21969665.3954
 -13329894.57847 -10375037.39145  21998703.1644                   21998701.7274
 -32042803.14148 -24954890.88747  19791768.0704                   19791765.9964
 -19770579.99247 -15394248.98445  22306638.2344                   22306636.7974
  -6473503.79746  -5032623.65644  23086657.6334                   23086657.6414
  -4116975.88746  -3201357.01243  24280893.2194                   24280892.5394
 11  7 25  0 24 30.0000000  0  8G02G17G28G09G04G27G10G20
 -16254921.23448 -12653738.21946  21901927.9224                   21901924.5274
 -32186641.69547 -25067994.08646  21423755.5314                   21423753.7544
 -36505858.72347 -28436458.93745  21974651.5394                   21974649.8444
 -13375980.33647 -10410948.38745  21989932.8834                   21989932.2734
 -32078211.45347 -24982481.77047  19785029.9144                   19785027.5474
 -19802904.22747 -15419436.73445  22300486.6334                   22300485.8634
  -6598946.81246  -5130371.36344  23062786.7114                   23062786.4734
  -4104805.69146  -3191873.73443  24283209.1564                   24283208.8014
 11  7 25  0 25  0.0000000  0  9G02G17G28G09G04G27G10G20G12
 -16360805.29748 -12736245.23046  21881778.4694                   21881775.7074
 -32186353.18447 -25067769.27746  21423810.9304                   21423808.6884
 -36479289.72747 -28415755.86345  21979707.7344                   21979705.8094
 -13421415.63747 -10446352.53545  21981286.7974                   21981286.2304
 -32113050.30148 -25009628.91047  19778400.3134                   19778398.4574
 -19834734.07847 -15444239.25845  22294429.7734                   22294428.9694
  -6724267.45346  -5228023.71144  23038939.2664                   23038938.1414
  -4092150.70146  -3182012.78143  24285617.7894                   24285616.9734
   1382746.27056   1092726.35254  24540586.2664                   24540586.3014
 11  7 25  0 25 30.0000000  0  9G02G17G28G09G04G27G10G20G12
 -16466373.51648 -12818506.13346  21861689.7424                   21861686.1094
 -32185978.00447 -25067476.93446  21423882.2114                   21423879.7034
 -36452355.94947 -28394768.53945  21984832.8284                   21984830.8324
 -13466211.98047 -10481258.80945  21972762.4064                   21972762.0634
 -32147331.85948 -25036341.79747  19771877.1254                   19771874.3874
 -19866081.47347 -15468665.83245  22288464.6644                   22288463.8794
  -6849473.78947  -5325586.98444  23015113.1174                   23015112.8674
  -4079023.31246  -3171783.61343  24288116.0234                   24288115.6094
   1252751.06647    991431.39844  24515848.4844                   24515849.2034
 11  7 25  0 26  0.0000000  0  9G02G17G28G09G04G27G10G20G12
 -16571632.14148 -12900525.78946  21841659.4614                   21841655.9654
 -32185523.67247 -25067122.90646  21423968.5474                   21423965.8444
 -36425064.58247 -28373502.58245  21990026.5784                   21990024.0434
 -13510376.56647 -10515672.79345  21964358.3134                   21964357.7734
 -32181064.40248 -25062626.88747  19765457.5554                   19765455.2814
 -19896954.07447 -15492722.44545  22282589.9454                   22282589.3444
  -6974569.68447  -5423064.22344  22991308.1024                   22991307.8014
  -4065431.50846  -3161192.60243  24290702.8204                   24290701.3134
   1122724.91847    890112.26644  24491105.3834                   24491105.5904
 11  7 25  0 26 30.0000000  0  9G02G17G28G09G04G27G10G20G12
 -16676575.07848 -12982299.46146  21821689.6724                   21821686.0044
 -32184985.65247 -25066703.68446  21424070.9694                   21424068.9264
 -36397411.26647 -28351954.57845  21995289.1884                   21995286.5634
 -13553904.88747 -10549590.98045  21956075.0784                   21956074.4184
 -32214244.04348 -25088481.14147  19759143.9064                   19759141.8554
 -19927347.77347 -15516405.88745  22276806.2894                   22276805.4964
  -7099547.27047  -5520449.25444  22967525.3284                   22967525.2664
  -4051372.03146  -3150237.16043  24293378.1724                   24293376.6954
    992673.82447    788773.71144  24466357.4774                   24466358.2344
 11  7 25  0 27  0.0000000  0  9G02G17G28G09G04G27G10G20G12
 -16781194.13348 -13063820.75046  21801781.1564                   21801778.1054
 -32184356.43047 -25066213.38346  21424190.9064                   21424188.5474
 -36369389.51647 -28330119.50445  22000621.0314                   22000618.7974
 -13596790.02747 -10583008.00045  21947914.2034                   21947913.7704
 -32246864.48848 -25113899.66047  19752936.3754                   19752933.9734
 -19957256.24647 -15539711.22345  22271114.7584                   22271114.1214
  -7224396.07447  -5617733.95344  22943767.8524                   22943767.0234
  -4036838.91846  -3138912.65643  24296143.4844                   24296141.9064
    862606.52347    687422.51244  24441606.2814                   24441606.7894
 11  7 25  0 27 30.0000000  0  9G02G17G28G09G04G27G10G20G12
 -16885483.19948 -13145084.89546  21781935.6024                   21781932.3244
 -32183631.82047 -25065648.75446  21424328.8204                   21424326.3754
 -36340994.50847 -28307993.56645  22006024.3364                   22006022.9224
 -13639027.33647 -10615920.20745  21939876.9064                   21939876.0514
 -32278921.53148 -25138879.16047  19746836.0164                   19746833.5434
 -19986675.01247 -15562634.96545  22265516.8054                   22265515.7934
  -7349107.60947  -5714911.68444  22920035.3984                   22920035.1294
  -4021828.34446  -3127216.10943  24299000.1804                   24298997.7034
    732529.92247    586064.10544  24416853.3834                   24416853.9384
 11  7 25  0 28  0.0000000  0  9G02G17G28G09G04G27G10G20G12
 -16989437.08248 -13226087.87146  21762153.6254                   21762150.2424
 -32182807.43047 -25065006.37946  21424485.4694                   21424482.9964
 -36312222.09047 -28285573.54345  22011499.5164                   22011497.8094
 -13680612.27747 -10648324.09845  21931963.7734                   21931962.6294
 -32310411.75448 -25163416.98447  19740843.6024                   19740841.7114
 -20015600.13347 -15585174.04345  22260012.2814                   22260011.7854
  -7473674.30947  -5811976.57044  22896331.4454                   22896330.5204
  -4006337.04346  -3115144.98043  24301947.7274                   24301945.6844
    602450.22746    484703.34843  24392099.6484                   24392100.6334
 11  7 25  0 28 30.0000000  0  9G02G17G28G09G04G27G10G20G12
 -17093052.91448 -13306827.43746  21742436.4384                   21742432.9774
 -32181881.76647 -25064285.08646  21424661.5634                   21424659.4774
 -36283071.18747 -28262858.60245  22017047.2664                   22017045.1054
 -13721543.56647 -10680218.62945  21924174.6644                   21924173.4534
 -32341334.30947 -25187512.47346  19734959.2504                   19734957.2424
 -20044030.94947 -15607327.94145  22254602.1724                   22254601.7384
  -7598091.56647  -5908924.99644  22872655.3914                   22872655.1294
  -3990364.44546  -3102698.84843  24304987.6644                   24304985.7814
    472370.57046    383342.65643  24367346.3984                   24367347.7234
 11  7 25  0 29  0.0000000  0  9G02G17G28G09G04G27G10G20G12
 -15620906.10548 -12159700.00446  22022576.5944                   22022572.9654
 -30605434.68747 -23835884.77746  21724649.5704                   21724647.3674
 -34678123.03947 -27012249.68745  22322458.7424                   22322456.6604
 -12186399.94147  -9484002.83245  22216302.6724                   22216301.5314
 -30796269.10947 -23983565.55547  20028975.5784                   20028973.0594
 -18496546.88747 -14401496.21145  22549078.6094                   22549077.8284
  -6146931.55147  -4778150.87144  23148802.0164                   23148801.0664
  -2398492.30946  -1862278.99242  24607910.6334                   24607908.8164
   1917717.12946   1509586.84443  24642386.1884                   24642387.9734
 11  7 25  0 29 30.0000000  0  9G02G17G28G09G04G27G10G20G12
 -15723841.10948 -12239909.04746  22002988.5394                   22002985.0944
 -30604304.85247 -23835004.39846  21724864.6414                   21724862.3834
 -34648214.33247 -26988944.24245  22328149.9844                   22328148.0044
 -12226022.95347  -9514877.91845  22208762.8834                   22208761.3444
 -30826057.45348 -24006777.23047  20023307.0004                   20023305.0704
 -18523988.82047 -14422879.53945  22543856.7504                   22543856.0744
  -6271037.82847  -4874856.99644  23125185.1094                   23125184.9924
  -2381558.94146  -1849084.19142  24611133.1254                   24611131.3714
   1787644.68046   1408231.80543  24617634.4144                   24617636.4574
 11  7 25  0 30  0.0000000  0  9G02G17G28G09G04G27G10G20G12
 -15826435.86348 -12319852.95746  21983465.5474                   21983461.9104
 -30603074.96147 -23834046.05546  21725098.5474                   21725096.3484
 -34617929.74247 -26965345.89845  22333913.2274                   22333910.8794
 -12264994.57447  -9545245.42645  22201346.8914                   22201345.2894
 -30855282.40648 -24029549.90647  20017745.4924                   20017743.4534
 -18550939.66847 -14443880.19145  22538727.9844                   22538727.5394
  -6394985.65647  -4971439.64144  23101598.9774                   23101598.2194
  -2364149.61346  -1835518.47342  24614445.9924                   24614444.2504
   1657575.81646   1306879.54743  24592882.9454                   24592885.3794
 11  7 25  0 30 30.0000000  0  9G02G17G28G09G04G27G10G20G12
 -15928687.71148 -12399529.66046  21964007.6094                   21964004.3404
 -30601743.55548 -23833008.61746  21725351.7274                   21725349.8134
 -34587267.32047 -26941453.14145  22339747.4694                   22339745.7854
 -12303312.92247  -9575103.87545  22194055.2504                   22194053.2854
 -30883942.94548 -24051882.78147  20012291.4304                   20012289.2464
 -18577398.08247 -14464497.12945  22533693.5784                   22533692.7384
  -6518769.82447  -5067894.75844  23078043.3134                   23078043.2894
  -2346263.35546  -1821581.12142  24617848.8204                   24617847.5274
   1527514.71946   1205533.35943  24568133.7114                   24568135.2274
 11  7 25  0 31  0.0000000  0  9G02G17G28G09G04G27G10G20G12
 -16030595.98048 -12478938.64846  21944614.9614                   21944611.5204
 -30600310.80547 -23831892.20746  21725624.7664                   21725622.3674
 -34556228.14847 -26917266.80945  22345654.4924                   22345652.5394
 -12340978.76648  -9604453.88345  22186887.2734                   22186885.7894
 -30912040.36348 -24073776.85947  20006944.8914                   20006942.5274
 -18603364.97347 -14484731.06245  22528751.5864                   22528751.3634
  -6642387.26647  -5164219.96144  23054519.9064                   23054519.8794
  -2327901.42246  -1807273.09042  24621342.9924                   24621341.5434
   1397462.82046   1104194.37144  24543386.2034                   24543387.0944
 11  7 25  0 31 30.0000000  0  9G02G17G28G09G04G27G10G20G12
 -16132164.24648 -12558082.68446  21925287.0784                   21925283.9264
 -30598781.03547 -23830700.19546  21725916.0084                   21725913.5204
 -34524816.83247 -26892790.48845  22351631.8134                   22351630.0044
 -12377996.80947  -9633299.10945  22179843.2344                   22179841.5474
 -30939579.86348 -24095236.19547  20001704.2194                   20001701.9964
 -18628845.49247 -14504585.99645  22523903.1644                   22523902.3324
  -6765838.87547  -5260415.92644  23031027.2504                   23031027.0314
  -2309069.61346  -1792598.98042  24624927.2194                   24624925.5594
   1267417.36346   1002860.38344  24518639.1804                   24518640.1094
 11  7 25  0 32  0.0000000  0  9G02G17G28G09G04G27G10G20G12
 -16233388.28548 -12636958.51246  21906024.8054                   21906021.5824
 -30597151.62947 -23829430.54346  21726225.8914                   21726223.7234
 -34493031.10947 -26868022.40645  22357680.6484                   22357678.6644
 -12414364.85948  -9661637.84045  22172922.8134                   22172920.4734
 -30966559.77748 -24116259.49647  19996570.2034                   19996568.0274
 -18653837.89147 -14524060.57445  22519147.6094                   22519146.1174
  -6889118.74247  -5356478.08244  23007568.2034                   23007567.4774
  -2289766.57845  -1777557.64842  24628600.3284                   24628598.8094
   1137382.83647    901534.90244  24493895.0314                   24493894.8364
 11  7 25  0 32 30.0000000  0  9G02G17G28G09G04G27G10G20G12
 -16334266.48048 -12715564.84046  21886828.0704                   21886824.7814
 -30595422.16447 -23828082.91846  21726554.9774                   21726552.9844
 -34460871.21147 -26842962.78145  22363800.5004                   22363798.8594
 -12450082.69947  -9689469.92645  22166125.4454                   22166123.8134
 -30992980.85547 -24136847.34047  19991542.4224                   19991540.1994
 -18678342.27747 -14543154.89545  22514484.1724                   22514483.3484
  -7012223.05947  -5452403.44144  22984142.0474                   22984141.7154
  -2269992.91046  -1762149.55942  24632363.2664                   24632361.7814
   1007361.54347    800219.72744  24469152.3754                   24469152.7194
 11  7 25  0 33  0.0000000  0  9G02G17G28G09G04G27G10G20G12
 -16434798.30148 -12793901.26246  21867697.8204                   21867694.5234
 -30593592.66047 -23826657.34446  21726903.3284                   21726900.8524
 -34428337.68747 -26817612.02045  22369991.3204                   22369989.3244
 -12485150.69947  -9716795.63745  22159452.8594                   22159450.4884
 -31018844.30148 -24157000.65647  19986620.7584                   19986618.5514
 -18702359.52747 -14561869.62145  22509913.6484                   22509912.4494
  -7135148.56647  -5548189.49244  22960750.3204                   22960749.4104
  -2249750.32845  -1746376.14142  24636214.4064                   24636214.2854
    877355.45347    698916.36344  24444413.0394                   24444413.1414
 11  7 25  0 33 30.0000000  0  9G02G17G28G09G04G27G10G20G12
 -16534984.31648 -12871968.24246  21848632.7974                   21848629.4184
 -30591664.80147 -23825155.12146  21727270.0554                   21727267.9144
 -34395432.27047 -26791971.45345  22376253.0084                   22376251.0314
 -12519571.10547  -9743616.73845  22152902.9304                   22152900.3984
 -31044152.53148 -24176721.34847  19981804.7584                   19981802.6174
 -18725891.98847 -14580206.60245  22505436.0474                   22505434.7274
  -7257893.34047  -5643834.69144  22937392.3054                   22937391.6374
  -2229041.45345  -1730239.35543  24640155.4614                   24640155.5984
    747364.57846    597624.87544  24419676.6484                   24419676.2704
 11  7 25  0 34  0.0000000  0  9G02G17G28G09G04G27G10G20G12
 -16634820.44948 -12949762.57046  21829634.7034                   21829631.0234
 -30589635.93747 -23823574.19946  21727656.1724                   21727653.4494
 -34362152.80947 -26766039.44145  22382585.7424                   22382584.0554
 -12553341.68447  -9769931.46545  22146476.4694                   22146474.6804
 -31068903.95348 -24196008.15647  19977094.9534                   19977092.3524
 -18748937.65247 -14598164.25045  22501049.9924                   22501048.9614
  -7380451.17647  -5739334.22344  22914070.8834                   22914069.7234
  -2207864.90645  -1713738.19542  24644185.6724                   24644184.3554
    617393.91047    496349.08644  24394943.7734                   24394943.2704
 11  7 25  0 34 30.0000000  0  9G02G17G28G09G04G27G10G20G12
 -16734309.60248 -13027286.52746  21810702.6254                   21810698.9924
 -30587509.40647 -23821917.18446  21728060.8914                   21728058.5784
 -34328503.44547 -26739819.18445  22388989.4694                   22388987.1294
 -12586466.55547  -9795743.05545  22140172.6644                   22140170.8834
 -31093103.28148 -24214864.76647  19972489.6804                   19972487.4224
 -18771501.16847 -14615746.21145  22496756.7424                   22496755.1804
  -7502822.37147  -5834688.33244  22890784.2974                   22890782.7194
  -2186225.75845  -1696876.52042  24648302.9534                   24648302.6484
    487441.14146    395087.23444  24370214.2034                   24370213.9344
 11  7 25  0 35  0.0000000  0  9G02G17G28G09G04G27G10G20G12
 -16833445.84448 -13104535.49246  21791837.4384                   21791833.7624
 -30585279.96148 -23820179.97346  21728484.7814                   21728482.9104
 -34294479.86747 -26713307.32845  22395463.7584                   22395462.3364
 -12618941.53147  -9821048.24645  22133992.8134                   22133991.5634
 -31116746.74248 -24233288.23846  19967990.4224                   19967988.0554
 -18793578.24647 -14632949.13345  22492555.7504                   22492554.2774
  -7624998.46147  -5929890.41844  22867535.0784                   22867533.9264
  -2164120.33646  -1679651.53942  24652510.7114                   24652508.7344
    357513.23446    293844.75044  24345489.2974                   24345489.3134
 11  7 25  0 35 30.0000000  0  8G02G17G28G09G04G27G10G12
 -16932233.61348 -13181512.91446  21773038.7664                   21773035.3554
 -30582953.45348 -23818367.12946  21728927.9304                   21728925.6644
 -34260088.05947 -26686508.54345  22402008.1414                   22402006.2464
 -12650772.54747  -9845851.63745  22127935.8524                   22127934.0634
 -31139840.93048 -24251283.71146  19963595.8524                   19963593.5044
 -18815175.48047 -14649778.14845  22488445.8524                   22488444.5984
  -7746981.60947  -6024942.16444  22844322.0164                   22844321.2854
    227606.68046    192618.91043  24320768.8984                   24320768.3984
 11  7 25  0 36  0.0000000  0  8G02G17G28G09G04G27G10G12
 -17030666.13348 -13258213.52346  21754307.6564                   21754304.3324
 -30580524.12548 -23816474.16846  21729390.1174                   21729388.1954
 -34225322.77747 -26659418.75445  22408623.8444                   22408622.0634
 -12681954.33647  -9870149.14545  22122002.3594                   22122000.5594
 -31162381.18048 -24268847.53147  19959306.6804                   19959304.5704
 -18836287.63347 -14666229.18745  22484427.6884                   22484426.9804
  -7868762.71547  -6119836.46944  22821147.9614                   22821146.7704
     97729.48046     91415.92643  24296053.3444                   24296054.0354
 11  7 25  0 36 30.0000000  0  8G02G17G28G09G04G27G10G12
 -17128732.40248 -13334628.73046  21735646.1334                   21735642.6414
 -30577981.43048 -23814492.86346  21729874.3054                   21729871.8404
 -34190174.25847 -26632030.33245  22415312.8054                   22415310.8754
 -12712477.51247  -9893933.44945  22116194.0554                   22116191.9574
 -31184358.32847 -24285972.58246  19955124.3284                   19955122.1374
 -18856905.49247 -14682295.07045  22480504.9224                   22480503.6484
  -7990327.96147  -6214562.57044  22798014.9774                   22798014.1914
    -32106.29346     -9754.74244  24271347.4924                   24271346.6724
 11  7 25  0 37  0.0000000  0  8G02G17G28G09G04G27G10G12
 -17226428.02048 -13410755.12946  21717054.9694                   21717051.4884
 -30575322.15648 -23812420.70746  21730379.8914                   21730377.8554
 -34154639.59847 -26604341.02745  22422074.5944                   22422072.6844
 -12742339.00047  -9917202.14545  22110511.4384                   22110509.3164
 -31205770.45348 -24302657.35247  19951049.5164                   19951047.5594
 -18877026.65647 -14697973.90645  22476675.6644                   22476674.6334
  -8111670.74647  -6309115.33644  22774924.0004                   22774923.1294
   -161895.71147   -110889.29744  24246649.3594                   24246648.5434
 11  7 25  0 37 30.0000000  0  8G02G17G28G09G04G27G10G12
 -17323755.13348 -13486594.37546  21698534.5944                   21698530.6914
 -30572549.11347 -23810259.89546  21730908.2584                   21730905.3484
 -34118722.69147 -26576353.87145  22428909.2584                   22428907.4734
 -12771543.19947  -9939958.67645  22104953.8364                   22104951.9734
 -31226621.70347 -24318905.07447  19947081.7734                   19947079.5824
 -18896655.50447 -14713269.12945  22472941.1334                   22472939.3634
  -8232790.62547  -6403494.38745  22751875.2274                   22751874.4184
   -291639.66047   -211988.43744  24221959.4694                   24221959.2624
 11  7 25  0 38  0.0000000  0  8G02G17G28G09G04G27G10G12
 -17420717.94548 -13562149.75446  21680083.1254                   21680079.7424
 -30569667.39147 -23808014.41446  21731455.9064                   21731453.7304
 -34082429.27747 -26548073.34045  22435816.1254                   22435814.1134
 -12800095.60947  -9962207.30545  22099520.6024                   22099518.6884
 -31246918.52348 -24334720.78146  19943219.8054                   19943217.5744
 -18915797.95747 -14728185.34045  22469297.8524                   22469296.6054
  -8353689.62547  -6497701.35245  22728868.9224                   22728868.8794
   -421341.30947   -313054.60944  24197278.7664                   24197278.3204
 11  7 25  0 38 30.0000000  0  8G02G17G28G09G04G27G10G12
 -17517320.01248 -13637424.03546  21661700.5864                   21661696.9064
 -30566681.15647 -23805687.48446  21732024.2584                   21732022.0274
 -34045764.15647 -26519503.16445  22442792.7504                   22442790.9104
 -12828001.43747  -9983952.10245  22094210.4924                   22094208.6414
 -31266666.64548 -24350108.93047  19939461.6254                   19939459.0004
 -18934459.32847 -14742726.69545  22465746.8834                   22465745.1294
  -8474368.56647  -6591736.82844  22705904.4304                   22705903.3874
   -551003.21547   -414089.78544  24172604.9304                   24172604.5704
 11  7 25  0 39  0.0000000  0  8G02G17G28G09G04G27G10G12
 -17613563.51248 -13712418.91446  21643385.4614                   21643381.8164
 -30563593.42647 -23803281.46946  21732611.6644                   21732609.7734
 -34008731.27747 -26490646.42245  22449840.0394                   22449837.9574
 -12855264.44547 -10005195.99245  22089022.1024                   22089020.6644
 -31285870.35548 -24365072.84847  19935807.0394                   19935804.8324
 -18952643.68447 -14756896.34445  22462286.6644                   22462285.2814
  -8594826.99647  -6685600.48444  22682981.7664                   22682980.7074
   -680626.40647   -515094.79744  24147938.5234                   24147937.9734
 11  7 25  0 39 30.0000000  0  8G02G17G28G09G04G27G10G12
 -17709448.92648 -13787134.77346  21625139.5004                   21625135.5554
 -30560405.55548 -23800797.42646  21733218.6954                   21733216.5084
 -33971332.24247 -26461504.36745  22456956.9924                   22456955.5164
 -12881886.64547 -10025940.54345  22083955.8364                   22083954.6844
 -31304531.95748 -24379614.36747  19932255.9534                   19932253.7074
 -18970353.22347 -14770696.00445  22458916.3444                   22458915.3444
  -8715062.45347  -6779290.39844  22660101.6884                   22660101.1484
   -810210.02747   -616068.94944  24123279.7424                   24123278.7344
 11  7 25  0 40  0.0000000  0  8G02G17G28G09G04G27G10G12
 -17804977.56648 -13861572.62146  21606960.6484                   21606957.1644
 -30557119.78547 -23798237.10246  21733844.0474                   21733841.4534
 -33933570.58647 -26432079.73045  22464142.5864                   22464141.3404
 -12907871.48047 -10046188.45745  22079011.4064                   22079010.0314
 -31322655.31248 -24393736.45346  19928807.1884                   19928805.2624
 -18987591.47347 -14784128.43045  22455635.6024                   22455634.8674
  -8835074.41847  -6872806.16045  22637264.2114                   22637263.5904
   -939754.59847   -717012.67244  24098628.7504                   24098627.3014
 11  7 25  0 40 30.0000000  0  8G02G17G28G09G04G27G10G12
 -17900145.89148 -13935729.71146  21588850.7664                   21588847.1454
 -30553732.99647 -23795598.03946  21734488.1954                   21734486.0784
 -33895443.55547 -26402370.41045  22471398.0864                   22471396.5004
 -12933216.98847 -10065938.18445  22074188.3524                   22074187.0234
 -31340238.83247 -24407437.89547  19925461.2504                   19925459.4494
 -19004356.66047 -14797192.23445  22452445.7894                   22452444.5434
  -8954856.23047  -6966142.57445  22614471.0234                   22614469.8874
  -1069255.42647   -817922.30944  24073984.1644                   24073983.6454
 11  7 25  0 41  0.0000000  0  8G02G17G28G09G04G27G10G12
 -17994954.97748 -14009606.87946  21570809.4694                   21570805.5904
 -30550247.09448 -23792881.75846  21735151.8364                   21735149.4694
 -33856954.07447 -26372378.65645  22478722.3284                   22478720.6484
 -12957926.15647 -10085192.06645  22069486.3204                   22069484.8324
 -31357285.79748 -24420721.24247  19922217.1954                   19922215.1334
 -19020651.79747 -14809889.77045  22449345.1414                   22449343.8594
  -9074406.36347  -7059298.46545  22591720.7734                   22591720.2344
  -1198712.13746   -918797.56643  24049348.6954                   24049348.2384
 11  7 25  0 41 30.0000000  0  8G02G17G28G09G04G27G10G12
 -18089402.59048 -14083202.38746  21552836.1564                   21552832.7424
 -30546660.71148 -23790087.18046  21735834.2584                   21735831.8554
 -33818101.68447 -26342104.10945  22486116.0314                   22486113.9024
 -12981998.23447 -10103949.51245  22064905.5234                   22064904.0354
 -31373796.35947 -24433586.60947  19919075.5944                   19919073.6454
 -19036476.62946 -14822220.84445  22446333.3594                   22446332.1684
  -9193720.43447  -7152270.41045  22569016.1644                   22569015.2704
  -1328121.57046  -1019635.97744  24024723.4844                   24024721.7114
 11  7 25  0 42  0.0000000  0  8G02G17G28G09G04G27G10G12
 -18183489.25848 -14156516.63346  21534932.1644                   21534928.1954
 -30542974.89548 -23787215.12146  21736535.6564                   21736533.2774
 -33778888.36347 -26311548.32445  22493577.8674                   22493576.0044
 -13005435.66047 -10122212.42645  22060445.2734                   22060444.0904
 -31389773.54348 -24446036.35947  19916035.2344                   19916033.1374
 -19051833.66447 -14834187.38745  22443411.2664                   22443409.7274
  -9312796.31647  -7245056.75045  22546356.8134                   22546355.5044
  -1457483.25847  -1120437.20344  24000106.2974                   24000104.5234
 11  7 25  0 42 30.0000000  0  8G02G17G28G09G04G27G10G12
 -18277215.77748 -14229550.26246  21517096.3134                   21517092.7974
 -30539190.78948 -23784266.47346  21737255.7664                   21737253.8754
 -33739316.04347 -26280712.78944  22501108.2814                   22501106.1524
 -13028240.92647 -10139982.75445  22056105.6484                   22056104.6214
 -31405219.59448 -24458072.23847  19913096.0864                   19913093.7664
 -19066725.51647 -14845791.46145  22440577.6724                   22440576.0434
  -9431631.74247  -7337655.72745  22523743.0234                   22523741.5434
  -1586796.32447  -1221200.54344  23975499.4224                   23975496.4694
 11  7 25  0 43  0.0000000  0  8G02G17G28G09G04G27G10G12
 -18370580.68448 -14302302.09846  21499329.5704                   21499326.1214
 -30535307.86748 -23781240.82846  21737994.4844                   21737992.5514
 -33699384.96547 -26249597.70744  22508706.7894                   22508705.1294
 -13050414.74247 -10157261.04745  22051886.0164                   22051884.9964
 -31420135.93048 -24469695.35547  19910257.3134                   19910255.4774
 -19081152.87147 -14857033.59845  22437832.4614                   22437830.8674
  -9550223.23047  -7430064.60945  22501175.6334                   22501174.5984
  -1716058.38347  -1321924.16044  23950901.9534                   23950898.8054
 11  7 25  0 43 30.0000000  0  8G02G17G28G09G04G27G10G12
 -18463581.56248 -14374770.29346  21481632.5704                   21481628.3634
 -30531324.30948 -23778136.75846  21738752.5554                   21738750.5204
 -33659094.50847 -26218202.59445  22516374.1024                   22516372.3594
 -13071956.27747 -10174046.64545  22047786.8054                   22047785.7274
 -31434521.87148 -24480905.18047  19907519.8754                   19907517.5904
 -19095115.05547 -14867913.26245  22435174.9534                   22435173.8284
  -9668565.57047  -7522279.35545  22478656.0704                   22478654.9494
  -1845265.61347  -1422605.06244  23926314.9064                   23926311.5354
 11  7 25  0 44  0.0000000  0  8G02G17G28G09G04G27G10G12
 -18556219.45348 -14446955.62546  21464003.7424                   21464000.1844
 -30527241.55148 -23774955.40646  21739529.7114                   21739527.5234
 -33618446.63747 -26186528.97744  22524109.4224                   22524107.2664
 -13092868.14847 -10190341.61745  22043808.1094                   22043806.6334
 -31448380.60948 -24491704.18747  19904882.7424                   19904880.4454
 -19108614.87147 -14878432.65645  22432606.4844                   22432604.9454
  -9786656.53947  -7614298.22345  22456184.0474                   22456182.7544
  -1974417.34047  -1523242.73444  23901738.2894                   23901735.0004
 11  7 25  0 44 30.0000000  0  8G02G17G28G09G04G27G10G12
 -18648494.46148 -14518858.19946  21446444.2664                   21446440.3954
 -30523060.51248 -23771697.47346  21740325.0314                   21740323.0554
 -33577443.52047 -26154578.53944  22531911.5234                   22531909.9574
 -13113152.68447 -10206147.74645  22039947.9384                   22039946.2274
 -31461714.68448 -24502094.37547  19902345.3594                   19902342.9694
 -19121654.74646 -14888593.62945  22430124.6174                   22430123.7384
  -9904494.04747  -7706119.59045  22433760.5314                   22433758.7074
  -2103512.46547  -1623836.25444  23877171.9384                   23877169.1024
 11  7 25  0 45  0.0000000  0  8G02G17G28G09G04G27G10G12
 -18740404.15248 -14590476.11746  21428954.7114                   21428950.7664
 -30518779.46948 -23768361.60946  21741140.0394                   21741137.6884
 -33536084.13747 -26122350.51245  22539782.3444                   22539780.4534
 -13132809.40647 -10221464.67645  22036206.7034                   22036205.9734
 -31474523.92248 -24512075.59047  19899907.4924                   19899905.6484
 -19134234.07046 -14898395.76645  22427731.0944                   22427730.3094
 -10022073.08247  -7797739.55545  22411386.0394                   22411384.2074
  -2232547.74247  -1724383.16044  23852617.2034                   23852614.7704
 11  7 25  0 45 30.0000000  0  8G02G17G28G09G04G27G10G12
 -18831948.23048 -14661809.13346  21411534.2814                   21411530.7114
 -30514398.20747 -23764947.65246  21741973.4454                   21741971.4384
 -33494369.71547 -26089845.82044  22547720.1564                   22547718.6454
 -13151839.96948 -10236293.69545  22032586.0864                   22032584.8634
 -31486810.12948 -24521649.25847  19897569.8054                   19897567.3404
 -19146354.50446 -14907840.31645  22425424.8594                   22425424.2854
 -10139390.18747  -7889155.41845  22389061.0474                   22389059.4184
  -2361521.04347  -1824881.77744  23828073.2734                   23828072.4414
 11  7 25  0 46  0.0000000  0  8G02G17G28G09G04G27G10G12
 -18923125.63748 -14732856.43446  21394183.9614                   21394180.3364
 -30509916.34447 -23761455.29746  21742826.6414                   21742824.0394
 -33452300.73847 -26057064.88345  22555726.4844                   22555723.9884
 -13170245.16047 -10250635.40645  22029083.8444                   22029082.4694
 -31498574.58247 -24530816.35947  19895331.0084                   19895328.6724
 -19158017.09447 -14916928.11745  22423205.2734                   22423205.1134
 -10256442.10247  -7980364.62545  22366786.4304                   22366785.2114
  -2490430.43446  -1925330.55944  23803542.4774                   23803541.7034
 11  7 25  0 46 30.0000000  0  8G02G17G28G09G04G27G10G12
 -19013935.41448 -14803617.27046  21376903.2114                   21376899.5204
 -30505333.70747 -23757884.41046  21743698.5004                   21743696.2584
 -33409877.90247 -26024008.19144  22563798.8134                   22563797.0864
 -13188025.76248 -10264490.42245  22025699.8054                   22025698.7304
 -31509818.63347 -24539577.94546  19893191.2894                   19893188.9694
 -19169223.03146 -14925660.08245  22421073.9144                   22421072.7894
 -10373224.80147  -8071364.07045  22344563.0084                   22344561.9924
  -2619273.25846  -2025727.46944  23779024.3834                   23779023.7464
 11  7 25  0 47  0.0000000  0  8G02G17G28G09G04G27G10G12
 -19104377.93048 -14874091.92246  21359692.6804                   21359688.9804
 -30500650.95747 -23754235.52046  21744589.7424                   21744587.2424
 -33367102.98847 -25990677.16444  22571938.7344                   22571937.0594
 -13205184.07048 -10277860.53945  22022434.9924                   22022433.2194
 -31520544.81648 -24547936.00847  19891150.0164                   19891147.9654
 -19179974.41046 -14934037.84045  22419027.1724                   22419026.5434
 -10489736.08247  -8162152.00045  22322392.0004                   22322390.9734
  -2748048.31646  -2126071.59844  23754519.5474                   23754518.0594
 11  7 25  0 47 30.0000000  0  8G02G17G28G09G04G27G10G12
 -19194451.07448 -14944278.76246  21342552.5004                   21342548.8204
 -30495866.38748 -23750507.28546  21745500.0164                   21745497.9024
 -33323975.61747 -25957071.47744  22580145.5084                   22580144.0704
 -13221720.28148 -10290745.90645  22019288.3204                   22019286.7664
 -31530753.14848 -24555890.54747  19889207.7274                   19889205.0124
 -19190271.05947 -14942061.27345  22417068.2974                   22417067.5394
 -10605971.28547  -8252724.83645  22300273.2664                   22300271.6484
  -2876752.04746  -2226360.16444  23730028.4224                   23730026.4964
 11  7 25  0 48  0.0000000  0  8G02G17G28G09G04G27G10G12
 -19284156.48048 -15014179.04746  21325482.1254                   21325478.2504
 -30490981.96148 -23746701.25046  21746429.5314                   21746427.3164
 -33280498.87147 -25923193.57444  22588418.9534                   22588416.7464
 -13237637.69147 -10303149.09845  22016259.4774                   22016258.1524
 -31540447.51248 -24563444.59047  19887362.9224                   19887360.4064
 -19200116.62546 -14949733.20345  22415194.6254                   22415194.0984
 -10721928.97347  -8343081.40645  22278206.9144                   22278205.6764
  -3005384.58246  -2326593.24644  23705550.9844                   23705548.3794
 11  7 25  0 48 30.0000000  0  8G02G17G28G09G04G27G10G12
 -19373491.00448 -15083790.33646  21308481.9694                   21308478.1994
 -30485994.90647 -23742815.25046  21747378.5704                   21747376.1484
 -33236670.87947 -25889041.95344  22596759.3204                   22596757.3984
 -13252935.12147 -10315069.18445  22013348.1174                   22013346.7234
 -31549626.95348 -24570597.39546  19885616.0634                   19885613.7664
 -19209509.85246 -14957052.66445  22413407.2664                   22413406.4804
 -10837603.18047  -8433217.07845  22256194.7504                   22256193.7194
  -3133941.21546  -2426767.21144  23681087.3284                   23681084.2584
 11  7 25  0 49  0.0000000  0  8G02G17G28G09G04G27G10G12
 -19462451.51648 -15153110.18446  21291553.4614                   21291549.5744
 -30480902.73848 -23738847.33246  21748347.7114                   21748345.2504
 -33192490.32047 -25854615.62144  22605166.6174                   22605164.5904
 -13267611.41047 -10326505.27045  22010555.4454                   22010554.2664
 -31558290.71548 -24577348.36746  19883967.5784                   19883965.1094
 -19218449.81647 -14964018.93745  22411705.8364                   22411705.4734
 -10952988.19547  -8523127.43045  22234238.3204                   22234236.5824
  -3262417.29746  -2526878.40244  23656638.7274                   23656636.1294
 11  7 25  0 49 30.0000000  0  8G02G17G28G09G04G27G10G12
 -19551039.23448 -15222139.55146  21274695.5864                   21274692.0204
 -30475706.84048 -23734798.57446  21749336.4224                   21749333.7194
 -33147959.92247 -25819916.66844  22613640.3914                   22613638.7424
 -13281670.07447 -10337460.08645  22007880.2584                   22007878.9574
 -31566442.34848 -24583700.28547  19882416.1484                   19882414.1024
 -19226940.00447 -14970634.72745  22410090.3914                   22410089.8134
 -11068082.35947  -8612811.12945  22212336.1644                   22212335.3674
  -3390812.94946  -2626926.92244  23632205.6414                   23632203.7234
 11  7 25  0 50  0.0000000  0  8G02G17G28G09G04G27G10G12
 -19639255.16848 -15290879.20746  21257908.8444                   21257905.0084
 -30470408.98048 -23730670.37146  21750344.8444                   21750342.3364
 -33103082.43747 -25784947.26244  22622180.5084                   22622178.3324
 -13295113.92247 -10347935.82845  22005321.9384                   22005320.5044
 -31574085.08248 -24589655.65647  19880962.0634                   19880959.7814
 -19234983.23047 -14976902.22745  22408559.9844                   22408559.5314
 -11182884.05547  -8702266.92245  22190490.0554                   22190489.2624
  -3519127.26246  -2726912.03944  23607787.7424                   23607786.5274
 11  7 25  0 50 30.0000000  0  8G02G17G28G09G04G27G10G12
 -19727097.37548 -15359327.64146  21241192.6724                   21241189.2504
 -30465007.41448 -23726461.37146  21751372.3834                   21751369.7114
 -33057857.30947 -25749706.97344  22630786.3914                   22630784.6454
 -13307943.55148 -10357932.97345  22002880.7274                   22002879.3754
 -31581219.17648 -24595214.68747  19879604.2034                   19879602.2074
 -19242579.71547 -14982821.61745  22407114.5164                   22407113.9534
 -11297388.79347  -8791491.35245  22168700.8754                   22168699.4574
  -3647357.05146  -2826831.30544  23583386.6414                   23583385.3524
 11  7 25  0 51  0.0000000  0  8G02G17G28G09G04G27G10G12
 -19814565.25848 -15427484.39546  21224548.4144                   21224544.5664
 -30459501.64848 -23722171.16846  21752420.2274                   21752417.4884
 -33012285.24647 -25714196.30944  22639458.6724                   22639456.5704
 -13320159.81247 -10367452.17245  22000556.0554                   22000554.7544
 -31587846.20747 -24600378.60247  19878343.0704                   19878341.3404
 -19249730.71947 -14988393.86345  22405753.9534                   22405752.9654
 -11411592.82847  -8880481.44545  22146968.4844                   22146967.0314
  -3775499.59446  -2926682.60944  23559002.0474                   23559001.0164
 11  7 25  0 51 30.0000000  0  8G02G17G28G09G04G27G10G12
 -19901658.81248 -15495349.46146  21207975.1334                   21207971.2464
 -30453891.78547 -23717799.86346  21753487.6564                   21753485.2154
 -32966368.06647 -25678416.74644  22648196.4064                   22648194.6684
 -13331764.89848 -10376495.11745  21998347.3984                   21998346.4774
 -31593968.55947 -24605149.25447  19877178.2344                   19877176.1334
 -19256438.21946 -14993620.51645  22404476.7424                   22404476.4534
 -11525493.47347  -8969235.14845  22125293.4844                   22125292.2704
  -3903553.49247  -3026464.84044  23534634.1024                   23534633.0234
 11  7 25  0 52  0.0000000  0  8G02G17G28G09G04G27G10G12
 -19988373.93748 -15562919.65246  21191473.5084                   21191469.6764
 -30448174.35947 -23713344.73846  21754576.0084                   21754573.3914
 -32920103.13747 -25642366.19944  22657000.2504                   22656999.0354
 -13342757.10948 -10385060.51645  21996255.9224                   21996254.7274
 -31599584.20348 -24609525.08247  19876109.5004                   19876107.3244
 -19262700.54346 -14998500.27345  22403285.6644                   22403284.5984
 -11639083.39847  -9057746.72745  22103678.0554                   22103676.9964
  -4031512.74247  -3126173.35544  23510284.3364                   23510283.1294
 11  7 25  0 52 30.0000000  0  8G02G17G28G09G04G27G10G12
 -20074711.17648 -15630195.37946  21175043.9614                   21175040.0554
 -30442350.30547 -23708806.52746  21755684.1484                   21755681.3324
 -32873492.91447 -25606046.60244  22665870.0944                   22665868.3634
 -13353139.13747 -10393150.44945  21994280.0234                   21994279.1294
 -31604696.30148 -24613508.52747  19875136.4614                   19875134.2544
 -19268520.10547 -15003035.00845  22402178.3364                   22402177.0124
 -11752360.85547  -9146014.82045  22082122.0084                   22082120.7774
  -4159376.61747  -3225807.53944  23485953.1644                   23485950.9454
 11  7 25  0 53  0.0000000  0  8G02G17G28G09G04G27G10G12
 -18585246.73048 -14469573.69146  21458480.0474                   21458475.9454
 -28860998.64147 -22476584.46546  22056605.2814                   22056602.9414
 -31251118.80147 -24341859.00444  22974597.6094                   22974595.7194
 -11787491.44947  -9173165.28545  22292213.0554                   22292211.7624
 -30033885.47748 -23389500.09847  20174052.0554                   20174050.1484
 -17698477.62947 -13779625.29745  22700947.3754                   22700946.2854
 -10289897.99647  -8006433.32045  22360419.3754                   22360418.2464
  -2711718.19147  -2097762.02744  23761432.7584                   23761430.8984
 11  7 25  0 53 30.0000000  0  8G02G17G28G09G04G27G10G12
 -18670826.25848 -14536258.99246  21442194.3284                   21442190.2114
 -28854959.52047 -22471878.66846  22057754.3674                   22057752.0084
 -31203819.74647 -24305002.64544  22983598.3594                   22983596.8984
 -11796656.74247  -9180307.11745  22290469.2664                   22290468.1134
 -30037994.53948 -23392701.96947  20173270.1094                   20173268.0664
 -17703415.63347 -13783473.10545  22700007.6484                   22700006.3914
 -10402539.40647  -8094205.80145  22338984.2504                   22338983.1954
  -2839383.77346  -2197241.72344  23737138.9224                   23737136.2624
 11  7 25  0 54  0.0000000  0  8G02G17G28G09G04G27G10G12
 -18756028.69948 -14602650.46146  21425980.6484                   21425976.7274
 -28848815.03547 -22467090.77346  22058923.9144                   22058921.3364
 -31156180.85247 -24267881.47344  22992663.2584                   22992661.6724
 -11805219.03547  -9186979.08245  22288839.6334                   22288838.9304
 -30041607.67248 -23395517.39546  20172582.6644                   20172580.1484
 -17707918.07847 -13786981.50045  22699150.5474                   22699148.6294
 -10514860.56647  -8181728.73845  22317610.2034                   22317608.8054
  -2966949.76647  -2296643.80544  23712864.1644                   23712861.7814
 11  7 25  0 54 30.0000000  0  8G02G17G28G09G04G27G10G12
 -18840852.62548 -14668746.98446  21409838.9694                   21409835.4884
 -28842564.18747 -22462220.00046  22060113.4774                   22060110.9344
 -31108201.94147 -24230495.33244  23001794.1804                   23001792.1764
 -11813179.02347  -9193181.72345  22287324.7504                   22287324.1484
 -30044725.51248 -23397946.88747  20171989.0314                   20171986.8634
 -17711985.46947 -13790150.89145  22698376.6484                   22698375.4104
 -10626856.98047  -8268998.62145  22296297.9774                   22296296.6214
  -3094412.58247  -2395965.47744  23688608.4224                   23688607.3594
 11  7 25  0 55  0.0000000  0  8G02G17G28G09G04G27G10G12
 -18925296.30948 -14734547.20746  21393770.2814                   21393766.3284
 -28836205.32847 -22457265.05546  22061323.0234                   22061320.9654
 -31059882.61747 -24192843.95744  23010988.6564                   23010987.5434
 -11820537.05948  -9198915.31245  22285925.1254                   22285924.2274
 -30047348.45748 -23399990.73846  20171490.0084                   20171487.7504
 -17715618.05947 -13792981.47745  22697685.4224                   22697683.9024
 -10738523.93747  -8356011.77745  22275048.8134                   22275047.5434
  -3221768.55947  -2495203.89844  23664373.5004                   23664372.5984
 11  7 25  0 55 30.0000000  0  8G02G17G28G09G04G27G10G12
 -19009360.80148 -14800051.95746  21377773.1884                   21377769.4884
 -28829739.26247 -22452226.57446  22062553.7584                   22062551.1684
 -31011225.73047 -24154929.55944  23020247.6024                   23020246.2774
 -11827296.30147  -9204182.30945  22284638.5554                   22284637.8554
 -30049479.98848 -23401651.67647  20171084.2584                   20171082.3634
 -17718818.98847 -13795475.70745  22697076.4384                   22697075.0904
 -10849859.79747  -8442766.94945  22253862.3754                   22253860.5784
  -3349017.34847  -2594358.81645  23640159.1884                   23640157.8364
 11  7 25  0 56  0.0000000  0  8G02G17G28G09G04G27G10G12
 -19093045.00048 -14865260.37946  21361848.5784                   21361844.5004
 -28823165.57448 -22447104.23846  22063804.5004                   22063802.2504
 -30962232.02747 -24116752.69544  23029571.5084                   23029569.3794
 -11833457.87147  -9208983.59445  22283465.9924                   22283465.3134
 -30051121.25447 -23402930.59847  20170772.2274                   20170769.7424
 -17721589.57447 -13797634.60545  22696549.2504                   22696547.9884
 -10960860.70747  -8529261.11745  22232739.6094                   22232738.0474
  -3476156.10947  -2693427.96945  23615965.4144                   23615964.3874
 11  7 25  0 56 30.0000000  0  8G02G17G28G09G04G27G10G12
 -19176350.26248 -14930173.51646  21345996.3364                   21345992.1844
 -28816485.37147 -22441898.90646  22065075.8754                   22065073.4414
 -30912903.97747 -24078315.27344  23038957.7814                   23038956.4224
 -11839025.14547  -9213321.77345  22282405.9614                   22282406.3284
 -30052275.58647 -23403830.08646  20170552.5474                   20170549.9574
 -17723932.96147 -13799460.63345  22696103.5164                   22696102.3524
 -11071524.67247  -8615492.72745  22211680.7114                   22211679.4304
  -3603183.79747  -2792410.57044  23591792.7344                   23591791.1094
 11  7 25  0 57  0.0000000  0  8G02G17G28G09G04G27G10G12
 -19259273.89548 -14994789.28946  21330216.5234                   21330212.4184
 -28809696.10247 -22436608.58646  22066367.7034                   22066365.7504
 -30863240.60247 -24039616.57844  23048409.0394                   23048406.4884
 -11843997.77047  -9217196.60245  22281460.3284                   22281459.9144
 -30052942.96148 -23404350.12146  20170425.2424                   20170423.4454
 -17725848.38747 -13800953.17245  22695738.3914                   22695737.9804
 -11181846.07447  -8701457.41045  22190687.3284                   22190686.3204
  -3730096.16447  -2891303.30144  23567641.8524                   23567639.8834
 11  7 25  0 57 30.0000000  0  8G02G17G28G09G04G27G10G12
 -19341816.03148 -15059107.79346  21314509.1724                   21314505.1484
 -28802798.02047 -22431233.48046  22067680.7734                   22067677.9844
 -30813243.59847 -24000657.91044  23057923.0784                   23057920.8754
 -11848378.42647  -9220610.13345  22280626.8524                   22280626.4964
 -30053125.58648 -23404492.43447  20170390.7584                   20170388.6374
 -17727338.21147 -13802114.09045  22695455.4614                   22695454.5784
 -11291822.41047  -8787153.21145  22169759.2274                   22169757.6174
  -3856891.71147  -2990104.99644  23543513.6954                   23543511.1564
 11  7 25  0 58  0.0000000  0  8G02G17G28G09G04G27G10G12
 -19423979.02048 -15123130.85546  21298873.9694                   21298869.9104
 -28795793.62947 -22425775.53546  22069013.4224                   22069011.4574
 -30762917.21547 -23961442.59444  23067499.6024                   23067497.6254
 -11852171.68047  -9223565.96945  22279905.2504                   22279904.6294
 -30052828.19948 -23404260.71547  20170447.1564                   20170445.2704
 -17728407.03547 -13802946.96145  22695252.2974                   22695251.4064
 -11401453.17647  -8872579.73445  22148897.2504                   22148895.8914
  -3983570.67647  -3088815.84844  23519407.7584                   23519404.4844
 11  7 25  0 58 30.0000000  0  8G02G17G28G09G04G27G10G12
 -19505757.20748 -15186854.08246  21283312.1254                   21283308.1994
 -28788677.24647 -22420230.32846  22070367.3914                   22070365.4414
 -30712256.78947 -23921966.98044  23077139.1954                   23077138.3674
 -11855373.83647  -9226061.20345  22279295.3364                   22279294.8634
 -30052047.30147 -23403652.22747  20170595.7734                   20170593.7584
 -17729051.06247 -13803448.82445  22695129.3674                   22695128.8714
 -11510729.49647  -8957730.07445  22128102.7344                   22128101.4884
  -4110125.05947  -3187429.61344  23495325.5474                   23495322.3094
 11  7 25  0 59  0.0000000  0  8G02G17G28G09G04G27G10G12
 -19587151.76648 -15250278.36746  21267823.2194                   21267819.3244
 -28781449.72747 -22414598.52346  22071743.1954                   22071740.7854
 -30661265.30947 -23882233.41844  23086843.7734                   23086842.1884
 -11857988.27347  -9228098.47745  22278797.9534                   22278797.7344
 -30050786.12948 -23402669.51247  20170835.9064                   20170833.8834
 -17729273.57047 -13803622.23045  22695086.8594                   22695086.7584
 -11619650.02347  -9042603.16045  22107375.6484                   22107374.2934
  -4236554.04347  -3285945.65645  23471266.0314                   23471264.2384
 11  7 25  0 59 30.0000000  0  8G02G17G28G09G04G27G10G12
 -19668162.84048 -15313403.84046  21252407.3674                   21252403.2274
 -28774111.78947 -22408880.68046  22073139.3914                   22073137.4614
 -30609944.38347 -23842243.12544  23096609.5314                   23096608.2114
 -11860017.72747  -9229679.90645  22278411.7814                   22278411.2114
 -30049047.27047 -23401314.55547  20171166.8674                   20171164.6564
 -17729077.01247 -13803469.09845  22695124.4304                   22695124.3404
 -11728211.59847  -9127196.54345  22086717.1954                   22086715.7974
  -4362856.49647  -3384363.07445  23447231.5474                   23447229.7344
 11  7 25  1  0  0.0000000  0  8G02G17G28G09G04G27G10G12
 -19748790.17648 -15376230.30146  21237064.5314                   21237060.2894
 -28766662.77747 -22403076.27046  22074557.2114                   22074554.7234
 -30558295.46547 -23801997.28144  23106437.8674                   23106436.3954
 -11861464.22347  -9230807.09445  22278136.1954                   22278136.3674
 -30046832.64547 -23399588.87146  20171588.1954                   20171585.8634
 -17728463.27046 -13802990.88745  22695241.6174                   22695241.1414
 -11836410.87147  -9211507.62145  22066127.5704                   22066126.0744
  -4489029.81247  -3482679.84445  23423222.0634                   23423219.9384
 11  7 25  1  0 30.0000000  0  8G02G17G28G09G04G27G10G12
 -19829035.32048 -15438758.94946  21221794.1884                   21221790.1994
 -28759104.54348 -22397186.76646  22075995.4064                   22075993.3364
 -30506321.72747 -23761498.32444  23116328.2034                   23116326.8874
 -11862331.73047  -9231483.09845  22277971.6724                   22277971.1524
 -30044146.39148 -23397495.69547  20172099.3754                   20172097.1764
 -17727436.02747 -13802190.47345  22695437.2194                   22695436.4534
 -11944246.96947  -9295535.69145  22045606.9614                   22045605.3984
  -4615073.43047  -3580895.53944  23399235.8284                   23399233.8634
 11  7 25  1  1  0.0000000  0  9G02G17G28G09G04G27G10G05G12
 -19908899.80148 -15500990.97746  21206596.1954                   21206592.4654
 -28751438.37947 -22391213.15646  22077454.2664                   22077451.8754
 -30454025.94147 -23720748.42644  23126279.3834                   23126278.3554
 -11862623.85247  -9231710.75045  22277916.0004                   22277915.8094
 -30040992.17248 -23395037.85946  20172699.6954                   20172697.7034
 -17725998.77347 -13801070.57445  22695710.4694                   22695710.0084
 -12051717.98447  -9379279.29345  22025156.1484                   22025154.7734
   4524495.04716                  24720627.570
  -4740987.32047  -3679010.14144  23375275.3914                   23375273.4774
 11  7 25  1  1 30.0000000  0  9G02G17G28G09G04G27G10G05G12
 -19988392.78148 -15562933.52746  21191469.4454                   21191465.4534
 -28743673.33248 -22385162.50446  22078931.9694                   22078929.5784
 -30401418.91447 -23679755.99244  23136290.8524                   23136288.9844
 -11862352.09847  -9231499.01245  22277967.2974                   22277967.6994
 -30037381.14847 -23392224.07447  20173386.9454                   20173384.7974
 -17724162.68447 -13799639.88745  22696059.6484                   22696059.6844
 -12158830.24247  -9462743.33645  22004773.1724                   22004771.5084
   4387349.81646   3434492.29353  24694529.8444                   24694532.5984
  -4866778.27047  -3777028.94544  23351337.6414                   23351335.7504
 11  7 25  1  2  0.0000000  0  9G02G17G28G09G04G27G10G05G12
 -20067519.08648 -15624590.35246  21176411.8754                   21176408.0744
 -28735814.39848 -22379038.68446  22080427.5164                   22080425.0984
 -30348507.33247 -23638526.24244  23146359.3834                   23146357.7624
 -11861523.93047  -9230853.71145  22278124.8914                   22278124.5124
 -30033320.59048 -23389059.99247  20174159.4304                   20174157.0474
 -17721935.14546 -13797904.18045  22696483.7424                   22696483.1094
 -12265585.78547  -9545929.42245  21984457.6414                   21984456.5274
   4250118.60946   3327559.10243  24668415.9454                   24668418.6454
  -4992449.28547  -3874954.32044  23327423.7034                   23327421.2074
 11  7 25  1  2 30.0000000  0  9G02G17G28G09G04G27G10G05G12
 -20146275.94548 -15685959.30146  21161425.3134                   21161421.3164
 -28727858.46147 -22372839.26645  22081940.7584                   22081939.1374
 -30295289.89147 -23597058.17244  23156486.0164                   23156485.1024
 -11860138.64547  -9229774.28545  22278388.7664                   22278388.1954
 -30028810.09447 -23385545.31646  20175017.8834                   20175015.5864
 -17719315.23846 -13795862.73045  22696981.9384                   22696981.3284
 -12371979.12947  -9628833.28145  21964212.1644                   21964210.6374
   4112806.57046   3220562.94944  24642285.9454                   24642288.5704
  -5117995.20747  -3972782.24645  23303533.1174                   23303531.0314
 11  7 25  1  3  0.0000000  0  9G02G17G28G09G04G27G10G05G12
 -20224659.81648 -15747037.59046  21146509.1724                   21146505.0744
 -28719801.74247 -22366561.31645  22083474.4614                   22083472.0944
 -30241764.37947 -23555350.03544  23166671.7974                   23166670.6764
 -11858194.93746  -9228259.73845  22278758.6954                   22278758.2034
 -30023848.20747 -23381678.90646  20175962.1254                   20175959.7934
 -17716301.44546 -13793514.35945  22697555.5634                   22697555.3754
 -12478003.11747  -9711449.32845  21944036.3444                   21944034.7854
   3975419.70746   3113508.52744  24616141.9534                   24616144.1374
  -5243410.59047  -4070508.44145  23279666.9534                   23279665.3634
 11  7 25  1  3 30.0000000  0  9G02G17G28G09G04G27G10G05G12
 -20302666.08248 -15807821.66046  21131665.0944                   21131661.1174
 -28711639.44547 -22360201.10245  22085027.6884                   22085025.6414
 -30187927.91047 -23513399.55044  23176916.8594                   23176916.0124
 -11855690.58647  -9226308.31245  22279235.8134                   22279234.7034
 -30018432.32847 -23377458.74646  20176992.5784                   20176990.5314
 -17712891.28147 -13790857.12545  22698204.4614                   22698203.8714
 -12583650.27747  -9793771.73845  21923931.9844                   21923930.8594
   3837965.39546   3006401.55144  24589985.3054                   24589986.9064
  -5368688.35947  -4168127.42644  23255827.5864                   23255826.2034
 11  7 25  1  4  0.0000000  0  9G02G17G28G09G04G27G10G05G12
 -20380291.16048 -15868308.70746  21116893.4774                   21116889.3834
 -28703368.29747 -22353756.05946  22086601.5784                   22086599.7544
 -30133778.39847 -23471205.21544  23187221.2194                   23187220.0664
 -11852624.77347  -9223919.39545  22279819.1644                   22279818.1094
 -30012561.37947 -23372883.98047  20178110.0474                   20178107.9574
 -17709083.40246 -13787889.97345  22698929.2424                   22698928.1214
 -12688914.21547  -9875795.53945  21903901.1954                   21903899.5354
   3700449.37546   2899246.50844  24563816.5084                   24563819.1454
  -5493822.92247  -4265634.78145  23232014.9454                   23232014.2464
 11  7 25  1  4 30.0000000  0  9G02G17G28G09G04G27G10G05G12
 -20457532.90648 -15928497.05546  21102194.7034                   21102190.8284
 -28694985.55947 -22347224.05945  22088196.2974                   22088194.8874
 -30079315.01647 -23428766.27344  23197585.0394                   23197584.4734
 -11848997.80147  -9221093.21145  22280509.2344                   22280508.4494
 -30006235.55148 -23367954.76646  20179313.6804                   20179311.7074
 -17704878.02346 -13784613.09445  22699729.2664                   22699728.6644
 -12793790.03547  -9957516.91045  21883944.3204                   21883942.4804
   3562875.77046   2792046.59044  24537637.1644                   24537639.2664
  -5618809.95747  -4363027.18745  23208230.6564                   23208229.3954
 11  7 25  1  5  0.0000000  0  9G02G17G28G09G04G27G10G05G12
 -20534391.03548 -15988386.46546  21087569.1564                   21087564.9144
 -28686490.85247 -22340604.80546  22089813.3914                   22089811.1724
 -30024539.33247 -23386083.96144  23208009.0084                   23208007.5354
 -11844811.26647  -9217830.99245  22281305.5084                   22281304.8834
 -29999456.50447 -23362672.39147  20180603.6484                   20180601.4844
 -17700276.59447 -13781027.58645  22700605.6334                   22700604.2814
 -12898273.96147 -10038932.90645  21864061.4064                   21864059.8714
   3425248.29146   2684804.64144  24511446.7814                   24511449.3634
  -5743646.78947  -4460302.56645  23184474.8444                   23184473.4184
 11  7 25  1  5 30.0000000  0  9G02G17G28G09G04G27G10G05G12
 -20610864.86348 -16047976.43046  21073016.5394                   21073012.8094
 -28677883.64547 -22333897.90646  22091451.3134                   22091448.8014
 -29969452.41847 -23343159.10944  23218491.9144                   23218489.8984
 -11840067.40247  -9214134.50845  22282208.7344                   22282207.6484
 -29992226.32448 -23357038.48846  20181979.6334                   20181977.5434
 -17695280.93447 -13777134.89145  22701555.7974                   22701554.7704
 -13002362.41847 -10120040.74645  21844253.6094                   21844252.3444
   3287569.01246   2577522.41844  24485247.1884                   24485249.5394
  -5868330.93447  -4557458.96545  23160748.4774                   23160747.0274
 11  7 25  1  6  0.0000000  0  9G02G17G28G09G04G27G10G05G12
 -20686953.60248 -16107266.33246  21058537.3984                   21058533.1174
 -28669162.58647 -22327102.27346  22093110.9064                   22093108.3364
 -29914054.64547 -23299992.05144  23229033.1254                   23229031.6884
 -11834767.62947  -9210004.84845  22283216.9144                   22283216.1094
 -29984545.74648 -23351053.61746  20183441.2344                   20183439.1294
 -17689892.18447 -13772935.88745  22702581.8284                   22702580.5594
 -13106051.62547 -10200837.48845  21824522.3594                   21824521.0864
   3149841.60946   2470202.62543  24459038.1414                   24459040.6024
  -5992859.31647  -4654494.01645  23137051.8754                   23137049.9964
 11  7 25  1  6 30.0000000  0  9G02G17G28G09G04G27G10G05G12
 -20762657.09848 -16166256.03946  21044131.4844                   21044127.0594
 -28660327.18447 -22320217.53546  22094792.0234                   22094789.9844
 -29858347.66447 -23256584.02744  23239634.0944                   23239632.6564
 -11828914.23047  -9205443.77345  22284331.0554                   22284329.8404
 -29976417.28547 -23344719.74646  20184987.8444                   20184985.4694
 -17684112.44947 -13768432.22345  22703681.1254                   22703680.6764
 -13209338.47347 -10281320.69545  21804867.5704                   21804866.3714
   3012068.77046   2362847.43043  24432820.4774                   24432823.0314
  -6117229.60947  -4751405.88345  23113384.6254                   23113382.8914
 11  7 25  1  7  0.0000000  0  9G02G17G28G09G04G27G10G05G12
 -20837973.73048 -16224944.30546  21029799.0784                   21029794.9304
 -28651375.57847 -22313242.24245  22096495.4384                   22096493.3094
 -29802331.25447 -23212934.90644  23250293.7974                   23250292.2074
 -11822507.90246  -9200451.85545  22285550.3524                   22285549.0634
 -29967841.32448 -23338037.18446  20186620.0554                   20186617.8444
 -17677942.09047 -13763624.17645  22704855.5944                   22704854.8444
 -13312218.34048 -10361486.78545  21785290.2504                   21785288.6954
   2874255.30146   2255460.55143  24406596.2274                   24406597.5664
  -6241437.69547  -4848191.36745  23089748.2664                   23089746.8484
 11  7 25  1  7 30.0000000  0  9G02G17G28G09G04G27G10G05G12
 -20912906.59048 -16283333.52046  21015539.8984                   21015536.0004
 -28642310.69947 -22306178.69545  22098220.3284                   22098218.4024
 -29746010.15247 -23169048.35944  23261011.7584                   23261009.5124
 -11815554.43047  -9195033.59045  22286873.2814                   22286871.9144
 -29958823.43048 -23331010.26246  20188336.1804                   20188334.0514
 -17671386.47347 -13758515.91845  22706102.7504                   22706102.2154
 -13414691.21148 -10441335.71545  21765790.1564                   21765788.8484
   2736400.18046   2148041.21143  24380362.8674                   24380364.1684
  -6365484.41047  -4944851.11345  23066143.4064                   23066140.8054
 11  7 25  1  8  0.0000000  0  9G02G17G28G09G04G27G10G05G12
 -20987454.02748 -16341422.41846  21001353.9924                   21001350.0474
 -28633130.59047 -22299025.35945  22099967.3134                   22099965.6214
 -29689384.02346 -23124924.12944  23271786.7274                   23271785.5314
 -11808054.49247  -9189189.50445  22288301.0004                   22288298.7734
 -29949363.93748 -23323639.22747  20190135.6954                   20190133.9804
 -17664445.95747 -13753107.73845  22707423.5084                   22707423.3244
 -13516752.63747 -10520864.05945  21746368.4844                   21746366.8364
   2598507.16046   2040592.34043  24354122.7814                   24354123.9574
  -6489365.65247  -5041381.92245  23042568.6724                   23042567.1174
 11  7 25  1  8 30.0000000  0  9G02G17G28G09G04G27G10G05G12
 -21061615.70748 -16399210.71946  20987241.3674                   20987237.1604
 -28623834.61347 -22291781.74245  22101736.5944                   22101734.0354
 -29632454.22347 -23080563.27744  23282620.1254                   23282619.3594
 -11800010.17647  -9182921.21945  22289831.6884                   22289829.5004
 -29939464.72348 -23315925.56246  20192019.4844                   20192017.6024
 -17657122.38746 -13747401.07445  22708817.4924                   22708817.0434
 -13618399.46947 -10600069.33245  21727025.7504                   21727024.1024
   2460579.57446   1933116.50044  24327875.1724                   24327877.6684
  -6613078.99247  -5137781.89145  23019027.1564                   23019025.3054
 11  7 25  1  9  0.0000000  0  9G02G17G28G09G04G27G10G05G12
 -21135392.47348 -16456699.09046  20973202.2194                   20973198.1484
 -28614423.03547 -22284448.04345  22103527.5634                   22103525.4224
 -29575223.03147 -23035967.59044  23293511.1094                   23293509.7704
 -11791424.66447  -9176231.21945  22291465.2584                   22291463.3484
 -29929128.91847 -23307871.69146  20193986.3834                   20193984.5634
 -17649418.65246 -13741398.18745  22710282.9844                   22710283.0044
 -13719628.91048 -10678949.36745  21707762.6254                   21707761.0864
   2322619.43046   1825615.28944  24301622.0234                   24301623.8754
  -6736622.93447  -5234049.85245  22995517.5634                   22995515.6954
 11  7 25  1  9 30.0000000  0  9G02G17G28G09G04G27G10G05G12
 -21208782.66448 -16513886.23846  20959236.3204                   20959232.2584
 -28604894.28147 -22277023.04745  22105340.2664                   22105338.2814
 -29517690.42646 -22991136.98444  23304459.3524                   23304458.0904
 -11782299.17246  -9169120.46545  22293201.9454                   22293199.4264
 -29918357.10547 -23299478.07846  20196036.1954                   20196033.9964
 -17641335.53947 -13735099.68445  22711821.4614                   22711821.6174
 -13820436.38747 -10757500.60545  21688579.2274                   21688577.4574
   2184630.57046   1718091.69544  24275364.0314                   24275365.2814
  -6859993.27747  -5330182.55945  22972041.1484                   22972039.5394
 11  7 25  1 10  0.0000000  0  9G02G17G28G09G04G27G10G05G12
 -21281785.73848 -16570771.72746  20945344.5784                   20945340.3444
 -28595247.23447 -22269505.87145  22107176.6954                   22107173.9224
 -29459857.83646 -22946072.66844  23315463.8674                   23315463.1644
 -11772635.61746  -9161590.43045  22295040.7974                   22295038.4654
 -29907150.95747 -23290746.01646  20198168.8204                   20198166.7304
 -17632874.67646 -13728506.81645  22713431.7034                   22713431.7424
 -13920818.77347 -10835720.59445  21669476.9924                   21669474.9574
   2046616.52046   1610548.49244  24249100.1804                   24249101.6024
  -6983187.36747  -5426177.91045  22948598.1884                   22948596.4384
 11  7 25  1 10 30.0000000  0  9G02G17G28G09G04G27G10G05G12
 -21354402.91848 -16627356.52746  20931525.9614                   20931521.5864
 -28585482.83647 -22261897.26645  22109034.4774                   22109032.3284
 -29401727.62546 -22900776.41844  23326526.0394                   23326525.0704
 -11762437.44147  -9153643.80545  22296981.2274                   22296978.6994
 -29895513.80147 -23281678.11347  20200383.0554                   20200381.3834
 -17624039.30146 -13721622.13345  22715113.1254                   22715112.2664
 -14020773.98447 -10913607.72745  21650456.1884                   21650454.6684
   1908578.81646   1502986.82444  24222833.4614                   24222833.5704
  -7106203.50847  -5522034.59845  22925188.8444                   22925187.2234
 11  7 25  1 11  0.0000000  0  9G02G17G28G09G04G27G10G05G12
 -21426633.67248 -16683640.20346  20917780.8754                   20917776.4534
 -28575600.17247 -22254196.51245  22110914.9694                   22110913.0004
 -29343300.79346 -22855249.04744  23337644.5864                   23337643.4454
 -11751706.68046  -9145282.18445  22299023.5554                   22299021.4104
 -29883447.52047 -23272275.82046  20202679.7034                   20202677.2894
 -17614831.26246 -13714447.05545  22716865.2814                   22716864.2774
 -14120298.44947 -10991159.21545  21631517.5394                   21631515.5664
   1770520.59846   1395409.17644  24196561.5634                   24196562.1414
  -7229039.14547  -5617750.64145  22901813.7894                   22901812.2194
 11  7 25  1 11 30.0000000  0  9G02G17G28G09G04G27G10G05G12
 -21498478.10248 -16739622.85946  20904109.1884                   20904104.9454
 -28565598.61347 -22246403.10945  22112818.3284                   22112816.4574
 -29284578.93446 -22809491.78143  23348818.8444                   23348817.6884
 -11740446.00447  -9136507.64545  22301166.1174                   22301164.1804
 -29870953.87947 -23262540.52346  20205056.8594                   20205054.8914
 -17605252.57047 -13706983.16845  22718687.8834                   22718686.6604
 -14219389.01247 -11068372.59045  21612660.9844                   21612659.3874
   1632444.35246   1287817.49644  24170285.7504                   24170286.6954
  -7351691.94147  -5713324.19945  22878473.2664                   22878471.9344
 11  7 25  1 12  0.0000000  0  9G02G17G28G09G04G27G10G05G12
 -21569935.98448 -16795304.30546  20890511.1254                   20890507.1454
 -28555477.71147 -22238516.71945  22114744.3134                   22114742.0944
 -29225563.47746 -22763505.73043  23360048.9924                   23360047.3404
 -11728657.71947  -9127321.95745  22303409.5314                   22303408.1454
 -29858035.20748 -23252474.03946  20207515.1884                   20207513.1134
 -17595305.07447 -13699231.87945  22720581.0944                   22720579.6094
 -14318042.81247 -11145245.63745  21593887.5164                   21593885.8484
   1494352.86746   1180213.93844  24144008.2274                   24144008.3094
  -7474159.00447  -5808753.02345  22855168.6724                   22855166.7074
 11  7 25  1 12 30.0000000  0  9G02G17G28G09G04G27G10G05G12
 -21641006.75448 -16850684.10946  20876987.1484                   20876983.0234
 -28545236.65247 -22230536.70345  22116693.4694                   22116691.0434
 -29166255.29746 -22717291.59043  23371334.9064                   23371333.2934
 -11716343.93447  -9117726.79745  22305752.7344                   22305751.2194
 -29844693.14147 -23242077.63346  20210053.9064                   20210052.1054
 -17584990.51647 -13691194.57045  22722544.2344                   22722542.0594
 -14416255.94947 -11221775.30145  21575198.3284                   21575196.7774
   1356250.17646   1072601.62144  24117728.3204                   24117728.0664
  -7596437.68447  -5904035.07845  22831899.5944                   22831898.2774
 11  7 25  1 13  0.0000000  0  9G02G17G28G09G04G27G10G05G12
 -21711692.73848 -16905764.07846  20863535.9534                   20863531.5234
 -28534877.06247 -22222464.32445  22118664.2344                   22118662.2384
 -29106658.36746 -22670852.46144  23382675.8134                   23382674.7934
 -11703509.59047  -9107726.01245  22308194.8444                   22308193.8054
 -29830932.16048 -23231354.80146  20212672.7034                   20212670.8914
 -17574313.35547 -13682874.72345  22724575.9454                   22724574.0824
 -14514028.07047 -11297961.32045  21556592.5864                   21556591.2384
   1218136.11746    964980.47344  24091445.1644                   24091446.6374
  -7718527.54347  -5999169.98845  22808667.0944                   22808665.5234
 11  7 25  1 13 30.0000000  0  9G02G17G28G09G04G27G10G05G12
 -21781991.47348 -16960542.28546  20850158.2814                   20850154.0354
 -28524395.89847 -22214297.22345  22120659.1724                   22120657.2034
 -29046771.81246 -22624187.64843  23394072.1094                   23394071.1604
 -11690154.16447  -9097319.18045  22310736.6414                   22310735.3014
 -29816751.65648 -23220305.06246  20215371.2504                   20215369.6564
 -17563273.03947 -13674271.89144  22726676.6724                   22726675.3984
 -14611353.44947 -11373799.22745  21538072.4064                   21538070.8134
   1080015.85946    857354.48044  24065161.4774                   24065163.2344
  -7840423.18447  -6094153.55545  22785471.3444                   22785469.7344
 11  7 25  1 14  0.0000000  0  9G02G17G28G09G04G27G10G05G12
 -21851903.60948 -17015019.25446  20836854.6094                   20836850.4224
 -28513793.35247 -22206035.52745  22122676.5474                   22122674.2384
 -28986597.73846 -22577298.76643  23405522.8204                   23405521.8284
 -11676281.13347  -9086509.03145  22313376.8914                   22313375.6094
 -29802154.54348 -23208930.69946  20218148.8914                   20218146.5704
 -17551872.58646 -13665388.44945  22728845.9614                   22728844.6884
 -14708229.63747 -11449287.10545  21519637.0944                   21519635.7074
    941891.72746    749725.46544  24038877.2034                   24038878.2734
  -7962123.30547  -6188984.77045  22762312.2114                   22762310.8244
 11  7 25  1 14 30.0000000  0  9G02G17G28G09G04G27G10G05G12
 -21921429.87148 -17069195.53546  20823624.2814                   20823619.9184
 -28503069.69947 -22197679.46945  22124717.6254                   22124715.1844
 -28926138.16447 -22530187.41443  23417028.0004                   23417027.0824
 -11661893.84847  -9075298.15245  22316114.2344                   22316113.5664
 -29787143.78547 -23197234.00846  20221005.1804                   20221003.2704
 -17540114.66446 -13656226.45745  22731083.4694                   22731083.1564
 -14804654.55147 -11524423.34445  21501288.3524                   21501286.9414
    803766.05146    642095.24244  24012592.8834                   24012593.8754
  -8083625.93747  -6283662.08245  22739191.1884                   22739189.6294
 11  7 25  1 15  0.0000000  0  9G02G17G28G09G04G27G10G05G12
 -21990570.56648 -17123071.38346  20810467.0164                   20810462.7114
 -28492224.73447 -22189228.87146  22126781.3754                   22126778.7774
 -28865394.93747 -22482855.05143  23428586.6174                   23428585.6994
 -11646995.09447  -9063688.74245  22318949.1954                   22318949.0314
 -29771721.79348 -23185216.88346  20223940.2034                   20223938.0594
 -17528001.93047 -13646788.00445  22733388.2734                   22733388.3914
 -14900625.49647 -11599205.84445  21483025.5634                   21483024.0314
    665641.22747    534465.69144  23986308.5474                   23986309.2774
  -8204928.73047  -6378183.67645  22716107.8284                   22716106.4654
 11  7 25  1 15 30.0000000  0  9G02G17G28G09G04G27G10G05G12
 -22059325.87148 -17176646.92246  20797383.3204                   20797378.8984
 -28481258.39547 -22180683.70345  22128868.1024                   22128866.0474
 -28804370.33646 -22435303.40243  23440199.5004                   23440198.3364
 -11631588.00847  -9051683.22345  22321881.3284                   22321881.0664
 -29755890.98848 -23172881.20346  20226953.0474                   20226950.7774
 -17515536.98046 -13637075.10945  22735759.9774                   22735760.9534
 -14996139.68747 -11673632.43745  21464849.9534                   21464848.3634
    527519.75846    426838.71943  23960024.4924                   23960025.1524
  -8326029.64147  -6472547.96945  22693063.1414                   22693061.4144
 11  7 25  1 16  0.0000000  0  9G02G17G28G09G04G27G10G05G12
 -22127695.57848 -17229922.00046  20784373.0004                   20784368.8674
 -28470169.71147 -22172043.19145  22130978.0084                   22130976.1094
 -28743065.41447 -22387533.32443  23451865.6334                   23451863.6914
 -11615674.65247  -9039283.20745  22324909.4614                   22324908.9574
 -29739653.21948 -23160228.40246  20230042.8364                   20230040.6524
 -17502721.52346 -13627089.09845  22738198.9844                   22738199.6054
 -15091193.59848 -11747700.35245  21446761.5554                   21446759.8634
    389404.90246    319216.92644  23933742.2274                   23933742.3954
  -8446925.50047  -6566752.48445  22670056.9454                   22670055.6914
 11  7 25  1 16 30.0000000  0  9G02G17G28G09G04G27G10G05G12
 -22195679.91848 -17282896.77746  20771435.9534                   20771432.0124
 -28458958.11347 -22163306.91845  22133111.9304                   22133109.7034
 -28681481.56646 -22339545.92643  23463584.6174                   23463582.8554
 -11599257.87147  -9026490.91045  22328033.3834                   22328033.4064
 -29723010.68748 -23147260.19546  20233209.6254                   20233207.4104
 -17489557.76647 -13616831.69145  22740704.2504                   22740703.9264
 -15185784.11347 -11821407.19945  21428761.6884                   21428760.2504
    251299.51247    211602.49644  23907461.7894                   23907462.2664
  -8567613.94147  -6660795.37945  22647090.9534                   22647089.0124
 11  7 25  1 17  0.0000000  0  9G02G17G28G09G04G27G10G05G12
 -22263277.60948 -17335570.27746  20758572.7194                   20758568.4844
 -28447621.85247 -22154473.48045  22135269.2894                   22135266.8954
 -28619619.37947 -22291341.62143  23475357.6254                   23475354.8484
 -11582339.18447  -9013307.51645  22331252.8444                   22331252.7974
 -29705964.44948 -23133977.42246  20236453.2894                   20236451.4184
 -17476046.63747 -13606303.60545  22743275.8754                   22743275.2074
 -15279907.56247 -11894750.08645  21410850.7664                   21410848.8834
    113207.59846    103998.56644  23881183.3054                   23881183.8524
  -8688091.02347  -6754673.58645  22624165.2584                   22624163.1454
 11  7 25  1 17 30.0000000  0  9G02G17G28G09G04G27G10G05G12
 -22330491.66448 -17387944.83646  20745782.2034                   20745778.1334
 -28436163.12147 -22145544.62145  22137449.8204                   22137447.4264
 -28557483.48047 -22242924.03143  23487180.0864                   23487179.0474
 -11564924.13747  -8999737.37545  22334566.8524                   22334566.6724
 -29688519.58248 -23120384.01646  20239772.9384                   20239771.0474
 -17462193.37147 -13595508.91445  22745911.7584                   22745911.1374
 -15373563.51647 -11967728.70745  21393028.3444                   21393026.5864
    -24870.59846     -3594.66844  23854907.5474                   23854907.7704
  -8808357.21947  -6848387.48045  22601279.6414                   22601277.3794
 11  7 25  1 18  0.0000000  0  9G02G17G28G09G04G27G10G05G12
 -20821899.41848 -16212418.38746  21032857.6484                   21032853.3594
 -26849161.78147 -20908920.21145  22439445.6174                   22439443.9734
 -26919656.81247 -20966695.46543  23798849.1644                   23798847.7424
  -9971595.42647  -7758182.52345  22637767.2734                   22637767.0314
 -28095258.40248 -21878881.80146  20542960.6804                   20542958.6134
 -15872580.42647 -12356849.52345  23048405.2814                   23048404.2854
 -13891325.94547 -10812738.34445  21675088.5704                   21675087.1684
   1412492.43047   1116428.64544  24128429.0164                   24128428.9384
  -7352985.52747  -5714331.57045  22878227.1724                   22878225.5314
 11  7 25  1 18 30.0000000  0  9G02G17G28G09G04G27G10G05G12
 -20888343.63748 -16264193.07046  21020213.5084                   21020209.8054
 -26837454.17647 -20899797.40245  22441673.7344                   22441671.5474
 -26856975.23046 -20917852.66043  23810776.5314                   23810775.3634
  -9953192.55947  -7743842.63345  22641268.8914                   22641269.1214
 -28077019.73448 -21864669.85246  20546431.5474                   20546429.3984
 -15858047.01647 -12345524.84045  23051170.9304                   23051169.8874
 -13984035.87547 -10884979.80545  21657446.6174                   21657444.8094
   1274452.27747   1008865.03944  24102160.6724                   24102160.6024
  -7472819.51247  -5807708.65645  22855423.3054                   22855421.7384
 11  7 25  1 19  0.0000000  0  9G02G17G28G09G04G27G10G05G12
 -20954404.46548 -16315669.01646  21007642.6804                   21007638.7344
 -26825622.84847 -20890578.19945  22443924.8364                   22443922.9264
 -26794024.30946 -20868800.05143  23822755.1884                   23822754.3594
  -9934301.22747  -7729122.13345  22644864.6564                   22644863.9494
 -28058388.83648 -21850152.26646  20549976.9384                   20549974.7664
 -15843178.20347 -12333938.80545  23053999.8754                   23053999.4494
 -14076269.56247 -10956850.16445  21639894.8834                   21639893.2974
   1136434.02347    901318.52344  24075896.3984                   24075897.0234
  -7592434.81247  -5900915.34445  22832661.1564                   22832659.6174
 11  7 25  1 19 30.0000000  0  9G02G17G28G09G04G27G10G05G12
 -21020081.75048 -16366846.09846  20995144.8204                   20995140.4454
 -26813666.76647 -20881261.78145  22446200.0634                   22446197.6884
 -26730805.33246 -20819538.53543  23834785.7344                   23834784.4694
  -9914923.72347  -7714022.80545  22648551.6644                   22648551.2304
 -28039367.76248 -21835330.64146  20553596.3674                   20553594.1994
 -15827975.85547 -12322092.89545  23056892.9694                   23056892.5634
 -14168024.03147 -11028347.11345  21622434.4384                   21622432.8984
    998441.26247    793791.85544  24049637.6564                   24049637.5514
  -7711828.54347  -5993949.39145  22809941.5164                   22809939.7704
 11  7 25  1 20  0.0000000  0  9G02G17G28G09G04G27G10G05G12
 -21085373.44548 -16417722.71146  20982719.8754                   20982715.8054
 -26801583.34047 -20871846.12145  22448499.8284                   22448497.3244
 -26667318.37946 -20770068.21543  23846867.0164                   23846866.2584
  -9895060.66847  -7698545.11345  22652331.6174                   22652330.4064
 -28019956.33648 -21820204.84046  20557290.3594                   20557287.8554
 -15812440.21147 -12309987.26245  23059849.1564                   23059848.7624
 -14259294.15647 -11099466.65645  21605066.6884                   21605064.5594
    860478.82047    686288.82044  24023383.2344                   24023383.9384
  -7830995.75447  -6086806.93045  22787265.2194                   22787262.6954
 11  7 25  1 20 30.0000000  0  9G02G17G28G09G04G27G10G05G12
 -21150281.21148 -16468300.16046  20970368.5634                   20970364.3164
 -26789373.25847 -20862331.78145  22450823.1954                   22450820.7424
 -26603566.35946 -20720391.35943  23858999.2274                   23858997.4454
  -9874716.37147  -7682692.42645  22656203.0634                   22656201.8364
 -28000158.27348 -21804777.78546  20561057.5784                   20561055.5784
 -15796574.92247 -12297624.75844  23062868.7344                   23062868.0004
 -14350078.61747 -11170207.73845  21587790.8674                   21587788.9264
    722548.45747    578810.77044  23997135.9304                   23997136.3054
  -7949935.33647  -6179487.12145  22764631.0634                   22764629.0434
 11  7 25  1 21  0.0000000  0  9G02G17G28G09G04G27G10G05G12
 -21214803.79748 -16518577.46946  20958090.4774                   20958085.9104
 -26777034.41847 -20852717.10945  22453171.4534                   22453168.8324
 -26539549.43746 -20670508.10543  23871180.6024                   23871179.5124
  -9853892.14547  -7666465.77345  22660165.5084                   22660164.2934
 -27979974.39548 -21789050.08246  20564898.4924                   20564896.0984
 -15780380.68747 -12285005.93744  23065950.6804                   23065950.1724
 -14440372.88347 -11240566.86345  21570608.1174                   21570606.6524
    584653.91846    471360.62544  23970895.2344                   23970895.6994
  -8068643.48847  -6271986.96145  22742042.4064                   22742039.7464
 11  7 25  1 21 30.0000000  0  9G02G17G28G09G04G27G10G05G12
 -21278942.93748 -16568555.99646  20945884.8594                   20945880.6484
 -26764568.43747 -20843003.34445  22455543.1954                   22455541.0354
 -26475270.80946 -20620420.94943  23883412.7734                   23883411.8014
  -9832592.53547  -7649868.69945  22664218.4614                   22664216.9454
 -27959408.84448 -21773024.97346  20568811.6564                   20568809.6214
 -15763861.71547 -12272134.06644  23069093.5234                   23069093.6764
 -14530175.89847 -11310543.19946  21553519.3984                   21553517.4844
    446796.71947    363939.57844  23944661.7584                   23944662.0084
  -8187119.22347  -6364305.69945  22719497.0634                   22719494.6684
 11  7 25  1 22  0.0000000  0  9G02G17G28G09G04G27G10G05G12
 -21342699.13348 -16618236.11746  20933752.6094                   20933748.5084
 -26751974.87947 -20833190.18045  22457939.8984                   22457937.2734
 -26410732.84446 -20570131.69143  23895694.4224                   23895693.0594
  -9810821.14547  -7632904.01645  22668361.4694                   22668360.3444
 -27938464.00048 -21756704.31646  20572796.9304                   20572795.6524
 -15747020.91047 -12259011.41444  23072298.0394                   23072298.2704
 -14619485.50847 -11380135.05146  21536524.0944                   21536522.4884
    308979.46147    256549.64844  23918436.4774                   23918436.2704
  -8305360.18047  -6456441.48445  22696995.8984                   22696994.2034
 11  7 25  1 22 30.0000000  0  9G02G17G28G09G04G27G10G05G12
 -21406072.02348 -16667617.55946  20921693.1724                   20921688.6684
 -26739252.57447 -20823276.67645  22460360.7664                   22460358.7584
 -26345935.98846 -20519640.68043  23908025.0944                   23908023.2384
  -9788579.77347  -7615573.09845  22672594.2584                   22672592.7344
 -27917141.31648 -21740089.22746  20576855.4144                   20576853.0744
 -15729859.62947 -12245639.04744  23075564.1094                   23075563.9964
 -14708298.22747 -11449339.72346  21519623.9224                   21519621.8134
    171205.78547    149193.68844  23892218.7424                   23892218.4774
  -8423363.22347  -6548391.88345  22674541.1254                   22674538.9614
 11  7 25  1 23  0.0000000  0  9G02G17G28G09G04G27G10G05G12
 -21469061.61348 -16716700.34046  20909706.5944                   20909702.1294
 -26726400.53547 -20813262.09445  22462806.2114                   22462804.2774
 -26280882.12146 -20468949.42643  23920404.2584                   23920402.6524
  -9765870.72347  -7597877.77345  22676915.5394                   22676914.4144
 -27895442.77748 -21723181.27746  20580984.0944                   20580981.9694
 -15712379.89847 -12232018.54744  23078890.2664                   23078890.1054
 -14796610.26247 -11518154.24646  21502818.3134                   21502816.6604
     33478.82047     41874.12144  23866009.9144                   23866010.0474
  -8541125.30547  -6640154.52345  22652131.7274                   22652129.7974
 11  7 25  1 23 30.0000000  0  9G02G17G28G09G04G27G10G05G12
 -21531666.25448 -16765483.14846  20897793.0864                   20897788.6884
 -26713416.48447 -20803144.65245  22465277.1884                   22465275.0084
 -26215571.20346 -20418057.87143  23932832.2504                   23932830.6254
  -9742695.06646  -7579818.87144  22681325.0084                   22681324.6024
 -27873368.60548 -21705980.62146  20585184.8754                   20585182.7934
 -15694582.37147 -12218150.39844  23082277.3204                   23082277.0394
 -14884417.61747 -11586575.51646  21486109.1484                   21486107.2464
   -104196.58247    -65405.28944  23839810.8444                   23839811.1954
  -8658641.98847  -6731725.94945  22629769.0704                   22629766.8524
 11  7 25  1 24  0.0000000  0  9G02G17G28G09G04G27G10G05G12
 -21593887.39548 -16813967.12546  20885952.8834                   20885948.7304
 -26700301.06247 -20792924.86745  22467772.9614                   22467771.0434
 -26150006.16846 -20366968.28543  23945309.3834                   23945307.3364
  -9719056.90246  -7561399.56245  22685823.2344                   22685823.1024
 -27850922.52748 -21688490.16046  20589455.8364                   20589453.8674
 -15676470.80547 -12204037.55544  23085723.8134                   23085723.2974
 -14971718.88347 -11654602.43046  21469496.3594                   21469494.3324
   -241818.87547   -172643.30144  23813622.3364                   23813622.0664
  -8775911.85947  -6823105.05945  22607452.7504                   22607450.6414
 11  7 25  1 24 30.0000000  0  9G02G17G28G09G04G27G10G05G12
 -21655724.87548 -16862152.15646  20874185.5944                   20874181.4574
 -26687053.42247 -20782602.04745  22470294.0234                   22470291.5904
 -26084188.30146 -20315681.71143  23957833.5634                   23957832.2274
  -9694958.98446  -7542622.01645  22690409.1484                   22690408.7384
 -27828106.48448 -21670711.41846  20593798.0164                   20593795.9264
 -15658047.17247 -12189681.53544  23089229.5944                   23089228.8714
 -15058510.92648 -11722232.53946  21452980.6954                   21452978.6294
   -379384.85547   -279837.44544  23787444.2344                   23787443.9574
  -8892932.11347  -6914289.64145  22585184.9384                   22585183.1564
 11  7 25  1 25  0.0000000  0  9G02G17G28G09G04G27G10G05G12
 -21717180.03148 -16910039.26646  20862491.2734                   20862487.0354
 -26673673.85547 -20772176.43045  22472839.9224                   22472837.6174
 -26018120.29346 -20264200.23043  23970406.1254                   23970404.6414
  -9670405.40646  -7523489.39845  22695082.1094                   22695081.7734
 -27804923.71147 -21652646.92646  20598209.2814                   20598207.6374
 -15639314.81647 -12175084.95345  23092794.3204                   23092793.9574
 -15144792.34047 -11789464.76646  21436561.5864                   21436559.4104
   -516892.50447   -386986.13344  23761277.4224                   23761276.7934
  -9009701.06247  -7005278.39845  22562964.7344                   22562962.3134
 11  7 25  1 25 30.0000000  0  9G02G17G28G09G04G27G10G05G12
 -21778253.38348 -16957628.87146  20850869.3134                   20850864.7194
 -26660162.14147 -20761647.83645  22475411.1414                   22475408.9264
 -25951804.09846 -20212525.30143  23983026.0634                   23983024.1484
  -9645399.03946  -7504003.98445  22699840.5004                   22699840.0044
 -27781376.55147 -21634298.48046  20602690.4064                   20602688.3054
 -15620276.38747 -12160249.87945  23096417.3444                   23096417.1844
 -15230560.48047 -11856297.03546  21420240.5864                   21420238.7664
   -654339.20747   -494087.34044  23735121.9694                   23735121.8134
  -9126216.49647  -7096069.62145  22540792.3914                   22540790.2074
 11  7 25  1 26  0.0000000  0  9G02G17G28G09G04G27G10G05G12
 -21838945.85548 -17004921.69146  20839319.8834                   20839315.5434
 -26646518.49647 -20751016.43045  22478007.6644                   22478005.2114
 -25885242.10946 -20160658.89843  23995691.5394                   23995690.4494
  -9619943.40647  -7484168.46945  22704684.7584                   22704683.5634
 -27757467.87548 -21615668.34046  20607239.9224                   20607238.0274
 -15600934.76647 -12145178.54345  23100098.6484                   23100097.7114
 -15315813.30947 -11922727.76245  21404017.1174                   21404015.0204
   -791722.46547   -601139.10944  23708978.8754                   23708978.4454
  -9242476.29347  -7186661.62945  22518669.0004                   22518666.9494
 11  7 25  1 26 30.0000000  0  9G02G17G28G09G04G27G10G05G12
 -21899256.71148 -17051917.14846  20827843.2734                   20827838.7734
 -26632740.86747 -20740280.63745  22480629.4304                   22480626.8014
 -25818435.06646 -20108601.49243  24008404.7504                   24008402.6684
  -9594040.35246  -7463984.32445  22709614.3204                   22709612.5124
 -27733198.92647 -21596757.46946  20611857.9844                   20611856.3484
 -15581291.26647 -12129871.97745  23103836.6334                   23103836.4104
 -15400547.11747 -11988754.05946  21387892.8364                   21387890.9614
   -929038.29347   -708138.32444  23682848.2274                   23682848.0164
  -9358476.47347  -7277051.34445  22496594.7424                   22496592.6994
 11  7 25  1 27  0.0000000  0  9G02G17G28G09G04G27G10G05G12
 -21959186.27048 -17098615.47746  20816438.9304                   20816434.2154
 -26618829.22347 -20729440.41845  22483276.5474                   22483274.5904
 -25751385.18746 -20056354.83243  24021164.3754                   24021162.4804
  -9567693.36346  -7443454.25045  22714627.9144                   22714626.6844
 -27708572.14147 -21577567.77346  20616544.2664                   20616542.5744
 -15561348.80147 -12114332.44945  23107631.5164                   23107631.0044
 -15484759.16447 -12054373.78146  21371867.9144                   21371865.9534
  -1066283.85547   -815082.77044  23656731.1334                   23656730.7544
  -9474214.65247  -7367236.89545  22474570.3914                   22474568.2194
 11  7 25  1 27 30.0000000  0  9G02G17G28G09G04G27G10G05G12
 -22018736.56248 -17145018.28546  20805106.6804                   20805102.3284
 -26604784.52747 -20718496.51245  22485949.0704                   22485947.3364
 -25684095.72346 -20003921.52743  24033968.9144                   24033967.2974
  -9540906.98447  -7422581.79345  22719725.0474                   22719724.3484
 -27683591.48448 -21558102.32446  20621298.0784                   20621296.0664
 -15541111.39547 -12098563.10244  23111482.4304                   23111482.1484
 -15568448.86747 -12119586.49246  21355942.5314                   21355940.3204
  -1203458.03947   -921971.62144  23630627.6484                   23630627.3364
  -9589690.14847  -7457217.74645  22452595.8674                   22452594.1054
 11  7 25  1 28  0.0000000  0  9G02G17G28G09G04G27G10G05G12
 -22077906.57448 -17191124.76246  20793847.1094                   20793842.5864
 -26590604.77047 -20707447.36345  22488647.9534                   22488644.8794
 -25616567.18046 -19951301.87543  24046818.5704                   24046817.6414
  -9513682.55547  -7401367.99645  22724905.9694                   22724904.6294
 -27658257.65247 -21538361.68046  20626119.0554                   20626117.2424
 -15520579.81247 -12082564.52044  23115388.8834                   23115389.1914
 -15651612.03548 -12184388.91846  21340116.4774                   21340114.4344
  -1340556.37947  -1028801.35544  23604539.2424                   23604538.9654
  -9704898.67247  -7546990.57045  22430672.3594                   22430670.1884
 11  7 25  1 28 30.0000000  0  9G02G17G28G09G04G27G10G05G12
 -22136696.15248 -17236934.80946  20782659.8834                   20782655.6174
 -26576288.98447 -20696292.22345  22491371.6644                   22491369.6954
 -25548800.57846 -19898496.73443  24059715.2504                   24059713.2464
  -9486022.84447  -7379815.02345  22730169.3204                   22730168.7034
 -27632572.46948 -21518347.25046  20631006.7814                   20631004.6054
 -15499756.10947 -12066338.32444  23119351.4304                   23119352.1914
 -15734245.75048 -12248778.78146  21324391.8754                   21324389.7034
  -1477575.37547  -1135569.27345  23578465.1254                   23578465.2544
  -9819837.07047  -7636552.91845  22408800.3834                   22408797.8134
 11  7 25  1 29  0.0000000  0  9G02G17G28G09G04G27G10G05G12
 -22195105.98448 -17282448.94946  20771544.6024                   20771540.2584
 -26561836.43047 -20685030.51245  22494122.2584                   22494119.9064
 -25480798.16046 -19845507.84443  24072654.9774                   24072653.7464
  -9457930.82847  -7357925.18745  22735514.8594                   22735514.5744
 -27606538.41847 -21498060.97346  20635960.9224                   20635958.7074
 -15478643.23047 -12049886.79344  23123369.2504                   23123368.7464
 -15816347.57848 -12312754.18746  21308768.7114                   21308766.4924
  -1614512.25447  -1242273.20345  23552406.5784                   23552406.6294
  -9934503.23447  -7725903.12145  22386980.3914                   22386977.7274
 11  7 25  1 29 30.0000000  0  9G02G17G28G09G04G27G10G05G12
 -22253136.68448 -17327667.66046  20760501.8284                   20760497.3134
 -26547247.55147 -20673662.57445  22496898.1954                   22496896.1564
 -25412561.85946 -19792336.70343  24085640.4614                   24085638.4774
  -9429409.97347  -7335701.18745  22740942.6174                   22740941.9534
 -27580158.11747 -21477504.89546  20640980.7424                   20640979.0234
 -15457243.75447 -12033211.94944  23127441.8204                   23127440.8634
 -15897915.43448 -12376313.50446  21293246.8984                   21293244.7384
  -1751364.36747  -1348911.08644  23526364.3444                   23526364.1024
 -10048894.58247  -7815039.19545  22365212.5084                   22365209.9024
 11  7 25  1 30  0.0000000  0  9G02G17G28G09G04G27G10G05G12
 -22310786.87548 -17372589.86346  20749531.3834                   20749526.9574
 -26532519.65647 -20662186.30945  22499701.2114                   22499699.0634
 -25344092.07046 -19738983.60543  24098669.3444                   24098667.9024
  -9400461.55146  -7313144.02345  22746451.1334                   22746450.3404
 -27553432.14847 -21456679.45746  20646066.7894                   20646064.6564
 -15435558.46547 -12016314.35944  23131569.0164                   23131566.7464
 -15978944.92248 -12439453.32046  21277826.9774                   21277825.3324
  -1888127.15247  -1455479.37145  23500339.4534                   23500338.4964
 -10163006.66448  -7903957.64545  22343497.6254                   22343494.7344
 11  7 25  1 30 30.0000000  0  9G02G17G28G09G04G27G10G05G12
 -22368057.57848 -17417216.36346  20738632.9614                   20738628.8324
 -26517652.60247 -20650601.61345  22502529.8594                   22502528.1414
 -25275391.38346 -19685450.58243  24111742.7664                   24111742.0234
  -9371089.08247  -7290256.43445  22752040.9144                   22752039.5274
 -27526363.32447 -21435586.86746  20651217.5944                   20651215.7894
 -15413590.64147 -11999196.62144  23135749.3914                   23135747.4884
 -16059434.35548 -12502172.31246  21262510.4694                   21262508.6214
  -2024798.12147  -1561976.10544  23474331.7584                   23474330.7894
 -10276837.74647  -7992657.13745  22321836.0084                   22321833.6644
 11  7 25  1 31  0.0000000  0  9G02G17G28G09G04G27G10G05G12
 -22424953.85548 -17461551.10247  20727806.0784                   20727801.7234
 -26502650.61347 -20638911.76245  22505384.6094                   22505382.9614
 -25206465.80546 -19631742.35243  24124858.9924                   24124857.6764
  -9341300.38347  -7267044.48445  22757708.6804                   22757708.1804
 -27498958.52347 -21414232.48046  20656432.7114                   20656430.5044
 -15391347.17647 -11981864.07044  23139982.1024                   23139980.8714
 -16139385.81248 -12564472.10946  21247296.4304                   21247294.1334
  -2161378.94547  -1668402.60545  23448341.0864                   23448340.3134
 -10390389.64147  -8081139.08245  22300227.7974                   22300225.1644
 11  7 25  1 31 30.0000000  0  9G02G17G28G09G04G27G10G05G12
 -22481472.83248 -17505591.84446  20717051.0004                   20717046.4184
 -26487510.06647 -20627113.93045  22508265.8364                   22508263.8484
 -25137314.53546 -19577858.27343  24138018.0004                   24138016.4694
  -9311095.75846  -7243508.46144  22763456.7114                   22763455.2194
 -27471217.06247 -21392615.76246  20661711.7504                   20661709.5824
 -15368827.41847 -11964316.23445  23144267.6564                   23144267.1644
 -16218793.67648 -12626348.32446  21232185.6334                   21232183.3874
  -2297863.72747  -1774754.25444  23422369.3364                   23422368.2814
 -10503656.66447  -8169399.05945  22278673.9224                   22278671.1054
 11  7 25  1 32  0.0000000  0  9G02G17G28G09G04G27G10G05G12
 -22537613.84048 -17549338.05546  20706367.6954                   20706363.1214
 -26472228.92647 -20615206.54345  22511173.9534                   22511171.6994
 -25067937.93746 -19523798.61343  24151219.7344                   24151218.8674
  -9280476.83646  -7219649.60544  22769283.4304                   22769282.3714
 -27443139.76647 -21370737.34046  20667054.7664                   20667052.5084
 -15346032.89147 -11946554.30945  23148605.0234                   23148605.7814
 -16297654.25848 -12687798.09846  21217178.9534                   21217176.5984
  -2434247.99247  -1881027.58644  23396415.7894                   23396414.9224
 -10616634.95347  -8257434.05545  22257175.0944                   22257171.9064
 11  7 25  1 32 30.0000000  0  9G02G17G28G09G04G27G10G05G12
 -22593378.48048 -17592791.00446  20695755.9304                   20695751.8014
 -26456808.08647 -20603190.31245  22514108.8204                   22514106.1644
 -24998339.02046 -19469565.73443  24164463.9844                   24164462.8244
  -9249447.77046  -7195471.15644  22775187.9454                   22775186.9774
 -27414730.06247 -21348599.90646  20672461.0784                   20672458.8204
 -15322966.98047 -11928580.92645  23152993.9924                   23152995.0204
 -16375966.32448 -12748820.44146  21202276.6254                   21202274.2304
  -2570529.85947  -1987221.10544  23370481.4774                   23370481.1334
 -10729323.04748  -8345242.93445  22235731.0314                   22235728.2624
 11  7 25  1 33  0.0000000  0  9G02G17G28G09G04G27G10G05G12
 -22648767.72348 -17635951.41446  20685215.5784                   20685211.2624
 -26441247.05947 -20591064.82845  22517069.5314                   22517067.4064
 -24928520.23846 -19415161.50043  24177750.4304                   24177749.1484
  -9218012.33646  -7170976.06244  22781170.4384                   22781169.6764
 -27385990.87147 -21326205.73446  20677929.6644                   20677927.2894
 -15299632.85247 -11910398.55145  23157434.6884                   23157435.3094
 -16453728.45348 -12809414.27346  21187478.6724                   21187476.9024
  -2706707.09047  -2093333.07844  23344567.5004                   23344567.6134
 -10841718.72747  -8432823.95345  22214342.6564                   22214340.2774
 11  7 25  1 33 30.0000000  0  9G02G17G28G09G04G27G10G05G12
 -22703781.72348 -17678819.44547  20674747.1024                   20674742.1684
 -26425545.41447 -20578829.78545  22520057.8524                   22520055.9104
 -24858482.89546 -19360586.97742  24191077.4224                   24191076.6524
  -9186173.00847  -7146166.25444  22787229.2034                   22787228.9494
 -27356924.02047 -21303556.23446  20683461.0164                   20683458.9534
 -15276032.49247 -11892008.73045  23161925.4694                   23161926.0554
 -16530937.32048 -12869576.98446  21172786.3674                   21172784.1334
  -2842775.96946  -2199360.64544  23318674.8284                   23318674.3554
 -10953818.60547  -8520174.46945  22193010.7734                   22193008.8834
 11  7 25  1 34  0.0000000  0  9G02G17G28G09G04G27G10G05G12
 -22758421.68748 -17721396.01247  20664349.1094                   20664344.8014
 -26409703.17647 -20566485.18445  22523072.2664                   22523070.2704
 -24788230.49246 -19305844.84042  24204446.7584                   24204445.0354
  -9153933.93746  -7121044.94145  22793364.7734                   22793363.6094
 -27327532.48047 -21280653.73846  20689054.0864                   20689052.0434
 -15252169.59047 -11873414.30544  23166466.7274                   23166466.3984
 -16607591.67248 -12929307.60946  21158199.4064                   21158197.4924
  -2978734.71147  -2305302.37144  23292802.3054                   23292802.4344
 -11065621.58647  -8607293.63345  22171735.0164                   22171732.9774
 11  7 25  1 34 30.0000000  0  9G02G17G28G09G04G27G10G05G12
 -22812685.36748 -17763679.37547  20654023.2974                   20654018.5394
 -26393717.06647 -20554028.47345  22526114.3674                   22526112.1334
 -24717761.73446 -19250934.09043  24217856.3444                   24217855.0474
  -9121295.88747  -7095612.74245  22799574.5944                   22799574.4924
 -27297816.30147 -21257498.29746  20694709.0084                   20694706.6644
 -15228043.95747 -11854615.14544  23171057.7424                   23171056.9104
 -16683686.57448 -12988602.30546  21143719.2034                   21143717.2384
  -3114577.69547  -2411153.88345  23266952.6174                   23266952.2814
 -11177122.26647  -8694177.24246  22150517.3284                   22150514.9024
 11  7 25  1 35  0.0000000  0  9G02G17G28G09G04G27G10G05G12
 -22866575.61348 -17805671.73846  20643768.0784                   20643763.6804
 -26377588.65247 -20541460.88345  22529183.1644                   22529181.3754
 -24647080.80146 -19195858.06642  24231306.6414                   24231304.9494
  -9088263.88747  -7069873.57445  22805860.5554                   22805860.5514
 -27267779.69148 -21234093.16846  20700424.9064                   20700422.4384
 -15203660.27747 -11835614.91844  23175697.5634                   23175697.1254
 -16759221.83648 -13047460.90646  21129345.1804                   21129343.1844
  -3250303.66847  -2516914.21945  23241124.3674                   23241124.2074
 -11288319.63348  -8780824.51646  22129357.1954                   22129354.7974
 11  7 25  1 35 30.0000000  0  9G02G17G28G09G04G27G10G05G12
 -22920092.54348 -17847373.21946  20633584.3444                   20633579.9734
 -26361316.77747 -20528781.48045  22532280.0554                   22532277.3014
 -24576189.28546 -19140617.91443  24244797.0314                   24244795.2664
  -9054840.53146  -7043829.44545  22812221.2584                   22812221.2114
 -27237424.42647 -21210439.73046  20706200.7664                   20706198.7504
 -15179020.80147 -11816415.35244  23180386.0864                   23180385.6334
 -16834194.76248 -13105881.32446  21115078.1884                   21115076.1374
  -3385909.56247  -2622581.01645  23215319.3444                   23215319.0204
 -11399211.29347  -8867233.56245  22108255.1724                   22108252.9264
 11  7 25  1 36  0.0000000  0  9G02G17G28G09G04G27G10G05G12
 -22973238.28548 -17888785.44946  20623470.9454                   20623466.6254
 -26344902.83247 -20515991.38345  22535403.2504                   22535401.2304
 -24505090.48446 -19085216.24642  24258326.6024                   24258325.2704
  -9021030.85547  -7017484.29344  22818654.7814                   22818654.4224
 -27206754.32048 -21186540.96546  20712037.4614                   20712035.5084
 -15154129.62547 -11797019.66444  23185123.0784                   23185122.2774
 -16908605.05148 -13163863.32846  21100918.6024                   21100916.4494
  -3521394.10247  -2728153.24645  23189537.3134                   23189536.9304
 -11509795.81647  -8953403.30546  22087211.8054                   22087209.1024
 11  7 25  1 36 30.0000000  0  8G02G17G09G04G27G10G05G12
 -23026013.25048 -17929908.77346  20613428.2194                   20613423.8134
 -26328346.19547 -20503090.09045  22538553.7894                   22538551.2974
  -8986838.17646  -6990840.71145  22825161.2344                   22825161.0354
 -27175771.94148 -21162398.86346  20717933.2114                   20717930.9924
 -15128989.52347 -11777430.02344  23189906.9384                   23189907.0084
 -16982450.36748 -13221405.09446  21086866.2504                   21086863.9024
  -3656754.19947  -2833628.50845  23163779.4534                   23163778.7934
 -11620070.76247  -9039331.80546  22066227.1174                   22066224.2894
 11  7 25  1 37  0.0000000  0  8G02G17G09G04G27G10G05G12
 -23078416.16448 -17970742.18447  20603456.3524                   20603451.5824
 -26311644.16447 -20490075.51245  22541732.3284                   22541729.5434
  -8952263.46147  -6963899.41445  22831741.2584                   22831740.6644
 -27144477.39848 -21138013.52346  20723888.0004                   20723886.1954
 -15103601.00047 -11757646.81244  23194738.4304                   23194739.1334
 -17055726.74248 -13278503.53146  21072921.9304                   21072919.5044
  -3791984.59447  -2939002.70345  23138045.3594                   23138045.0124
 -11730031.51647  -9125015.47346  22045301.7344                   22045300.1684
 11  7 25  1 37 30.0000000  0  8G02G17G09G04G27G10G05G12
 -23130438.45348 -18011279.00047  20593556.7894                   20593552.4804
 -26294786.91047 -20476939.98845  22544939.7504                   22544937.2934
  -8917300.64147  -6936655.69945  22838394.1254                   22838393.3404
 -27112863.84848 -21113379.61346  20729904.0084                   20729901.8094
 -15077957.36347 -11737664.80544  23199618.1564                   23199618.9494
 -17128422.53148 -13335149.55546  21059088.6484                   21059086.3714
  -3927073.38347  -3044266.55945  23112339.0394                   23112338.9924
 -11839666.04348  -9210444.93446  22024439.2584                   22024436.6914
 11  7 25  1 38  0.0000000  0  8G02G17G09G04G27G10G05G12
 -23182075.98848 -18051516.02346  20583730.7344                   20583725.7934
 -26277769.79347 -20463679.91045  22548178.2274                   22548175.8284
  -8881948.73846  -6909108.78945  22845121.4844                   22845120.0824
 -27080929.09848 -21088495.39846  20735981.0394                   20735978.8014
 -15052056.96547 -11717482.73844  23204547.5314                   23204547.0474
 -17200531.06248 -13391337.98446  21045366.7034                   21045364.4344
  -4062013.35247  -3149414.45345  23086660.5234                   23086660.2504
 -11948967.66047  -9295614.98046  22003640.2424                   22003637.4884
 11  7 25  1 38 30.0000000  0  8G02G17G09G04G27G10G05G12
 -23233335.23448 -18091458.26246  20573976.0704                   20573971.6604
 -26260597.82447 -20450299.16045  22551445.9304                   22551443.7504
  -8846216.69947  -6881265.68045  22851921.1484                   22851919.7934
 -27048681.21148 -21063367.19146  20742117.5944                   20742115.7074
 -15025908.19547 -11697107.10944  23209523.5084                   23209522.6564
 -17272055.99248 -13447071.65246  21031755.9384                   21031753.8554
  -4196806.89147  -3254448.24245  23061010.0634                   23061009.5634
 -12057939.32047  -9380527.91446  21982902.9064                   21982900.4924
 11  7 25  1 39  0.0000000  0  8G02G17G09G04G27G10G05G12
 -23284218.33248 -18131107.40246  20564293.4534                   20564288.8484
 -26243271.71947 -20436798.32045  22554742.8914                   22554740.7734
  -8810109.32847  -6853130.10245  22858792.0864                   22858791.0944
 -27016123.99248 -21037997.93446  20748313.1564                   20748310.7114
 -14999515.06247 -11676541.08244  23214545.4924                   23214544.7544
 -17342996.71948 -13502350.09846  21018256.2504                   21018254.3164
  -4331452.57047  -3359366.84045  23035387.8834                   23035387.2814
 -12166579.66847  -9465182.68746  21962229.6884                   21962227.1604
 11  7 25  1 39 30.0000000  0  8G02G17G09G04G27G10G05G12
 -23334732.11748 -18170468.77047  20554680.8594                   20554676.4344
 -26225796.98047 -20423181.64545  22558068.3364                   22558065.9924
  -8773635.89547  -6824709.28145  22865732.9694                   22865732.7854
 -26983265.68448 -21012394.06246  20754565.7814                   20754564.0164
 -14972886.08247 -11655791.28144  23219612.7424                   23219611.6524
 -17413357.37148 -13557176.55146  21004867.2344                   21004865.2424
  -4465953.07847  -3464172.29745  23009793.4694                   23009792.8284
 -12274892.25447  -9549582.05545  21941618.1644                   21941615.5394
 11  7 25  1 40  0.0000000  0  8G02G17G09G04G27G10G05G12
 -23384877.74648 -18209543.26247  20545138.2734                   20545133.7624
 -26208174.22747 -20409449.64845  22561421.8524                   22561419.6954
  -8736800.74647  -6796006.61345  22872742.1884                   22872742.3874
 -26950109.68048 -20986558.21546  20760874.9844                   20760873.2074
 -14946025.12547 -11634860.74244  23224723.9844                   23224723.8404
 -17483136.91448 -13611550.19946  20991588.6414                   20991586.2344
  -4600306.90647  -3568863.46145  22984226.7194                   22984226.3634
 -12382875.69947  -9633724.94546  21921069.9694                   21921066.9804
 11  7 25  1 40 30.0000000  0  8G02G17G09G04G27G10G05G12
 -23434655.81648 -18248331.35246  20535665.9454                   20535661.4694
 -26190402.56647 -20395601.61745  22564803.7894                   22564801.7544
  -8699606.97746  -6767024.50845  22879820.0164                   22879820.7114
 -26916657.83248 -20960491.84446  20767240.6954                   20767238.6844
 -14918934.59446 -11613751.32044  23229879.8594                   23229879.8794
 -17552333.03948 -13665469.23046  20978420.6094                   20978418.3054
  -4734510.67247  -3673437.71145  22958688.1724                   22958687.2704
 -12490526.96947  -9717609.01646  21900584.4694                   21900581.9494
 11  7 25  1 41  0.0000000  0  8G02G17G09G04G27G10G05G12
 -23484069.08248 -18286835.18046  20526263.0634                   20526258.4884
 -26172483.73447 -20381638.90245  22568213.9454                   22568211.5394
  -8662059.76246  -6737766.97744  22886964.5084                   22886965.0944
 -26882914.66848 -20934198.47346  20773661.8594                   20773659.9344
 -14891619.23446 -11592466.71544  23235077.8444                   23235078.2194
 -17620945.87548 -13718933.74646  20965364.5554                   20965362.1914
  -4868563.14147  -3777894.05945  22933178.7974                   22933177.8284
 -12597845.44147  -9801233.75846  21880162.5704                   21880159.5124
 11  7 25  1 41 30.0000000  0  8G02G17G09G04G27G10G05G12
 -23533116.99648 -18325054.31246  20516929.4614                   20516924.5394
 -26154416.02347 -20367560.18745  22571651.9614                   22571649.3914
  -8624161.56246  -6708235.96144  22894176.5394                   22894176.4024
 -26848881.43448 -20907679.07046  20780138.4224                   20780136.1954
 -14864080.73847 -11571008.23444  23240318.2194                   23240318.4454
 -17688972.82448 -13771941.73046  20952419.1174                   20952417.0314
  -5002460.86347  -3882229.84445  22907698.7664                   22907697.7584
 -12704827.68047  -9884596.50046  21859804.4064                   21859802.1564
 11  7 25  1 42  0.0000000  0  8G02G17G09G04G27G10G05G12
 -23581800.52048 -18362989.51246  20507664.8834                   20507660.3204
 -26136198.50047 -20353364.74645  22575118.5004                   22575116.5784
  -8585915.17647  -6678433.60944  22901454.6254                   22901454.2774
 -26814560.39848 -20880935.41846  20786669.4384                   20786667.1414
 -14836321.37947 -11549377.67244  23245600.5004                   23245600.9844
 -17756411.24648 -13824491.11346  20939585.8054                   20939583.5474
  -5136200.40247  -3986442.36345  22882249.2114                   22882247.4804
 -12811470.85247  -9967695.03546  21839510.5704                   21839508.2034
 11  7 25  1 42 30.0000000  0  8G02G17G09G04G27G10G05G12
 -23630120.92648 -18400641.75447  20498470.2344                   20498465.5744
 -26117831.67247 -20339052.96145  22578613.3284                   22578611.3164
  -8547325.03146  -6648363.39144  22908798.3754                   22908797.1914
 -26779954.38748 -20853969.69546  20793254.8834                   20793252.6564
 -14808344.83647 -11527577.85544  23250925.0944                   23250924.9304
 -17823260.38348 -13876581.31646  20926864.9924                   20926863.0784
  -5269779.49647  -4090529.84845  22856829.3524                   22856828.6454
 -12917773.33647 -10050528.08246  21819282.2814                   21819279.8324
 11  7 25  1 43  0.0000000  0  8G02G17G09G04G27G10G05G12
 -22102656.56248 -17210409.76646  20789136.9384                   20789132.1884
 -24523894.64847 -19097024.12945  22881929.7584                   22881927.6604
  -6932974.53546  -5390427.98444  23215999.0004                   23215997.6024
 -25169645.88348 -19599183.85246  21099686.4224                   21099684.1764
 -13204733.73847 -10278010.85244  23556081.9224                   23556082.0904
 -16314094.86348 -12700608.15246  21214049.8134                   21214047.1174
  -3827769.86747  -2966885.86345  23131234.7664                   23131234.0354
 -11448307.97347  -8905490.09446  22098911.8914                   22098909.3714
 11  7 25  1 43 30.0000000  0  8G02G17G09G04G27G10G05G12
 -22150252.68748 -17247497.63347  20780079.7194                   20780075.2114
 -24505227.40647 -19082478.24245  22885482.0394                   22885480.0234
  -6893706.31247  -5359829.39544  23223471.7894                   23223470.7504
 -25134476.87948 -19571779.44146  21106378.7504                   21106376.6484
 -13176330.86346 -10255878.82444  23561486.4844                   23561486.5204
 -16379759.37148 -12751775.26246  21201554.0864                   21201551.7504
  -3961019.24247  -3070716.43045  23105878.2034                   23105876.9694
 -11553921.19547  -8987786.06246  22078814.3834                   22078811.8324
 11  7 25  1 44  0.0000000  0  8G02G17G09G04G27G10G05G12
 -22197487.99648 -17284304.34846  20771091.2894                   20771086.6414
 -24486409.35547 -19067814.83645  22889062.8594                   22889060.6604
  -6854104.53147  -5328970.91044  23231007.8594                   23231006.8794
 -25099030.35248 -19544158.77746  21113123.7194                   21113122.2424
 -13147718.87546 -10233583.84444  23566931.7894                   23566930.1604
 -16444829.24648 -12802479.02346  21189171.4844                   21189169.4344
  -4094099.77047  -3174415.41445  23080553.9844                   23080552.4734
 -11659186.16047  -9069810.66446  22058783.2344                   22058780.8054
 11  7 25  1 44 30.0000000  0  8G02G17G09G04G27G10G05G12
 -22244362.54748 -17320829.94946  20762171.1804                   20762166.3524
 -24467439.25847 -19053032.94945  22892672.8674                   22892670.8404
  -6814171.57447  -5297854.34444  23238607.1334                   23238605.4884
 -25063307.40248 -19516322.73446  21119922.0864                   21119919.9924
 -13118900.04747 -10211127.66444  23572416.1174                   23572414.1644
 -16509301.82848 -12852717.36346  21176903.0704                   21176900.7194
  -4227007.42647  -3277979.70745  23055262.1334                   23055261.0554
 -11764099.27747  -9151561.11346  22038818.7664                   22038815.8244
 11  7 25  1 45  0.0000000  0  8G02G17G09G04G27G10G05G12
 -22290878.75848 -17357076.33246  20753319.2424                   20753314.8834
 -24448318.32447 -19038133.52045  22896311.1094                   22896309.2734
  -6773912.69547  -5266483.81644  23246268.5394                   23246266.7504
 -25027312.35248 -19488274.65246  21126771.5944                   21126769.4414
 -13089878.96147 -10188513.87544  23577938.9844                   23577936.7974
 -16573177.42648 -12902490.51246  21164747.6884                   21164745.2974
  -4359741.10947  -3381408.43745  23030003.6254                   23030002.6684
 -11868660.51247  -9233037.36746  22018921.6174                   22018918.5904
 11  7 25  1 45 30.0000000  0  8G02G17G09G04G27G10G05G12
 -22337035.84048 -17393042.87146  20744535.9774                   20744531.1764
 -24429044.19147 -19023114.72745  22899979.0004                   22899977.1254
  -6733329.44946  -5234860.54744  23253990.4534                   23253989.7424
 -24991045.84048 -19460015.03546  21133672.7194                   21133671.2424
 -13060656.43047 -10165743.09844  23583499.5554                   23583499.2424
 -16636452.27348 -12951795.53946  21152706.8754                   21152704.6684
  -4492296.16447  -3484697.96945  23004779.2424                   23004777.9304
 -11972864.82447  -9314235.49646  21999091.9844                   21999089.4184
 11  7 25  1 46  0.0000000  0  8G02G17G09G04G27G10G05G12
 -22382837.28148 -17428732.29746  20735820.2584                   20735815.6454
 -24409619.42647 -19007978.54745  22903675.4614                   22903673.2814
  -6692428.18046  -5202989.48444  23261773.4534                   23261773.5784
 -24954512.76648 -19431547.71146  21140624.8594                   21140623.0354
 -13031238.24546 -10142819.87144  23589096.7974                   23589098.4224
 -16699127.72348 -13000633.50046  21140779.9844                   21140777.7234
  -4624672.27747  -3587848.07445  22979588.6334                   22979587.6024
 -12076712.78947  -9395155.94146  21979330.1484                   21979327.5784
 11  7 25  1 46 30.0000000  0  8G02G17G09G04G27G10G05G12
 -22428283.45748 -17464144.89147  20727172.0084                   20727167.2114
 -24390042.88747 -18992724.11745  22907400.5084                   22907398.8874
  -6651212.00846  -5170873.07444  23269616.5864                   23269617.5124
 -24917715.16048 -19402874.25846  21147627.3834                   21147625.1914
 -13001626.53146 -10119745.91844  23594731.5784                   23594732.9414
 -16761201.56648 -13049002.68446  21128967.8364                   21128965.9734
  -4756866.09847  -3690856.14145  22954433.3444                   22954431.4064
 -12180201.46947  -9475796.42646  21959636.8834                   21959634.3754
 11  7 25  1 47  0.0000000  0  8G02G17G09G04G27G10G05G12
 -22473374.14548 -17499280.47347  20718591.6564                   20718587.1914
 -24370313.14847 -18977350.30145  22911155.0394                   22911153.6294
  -6609683.09846  -5138512.96544  23277519.3754                   23277520.0394
 -24880654.15648 -19373995.55946  21154679.5704                   21154677.7894
 -12971822.96546 -10096522.41443  23600403.1254                   23600403.4184
 -16822670.97348 -13096900.87146  21117270.1804                   21117268.1604
  -4888873.71947  -3793719.10245  22929312.3984                   22929311.2664
 -12283327.38347  -9556154.24646  21940013.0234                   21940010.1294
 11  7 25  1 47 30.0000000  0  8G02G17G09G04G27G10G05G12
 -22518111.15648 -17534140.47747  20710078.3594                   20710073.7114
 -24350430.12947 -18961857.03545  22914938.7344                   22914936.7774
  -6567845.98846  -5105912.69544  23285481.1954                   23285481.5234
 -24843333.04348 -19344914.16446  21161781.6644                   21161780.0234
 -12941831.28546 -10073152.30544  23606111.0004                   23606109.9494
 -16883535.47748 -13144327.71546  21105688.2504                   21105685.8834
  -5020693.07447  -3896435.37945  22904228.3834                   22904226.7774
 -12386088.95347  -9636228.16446  21920458.1174                   21920455.0204
 11  7 25  1 48  0.0000000  0  8G02G17G09G04G27G10G05G12
 -22562492.27348 -17568723.15247  20701632.9064                   20701628.2734
 -24330391.32047 -18946242.39145  22918752.3204                   22918750.0824
  -6525701.06646  -5073072.55544  23293501.6804                   23293501.0394
 -24805751.21148 -19315629.61746  21168933.2194                   21168931.2074
 -12911651.39546 -10049635.54344  23611853.9304                   23611852.5554
 -16943790.62148 -13191279.73046  21094222.0944                   21094219.7034
  -5152318.48847  -3999000.53145  22879180.5314                   22879179.1604
 -12488480.91047  -9716014.06646  21900973.3524                   21900970.4534
 11  7 25  1 48 30.0000000  0  8G02G17G09G04G27G10G05G12
 -22606521.85248 -17603031.90647  20693254.3594                   20693250.0904
 -24310199.48447 -18930508.48445  22922594.5554                   22922591.9494
  -6483254.86747  -5039997.65644  23301578.8284                   23301577.7274
 -24767914.42248 -19286146.39846  21176133.3444                   21176131.0864
 -12881289.39146 -10025976.88344  23617632.1884                   23617631.1764
 -17003438.41448 -13237758.48446  21082871.6884                   21082869.5514
  -5283750.18447  -4101414.73845  22854169.9694                   22854168.7384
 -12590503.52347  -9795512.17646  21881558.9064                   21881556.3014
 11  7 25  1 49  0.0000000  0  8G02G17G09G04G27G10G05G12
 -22650196.91848 -17637064.40647  20684943.3364                   20684938.7584
 -24289849.97747 -18914651.72345  22926467.4064                   22926465.0474
  -6440507.16846  -5006687.82044  23309713.2894                   23309712.0984
 -24729821.09448 -19256463.27346  21183382.1484                   21183380.2344
 -12850744.27746 -10002175.50844  23623444.3594                   23623444.9494
 -17062473.57048 -13283759.86746  21071637.2194                   21071635.2424
  -5414981.38347  -4203672.71145  22829197.6094                   22829195.9654
 -12692150.84047  -9874717.83246  21862216.0234                   21862213.3014
 11  7 25  1 49 30.0000000  0  8G02G17G09G04G27G10G05G12
 -22693521.76248 -17670824.00847  20676698.8754                   20676694.3954
 -24269345.81647 -18898674.45745  22930368.8284                   22930366.1914
  -6397465.01246  -4973148.55144  23317903.4924                   23317902.4534
 -24691476.92648 -19226584.69146  21190678.7814                   21190676.7854
 -12820022.27346  -9978236.31244  23629289.6564                   23629290.8324
 -17120897.71948 -13329285.14146  21060519.6564                   21060517.0824
  -5546012.74247  -4305774.96145  22804262.6484                   22804261.3444
 -12793424.27348  -9953632.15646  21842944.4694                   21842941.5664
 11  7 25  1 50  0.0000000  0  8G02G17G09G04G27G10G05G12
 -22736498.91848 -17704312.69147  20668520.9774                   20668515.9804
 -24248688.08247 -18882577.52745  22934299.8524                   22934297.6414
  -6354133.38347  -4939383.71944  23326149.4924                   23326148.3364
 -24652885.78148 -19196513.65246  21198022.4534                   21198020.3094
 -12789127.68746  -9954162.66844  23635168.7344                   23635170.1604
 -17178711.15248 -13374334.52746  21049518.1174                   21049515.6954
  -5676842.65647  -4407720.25045  22779366.8134                   22779365.1524
 -12894322.30548 -10032253.95346  21823744.2424                   21823741.4224
 11  7 25  1 50 30.0000000  0  8G02G17G09G04G27G10G05G12
 -22779124.68748 -17737527.57047  20660409.1724                   20660404.3524
 -24227872.13347 -18866357.30945  22938261.3134                   22938259.0744
  -6310511.37146  -4905392.59044  23334451.1334                   23334450.4734
 -24614045.54748 -19166248.52746  21205413.6564                   21205411.6414
 -12758059.16446  -9929953.46944  23641081.9694                   23641082.1684
 -17235907.90648 -13418903.38346  21038633.8284                   21038631.7114
  -5807463.79347  -4509502.83245  22754510.7584                   22754509.1914
 -12994838.47347 -10110578.20346  21804616.5234                   21804613.8324
 11  7 25  1 51  0.0000000  0  8G02G17G09G04G27G10G05G12
 -22821403.67248 -17770472.21947  20652363.5314                   20652359.1804
 -24206900.94947 -18850016.12945  22942251.6954                   22942249.7624
  -6266606.15646  -4871180.78944  23342804.8594                   23342805.3444
 -24574962.41848 -19135794.13346  21212850.9224                   21212848.7504
 -12726823.19547  -9905613.80144  23647026.2504                   23647026.8244
 -17292490.15248 -13462993.41446  21027866.8054                   21027864.0904
  -5937877.28147  -4611123.62145  22729693.6414                   22729692.0514
 -13094973.94547 -10188605.80546  21785561.1804                   21785558.6564
 11  7 25  1 51 30.0000000  0  8G02G17G09G04G27G10G05G12
 -22863336.02348 -17803146.77047  20644384.0394                   20644379.3674
 -24185773.18447 -18833552.95745  22946272.0864                   22946269.8364
  -6222420.40646  -4836750.40644  23351213.9224                   23351213.6214
 -24535637.62148 -19105151.42646  21220333.7344                   21220331.6954
 -12695421.58646  -9881145.04344  23653001.1804                   23653001.0594
 -17348455.86348 -13506603.02746  21017216.5394                   21017214.2734
  -6068079.31247  -4712579.63745  22704916.5634                   22704914.9104
 -13194725.23447 -10266334.04746  21766579.1174                   21766576.4264
 11  7 25  1 52  0.0000000  0  9G02G17G25G09G04G27G10G05G12
 -22904925.69548 -17835554.29347  20636470.2734                   20636465.3834
 -24164491.34047 -18816969.70345  22950321.9614                   22950320.1684
   7678550.93456   5998967.66854  24687629.3984                   24687630.9024
  -6177960.30146  -4802106.20744  23359674.2034                   23359674.1954
 -24496076.41848 -19074324.49646  21227862.1954                   21227860.1454
 -12663860.19146  -9856551.77743  23659006.9614                   23659005.6054
 -17403806.86748 -13549733.65246  21006683.7974                   21006681.4614
  -6198069.58647  -4813870.65645  22680180.3204                   22680178.7704
 -13294092.81647 -10343763.29346  21747670.3444                   21747667.2344
 11  7 25  1 52 30.0000000  0  9G02G17G25G09G04G27G10G05G12
 -22946180.22348 -17867700.66847  20628619.4614                   20628614.8244
 -24143061.82047 -18800271.37545  22954400.0704                   22954397.6214
   7544817.68046   5894760.09444  24662180.1254                   24662182.7854
  -6133236.29346  -4767256.36744  23368185.3834                   23368184.9654
 -24456287.75448 -19043320.34446  21235433.5944                   21235431.6374
 -12632148.35246  -9831841.28943  23665041.6884                   23665040.1414
 -17458548.62148 -13592389.53146  20996266.3364                   20996264.5474
  -6327852.06647  -4914999.75445  22655483.4454                   22655481.9654
 -13393081.14148 -10420896.99646  21728833.1644                   21728830.6214
 11  7 25  1 53  0.0000000  0  9G02G17G25G09G04G27G10G05G12
 -22987103.81648 -17899589.16847  20620831.9144                   20620827.4024
 -24121487.52047 -18783460.22745  22958505.4304                   22958502.8674
   7411196.16447   5790639.53944  24636752.8594                   24636754.7734
  -6088255.00447  -4732206.05144  23376745.0474                   23376745.2424
 -24416277.36748 -19012143.43046  21243047.5944                   21243045.4104
 -12600292.44547  -9807018.53944  23671103.8984                   23671103.0354
 -17512683.21548 -13634572.30546  20985965.3204                   20985962.8714
  -6457427.24247  -5015967.32045  22630826.0704                   22630824.8984
 -13491691.41047 -10497736.12146  21710068.6484                   21710065.6804
 11  7 25  1 53 30.0000000  0  9G02G17G25G09G04G27G10G05G12
 -23027694.55548 -17931218.29747  20613107.8594                   20613103.3164
 -24099764.68746 -18766533.35545  22962638.9384                   22962636.7814
   7277692.12547   5686610.55544  24611347.7504                   24611349.2584
  -6043016.59846  -4696955.36744  23385352.6334                   23385353.9414
 -24376044.34848 -18980793.02346  21250703.7974                   21250701.5474
 -12568292.07046  -9782083.24644  23677192.2114                   23677194.7194
 -17566205.82448 -13676278.19946  20975780.1804                   20975777.9304
  -6586788.73047  -5116768.37945  22606209.6174                   22606207.7464
 -13589917.46948 -10574275.85246  21691376.8594                   21691374.1994
 11  7 25  1 54  0.0000000  0  9G02G17G25G09G04G27G10G05G12
 -23067949.48448 -17962585.75047  20605447.8674                   20605442.7344
 -24077889.10547 -18749487.45345  22966802.1564                   22966799.7974
   7144311.48047   5582677.71544  24585966.8594                   24585967.8284
  -5997521.14846  -4661504.38344  23394010.8524                   23394010.9414
 -24335587.38348 -18949268.12946  21258402.4844                   21258400.2114
 -12536146.42646  -9757034.80543  23683310.1254                   23683311.8444
 -17619111.85948 -13717503.65246  20965712.4774                   20965710.0204
  -6715930.35547  -5217398.12145  22581634.3204                   22581633.0234
 -13687753.62547 -10650511.77346  21672759.1954                   21672756.3204
 11  7 25  1 54 30.0000000  0  9G02G17G25G09G04G27G10G05G12
 -23107868.46948 -17993691.43047  20597851.3134                   20597846.6024
 -24055859.55147 -18732321.58245  22970993.9224                   22970992.0704
   7011057.66046   5478843.70744  24560609.0394                   24560609.9414
  -5951771.20746  -4625855.09444  23402716.4774                   23402715.9024
 -24294907.57048 -18917569.57846  21266143.6954                   21266141.5824
 -12503857.53946  -9731874.72744  23689455.8524                   23689455.5204
 -17671399.24248 -13758247.03546  20955762.5554                   20955760.0434
  -6844848.08247  -5317853.40645  22557102.0394                   22557100.4494
 -13785196.64148 -10726441.35946  21654216.0474                   21654213.5784
 11  7 25  1 55  0.0000000  0  9G02G17G25G09G04G27G10G05G12
 -23147446.93748 -18024531.77347  20590319.4224                   20590314.8204
 -24033669.89147 -18715030.94145  22975216.5394                   22975214.6914
   6877938.64546   5375114.75044  24535276.5164                   24535277.5234
  -5905764.44146  -4590005.67644  23411471.7114                   23411470.7114
 -24254001.65648 -18885694.85946  21273927.9064                   21273925.3554
 -12471422.66047  -9706600.84444  23695627.3054                   23695626.7774
 -17723061.21548 -13798503.07846  20945931.5314                   20945929.0554
  -6973533.29747  -5418127.51645  22532613.9844                   22532612.3164
 -13882238.20348 -10802058.11746  21635749.9844                   21635747.0824
 11  7 25  1 55 30.0000000  0  9G02G17G25G09G04G27G10G05G12
 -23186687.47348 -18055108.78947  20582852.5314                   20582847.9694
 -24011321.41446 -18697616.53945  22979469.6254                   22979467.2814
   6744955.48446   5271491.57443  24509969.9694                   24509970.0904
  -5859505.82046  -4553960.00044  23420274.6954                   23420273.5394
 -24212873.42248 -18853646.90246  21281754.3914                   21281751.9534
 -12438845.66847  -9681216.24644  23701825.8914                   23701826.2774
 -17774097.93448 -13838271.91846  20936219.4454                   20936216.9414
  -7101984.59447  -5518219.34845  22508170.7194                   22508168.7894
 -13978877.38747 -10877361.34446  21617360.0944                   21617357.1564
 11  7 25  1 56  0.0000000  0  9G02G17G25G09G04G27G10G05G12
 -23225589.49248 -18085422.01647  20575449.6484                   20575445.0394
 -23988811.66847 -18680076.46945  22983752.5234                   22983750.7504
   6612112.08645   5167977.34443  24484690.0004                   24484690.7504
  -5812997.43746  -4517719.70344  23429124.3364                   23429124.5944
 -24171523.58248 -18821426.26246  21289622.3674                   21289620.2814
 -12406128.14546  -9655722.17644  23708051.5554                   23708052.5634
 -17824506.86748 -13877551.57046  20926626.7734                   20926624.4024
  -7230197.59447  -5618125.49645  22483772.5164                   22483770.5904
 -14075110.20348 -10952347.92246  21599047.3524                   21599044.7814
 11  7 25  1 56 30.0000000  0  9G02G17G25G09G04G27G10G05G12
 -23264154.78148 -18115472.86747  20568110.7974                   20568106.2424
 -23966141.57446 -18662411.44145  22988067.0784                   22988064.8794
   6479409.84846   5064573.08643  24459437.3984                   24459437.9184
  -5766243.92646  -4481288.41044  23438021.3754                   23438022.3794
 -24129955.19947 -18789035.35246  21297532.9304                   21297530.9304
 -12373273.70346  -9630121.43444  23714304.4064                   23714305.0634
 -17874287.90247 -13916341.94946  20917153.7114                   20917151.4964
  -7358170.37947  -5717844.47345  22459420.3594                   22459418.1484
 -14170935.09848 -11027016.63746  21580812.6954                   21580809.6604
 11  7 25  1 57  0.0000000  0  9G02G17G25G09G04G27G10G05G12
 -23302381.74248 -18145260.07447  20560836.2814                   20560831.8364
 -23943307.51647 -18644618.65645  22992411.7814                   22992409.5634
   6346854.17646   4961282.99243  24434213.8204                   24434214.3134
  -5719245.65646  -4444666.41844  23446965.2664                   23446965.8954
 -24088167.86748 -18756473.81646  21305484.8054                   21305482.9304
 -12340282.38347  -9604414.00444  23720582.8204                   23720582.9384
 -17923437.42648 -13954640.24246  20907801.3594                   20907798.4804
  -7485897.09447  -5817371.71545  22435114.1564                   22435112.7854
 -14266347.30548 -11101363.78546  21562656.2974                   21562653.4104
 11  7 25  1 57 30.0000000  0  9G02G17G25G09G04G27G10G05G12
 -23340271.75448 -18174784.72747  20553626.4144                   20553621.5864
 -23920309.65246 -18626698.23444  22996788.5004                   22996786.1604
   6214447.11746   4858108.69943  24409017.8054                   24409018.9774
  -5672006.69946  -4407856.87544  23455954.0704                   23455955.1484
 -24046163.98448 -18723743.53946  21313478.1094                   21313476.1054
 -12307157.32046  -9578602.35244  23726885.8204                   23726886.7584
 -17971954.39548 -13992445.63346  20898568.1884                   20898565.8954
  -7613375.39147  -5916705.37145  22410855.8204                   22410854.3674
 -14361344.84848 -11175387.82046  21544578.5394                   21544576.0474
 11  7 25  1 58  0.0000000  0  9G02G17G25G09G04G27G10G05G12
 -23377827.65648 -18204049.03147  20546479.5944                   20546474.7274
 -23897149.59846 -18608651.43045  23001195.5394                   23001193.5354
   6082188.98846   4755050.35943  24383849.9384                   24383852.0434
  -5624532.63746  -4370864.10944  23464988.0474                   23464988.5704
 -24003947.75848 -18690847.78146  21321511.6334                   21321509.6294
 -12273903.63746  -9552690.48844  23733213.7114                   23733215.1374
 -18019839.99248 -14029759.04346  20889456.2664                   20889453.8484
  -7740604.26247  -6015844.67645  22386644.9534                   22386643.4654
 -14455927.18748 -11249088.32446  21526580.3444                   21526577.3484
 11  7 25  1 58 30.0000000  0  9G02G17G25G09G04G27G10G05G12
 -23415050.44548 -18233053.77047  20539396.0784                   20539391.5984
 -23873826.62147 -18590477.67645  23005633.7114                   23005631.5744
   5950082.46946   4652110.14844  24358710.2114                   24358713.4844
  -5576826.39846  -4333690.44944  23474066.4454                   23474065.7274
 -23961521.45748 -18657788.33246  21329585.3284                   21329582.9264
 -12240523.97346  -9526680.46144  23739566.1644                   23739567.5204
 -18067093.10948 -14066579.60946  20880464.2424                   20880461.5514
  -7867580.46147  -6114787.09445  22362482.1564                   22362480.6954
 -14550091.86748 -11322463.39546  21508661.5004                   21508658.6644
 11  7 25  1 59  0.0000000  0  9G02G17G25G09G04G27G10G05G12
 -23451937.95348 -18261797.24247  20532376.6724                   20532372.0354
 -23850337.24247 -18572174.25445  23010103.8364                   23010101.6764
   5818133.08646   4549292.34443  24333601.2894                   24333604.6254
  -5528888.52746  -4296336.28944  23483188.8134                   23483187.0314
 -23918884.18747 -18624564.49246  21337698.8204                   21337696.3404
 -12207017.98446  -9500572.00044  23745941.9144                   23745943.5354
 -18113709.56647 -14102904.07446  20871593.3204                   20871590.7544
  -7994298.37947  -6213528.25445  22338368.2894                   22338366.7114
 -14643833.41448 -11395508.74246  21490823.1334                   21490820.0984
 11  7 25  1 59 30.0000000  0  9G02G17G25G09G04G27G10G05G12
 -23488492.03148 -18290280.90247  20525420.8754                   20525415.9264
 -23826682.08247 -18553741.65645  23014605.0394                   23014603.2274
   5686342.11346   4446597.95344  24308523.0784                   24308525.3874
  -5480723.82446  -4258805.39544  23492354.5704                   23492353.1214
 -23876039.19148 -18591178.79346  21345851.3054                   21345849.4534
 -12173389.74646  -9474368.26644  23752341.4304                   23752342.0904
 -18159689.77348 -14138732.76646  20862843.0474                   20862841.1414
  -8120756.07447  -6312066.63745  22314304.0474                   22314302.6644
 -14737150.59048 -11468223.41846  21473065.1414                   21473062.4694
 11  7 25  2  0  0.0000000  0  9G02G17G25G09G04G27G10G05G12
 -23524716.63348 -18318507.83247  20518527.9144                   20518522.8364
 -23802863.13347 -18535181.41845  23019137.7504                   23019135.7114
   5554710.05147   4344027.33244  24283473.3834                   24283476.0784
  -5432338.02047  -4221102.21544  23501561.7114                   23501561.2344
 -23832990.87948 -18557634.66845  21354043.1644                   21354041.1564
 -12139643.94147  -9448072.91443  23758763.1804                   23758762.1684
 -18205035.03548 -14174066.69146  20854214.5394                   20854212.2624
  -8246952.77747  -6410401.65645  22290289.4144                   22290288.4184
 -14830043.44548 -11540607.46546  21455388.4304                   21455385.1094
 11  7 25  2  0 30.0000000  0  9G02G17G25G09G04G27G10G05G12
 -23560612.57048 -18346478.66447  20511696.6094                   20511692.1214
 -23778879.85947 -18516493.14845  23023701.4224                   23023699.1804
   5423239.29747   4241582.46144  24258456.2344                   24258457.7464
  -5383734.78147  -4183229.59844  23510811.1254                   23510811.1054
 -23789741.48048 -18523933.84846  21362273.6334                   21362271.2114
 -12105783.61746  -9421688.28543  23765206.5554                   23765206.3164
 -18249744.38748 -14208905.11746  20845706.5784                   20845704.0274
  -8372885.59447  -6508531.05145  22266325.3594                   22266323.6334
 -14922509.58248 -11612659.00446  21437792.7194                   21437789.8674
 11  7 25  2  1  0.0000000  0  9G02G17G25G09G04G27G10G05G12
 -23596178.77748 -18374192.56247  20504928.5314                   20504924.1374
 -23754729.93446 -18497675.00845  23028296.6174                   23028294.8634
   5291934.36746   4139266.81343  24233470.0004                   24233470.9224
  -5334915.32047  -4145188.53544  23520100.0784                   23520100.8324
 -23746291.24648 -18490076.53546  21370542.0004                   21370539.8714
 -12071809.93447  -9395215.34844  23771671.7894                   23771672.1804
 -18293815.45748 -14243246.17646  20837320.3524                   20837317.6254
  -8498549.96547  -6606451.26646  22242412.2424                   22242410.8484
 -15014544.64848 -11684374.64846  21420278.6094                   21420276.1994
 11  7 25  2  1 30.0000000  0  9G02G17G25G09G04G27G10G05G12
 -23631417.14148 -18401651.00047  20498222.7974                   20498218.0234
 -23730413.57847 -18478727.18745  23032923.9454                   23032921.8364
   5160796.82446   4037081.64143  24208514.7894                   24208516.1994
  -5285884.07047  -4106982.43444  23529430.6564                   23529430.7854
 -23702643.06648 -18456064.96946  21378847.8834                   21378845.6844
 -12037726.23846  -9368656.67643  23778157.0864                   23778159.3714
 -18337248.22748 -14277089.85246  20829055.1334                   20829052.4264
  -8623943.64847  -6704160.54746  22218550.5084                   22218549.1564
 -15106147.40648 -11755753.42246  21402847.4224                   21402844.6094
 11  7 25  2  2  0.0000000  0  9G02G17G25G09G04G27G10G05G12
 -23666326.81648 -18428853.32447  20491579.8984                   20491574.9304
 -23705928.84846 -18459648.17245  23037582.9774                   23037580.8554
   5029831.09446   3935030.37943  24183592.9454                   24183594.7304
  -5236642.68447  -4068612.60244  23538801.9694                   23538800.8674
 -23658797.49648 -18421899.57046  21387191.5394                   21387189.1134
 -12003533.63746  -9342013.14143  23784663.4844                   23784665.5944
 -18380039.87948 -14310433.97346  20820912.4384                   20820909.4574
  -8749062.00047  -6801655.28946  22194741.3754                   22194739.5394
 -15197313.59448 -11826792.00046  21385499.2344                   21385496.3404
 11  7 25  2  2 30.0000000  0  9G02G17G25G09G04G27G10G05G12
 -23700910.73848 -18455801.81647  20484998.6724                   20484994.1914
 -23681276.85546 -18440438.82445  23042274.6094                   23042272.7424
   4899037.87946   3833113.58643  24158702.8594                   24158705.7344
  -5187196.48047  -4030083.16844  23548211.4774                   23548210.7934
 -23614758.21148 -18387583.23446  21395571.6724                   21395569.8134
 -11969236.98046  -9315288.55543  23791191.1884                   23791190.8874
 -18422191.49248 -14343279.34846  20812890.8444                   20812888.2934
  -8873903.83247  -6898934.55546  22170984.2734                   22170982.8164
 -15288042.41048 -11897489.77346  21368234.1884                   21368231.3364
 11  7 25  2  3  0.0000000  0  9G02G17G25G09G04G27G10G05G12
 -23735171.83248 -18482498.75447  20478479.1644                   20478474.3134
 -23656459.21546 -18421100.39844  23046997.4774                   23046994.9144
   4768417.80946   3731331.78543  24133847.0554                   24133849.8284
  -5137550.70746  -3991398.22344  23557658.5554                   23557657.9344
 -23570529.30148 -18353119.12546  21403988.2664                   21403985.9924
 -11934840.74647  -9288486.31244  23797736.8284                   23797736.2584
 -18463704.32448 -14375626.98446  20804991.3914                   20804989.0004
  -8998468.06647  -6995997.51646  22147281.1334                   22147279.1764
 -15378333.82048 -11967846.70346  21351052.2424                   21351049.1844
 11  7 25  2  3 30.0000000  0  9G02G17G25G09G04G27G10G05G12
 -23769108.80948 -18508943.14547  20472021.1254                   20472016.2504
 -23631473.19146 -18401630.75445  23051752.0784                   23051749.6804
   4637975.71946   3629688.65244  24109025.2504                   24109027.0704
  -5087706.67646  -3952558.81644  23567143.7424                   23567143.0514
 -23526110.74648 -18318507.25046  21412441.0084                   21412438.9344
 -11900345.31646  -9261606.79744  23804299.7584                   23804301.0274
 -18504575.27048 -14407474.44546  20797213.9304                   20797211.1454
  -9122749.82447  -7092840.34846  22123630.7974                   22123628.8444
 -15468182.75048 -12037858.84446  21333954.2974                   21333951.5394
 11  7 25  2  4  0.0000000  0  9G02G17G25G09G04G27G10G05G12
 -23802723.54348 -18535136.43747  20465624.3054                   20465619.7274
 -23606318.65247 -18382029.79745  23056538.7034                   23056536.9494
   4507713.54747   3528185.73444  24084237.8594                   24084238.4494
  -5037668.53546  -3913568.14844  23576665.2424                   23576664.3484
 -23481505.18448 -18283749.66046  21420929.1094                   21420926.6684
 -11865754.35546  -9234652.89144  23810882.7424                   23810884.1134
 -18544804.62948 -14438821.97346  20789558.5944                   20789555.6484
  -9246747.02347  -7189461.46146  22100034.6414                   22100032.1094
 -15557588.25448 -12107525.44146  21316940.9614                   21316938.1954
 11  7 25  2  4 30.0000000  0  9G02G17G25G09G04G27G10G05G12
 -23836016.03148 -18561078.62947  20459289.0864                   20459284.3874
 -23580994.53146 -18362296.71145  23061357.5634                   23061355.9774
   4377634.69947   3426825.64544  24059484.4774                   24059484.5084
  -4987438.69946  -3874428.12944  23586224.0084                   23586222.8404
 -23436713.81648 -18248847.27746  21429452.1484                   21429450.1174
 -11831069.75846  -9207626.02744  23817483.0554                   23817484.1764
 -18584390.41448 -14469668.02046  20782025.6254                   20782022.4224
  -9370455.19947  -7285857.35545  22076493.9844                   22076491.5864
 -15646546.98848 -12176843.90246  21300012.7894                   21300010.3364
 11  7 25  2  5  0.0000000  0  9G02G17G25G09G04G27G10G05G12
 -23868989.47748 -18586772.21947  20453014.5944                   20453009.5004
 -23555502.65246 -18342432.92245  23066208.5704                   23066206.7074
   4247739.52347   3325608.68444  24034766.0784                   24034765.6954
  -4937022.67647  -3835143.01644  23595817.7584                   23595817.5984
 -23391740.95348 -18213803.46946  21438010.8134                   21438008.1454
 -11796296.43746  -9180530.02744  23824101.1414                   23824101.9224
 -18623334.50448 -14500014.04746  20774614.5864                   20774612.1604
  -9493873.78147  -7382027.59846  22053007.8834                   22053005.8914
 -15735058.76248 -12245814.08246  21283169.4454                   21283166.5784
 11  7 25  2  5 30.0000000  0  9G02G17G25G09G04G27G10G05G12
 -23901641.50048 -18612215.34447  20446800.8984                   20446796.1884
 -23529839.26246 -18322435.47345  23071092.3364                   23071089.9224
   4118033.92646   3224539.48844  24010083.7194                   24010083.2234
  -4886420.59046  -3795712.90244  23605446.8284                   23605448.0944
 -23346585.29348 -18178617.23445  21446603.5084                   21446601.5124
 -11761433.78946  -9153364.42644  23830734.1484                   23830735.7664
 -18661632.87147 -14529856.91446  20767326.9534                   20767324.2274
  -9616996.85547  -7477967.58246  22029578.3204                   22029576.2114
 -15823117.73448 -12314431.42246  21266412.4384                   21266409.7074
 11  7 25  2  6  0.0000000  0  9G02G17G25G09G04G27G10G05G12
 -23933977.65248 -18637412.34447  20440647.5704                   20440642.5084
 -23504008.03146 -18302307.24245  23076007.6564                   23076005.6684
   3988516.23446   3123616.71944  23985436.5004                   23985437.8054
  -4835640.14546  -3756143.85944  23615110.4534                   23615111.7934
 -23301253.12548 -18143293.44946  21455229.8444                   21455227.8524
 -11726488.87946  -9126134.75043  23837384.5474                   23837385.9414
 -18699288.95747 -14559199.29346  20760161.1884                   20760158.4144
  -9739825.57847  -7573678.19945  22006204.9694                   22006202.7894
 -15910725.98448 -12382697.54346  21249740.5704                   21249738.3914
 11  7 25  2  6 30.0000000  0  9G02G17G25G09G04G27G10G05G12
 -23965995.78548 -18662361.52747  20434554.6414                   20434549.8324
 -23478005.23846 -18282045.30945  23080955.9224                   23080953.4844
   3859192.17647   3022844.83643  23960827.2894                   23960827.8594
  -4784681.94147  -3716436.28944  23624808.4224                   23624807.9184
 -23255743.50448 -18107831.40246  21463889.8834                   21463888.1844
 -11691461.46946  -9098840.77344  23844050.0784                   23844050.9844
 -18736299.46147 -14588038.62546  20753118.5394                   20753115.7344
  -9862354.13747  -7669154.92246  21982888.4534                   21982886.1414
 -15997878.33248 -12450608.41846  21233156.4384                   21233153.5984
 11  7 25  2  7  0.0000000  0  9G02G17G25G09G04G27G10G05G12
 -23997699.18448 -18687065.46547  20428521.8984                   20428516.6804
 -23451833.14146 -18261651.46145  23085936.5234                   23085933.9574
   3730061.94146   2922224.02043  23936254.1174                   23936255.0004
  -4733551.51647  -3676594.47344  23634538.8524                   23634537.5704
 -23210060.69548 -18072234.40245  21472582.8054                   21472581.1524
 -11656356.60546  -9071486.40643  23850730.0084                   23850730.6024
 -18772666.43047 -14616376.48446  20746197.8754                   20746195.2774
  -9984582.05547  -7764397.39146  21959629.0704                   21959626.8364
 -16084574.77048 -12518164.03146  21216658.6254                   21216655.9024
 11  7 25  2  7 30.0000000  0  9G02G17G25G09G04G27G10G05G12
 -24029087.36748 -18711523.77747  20422548.7504                   20422543.7624
 -23425489.44946 -18241123.89145  23090949.6414                   23090946.9064
   3601129.75047   2821757.47744  23911719.5554                   23911720.4224
  -4682250.59447  -3636619.80144  23644299.8674                   23644299.4184
 -23164205.21948 -18036502.86346  21481309.1564                   21481307.3404
 -11621175.30146  -9044072.49244  23857425.0234                   23857425.1254
 -18808387.09448 -14644210.75046  20739400.0314                   20739397.7464
 -10106504.34047  -7859401.70345  21936427.8754                   21936426.0204
 -16170811.38748 -12585361.35246  21200248.4774                   21200245.5744
 11  7 25  2  8  0.0000000  0  9G02G17G25G09G04G27G10G05G12
 -24060159.81248 -18735736.05547  20416635.8674                   20416630.7734
 -23398971.85546 -18220460.82845  23095995.4384                   23095993.0124
   3472399.97747   2721448.64844  23887223.3364                   23887223.3594
  -4630780.97747  -3596513.67643  23654093.4534                   23654093.5824
 -23118177.41848 -18000637.06245  21490068.1094                   21490065.8284
 -11585918.81246  -9016599.99244  23864135.1644                   23864135.1644
 -18843459.77048 -14671540.07846  20732726.0474                   20732723.2974
 -10228116.76247  -7954164.56246  21913286.0234                   21913283.7274
 -16256584.57448 -12652197.55546  21183926.1804                   21183923.3524
 11  7 25  2  8 30.0000000  0  9G02G17G25G09G04G27G10G05G12
 -24090921.09848 -18759705.86747  20410782.1954                   20410777.2464
 -23372284.14546 -18199665.21544  23101073.8054                   23101071.8014
   3343871.27747   2621296.51244  23862764.8204                   23862764.0984
  -4579150.13746  -3556281.93744  23663918.7034                   23663918.7384
 -23071983.07448 -17964641.48845  21498858.2194                   21498856.0554
 -11550593.72346  -8989074.02044  23870857.4064                   23870858.2074
 -18877887.63347 -14698366.96146  20726174.7424                   20726171.9694
 -10349420.32847  -8048686.75846  21890202.7344                   21890200.7074
 -16341895.67248 -12718673.69146  21167692.0314                   21167689.1844
 11  7 25  2  9  0.0000000  0  9G02G17G25G09G04G27G10G05G12
 -22545948.40648 -17555831.02347  20704780.6564                   20704775.9494
 -21770003.49646 -16951134.84045  23405977.4384                   23405975.9734
   4790973.65247   3748908.80944  24138139.7504                   24138138.2544
  -2951940.15647  -2288326.18744  23973567.1644                   23973567.3914
 -21450202.63348 -16700916.48845  21807472.8674                   21807470.5514
  -9939780.84046  -7733895.23043  24177384.2504                   24177386.2304
 -17336246.42647 -13497088.07046  21019539.5944                   21019536.6134
  -8894985.01647  -6915360.46946  22166972.4144                   22166970.4924
 -14851316.63348 -11557183.49246  21451339.8364                   21451337.0474
 11  7 25  2  9 30.0000000  0  9G02G17G25G09G04G27G10G05G12
 -22576088.37548 -17579316.69147  20699044.8594                   20699040.2624
 -21742971.23046 -16930070.74245  23411122.0004                   23411119.6684
   4662857.68447   3649078.22744  24113760.2424                   24113759.3524
  -2899994.06647  -2247848.76644  23983452.0084                   23983452.3094
 -21403678.60248 -16664664.01245  21816326.0784                   21816323.7854
  -9904324.03546  -7706266.64143  24184131.2894                   24184131.9574
 -17369381.14847 -13522907.30946  21013234.3364                   21013231.1484
  -9015659.61347  -7009392.55946  22144008.7344                   22144006.5664
 -14935694.15648 -11622932.17246  21435283.3674                   21435280.1764
 11  7 25  2 10  0.0000000  0  9G02G17G25G09G04G27G10G05G12
 -22605917.59048 -17602560.21547  20693368.8674                   20693363.8984
 -21715764.06246 -16908870.35544  23416299.3594                   23416296.7774
   4534953.93447   3549413.00044  24089421.0944                   24089420.6454
  -2847893.55147  -2207251.02344  23993367.1174                   23993366.9104
 -21356990.75448 -16628283.88745  21825210.5944                   21825208.2664
  -9868803.66446  -7678588.46143  24190891.2734                   24190890.3914
 -17401866.75847 -13548220.74246  21007052.3284                   21007049.3834
  -9136013.44147  -7103174.69146  22121105.9614                   22121103.7974
 -15019600.07848 -11688313.37146  21419316.4774                   21419313.5704
 11  7 25  2 10 30.0000000  0  9G02G17G25G09G04G27G10G05G12
 -22635437.84448 -17625562.97747  20687751.5004                   20687746.4064
 -21688382.64546 -16887534.18044  23421509.6724                   23421507.3754
   4407263.91447   3449914.31644  24065122.4694                   24065122.8164
  -2795643.19147  -2166536.50443  24003309.2664                   24003309.7114
 -21310142.29748 -16591778.62145  21834125.6024                   21834123.1724
  -9833223.53546  -7650863.75043  24197662.2424                   24197661.8134
 -17433704.36347 -13573029.24246  21000993.5704                   21000990.8244
  -9256044.77747  -7196705.53146  22098264.5944                   22098262.6564
 -15103033.29348 -11753326.23446  21403439.6804                   21403436.3954
 11  7 25  2 11  0.0000000  0  9G02G17G25G09G04G27G10G05G12
 -22664652.53147 -17648327.63747  20682191.9304                   20682187.0554
 -21660829.14547 -16866063.90245  23426752.9534                   23426751.4734
   4279788.05547   3350582.50444  24040864.3444                   24040864.9774
  -2743248.59446  -2125709.61344  24013279.6954                   24013280.3554
 -21263137.19548 -16555151.27745  21843070.7034                   21843068.2974
  -9797588.63746  -7623096.35244  24204442.3444                   24204444.3754
 -17464895.78147 -13597334.21546  20995058.2344                   20995055.1604
  -9375752.91047  -7289984.52746  22075485.2424                   22075482.7854
 -15185993.18048 -11817970.26646  21387653.0084                   21387649.9224
 11  7 25  2 11 30.0000000  0  9G02G17G25G09G04G27G10G05G12
 -22693561.85947 -17670854.34847  20676690.6094                   20676685.8674
 -21633101.80546 -16844458.16444  23432029.1804                   23432026.8524
   4152529.91047   3251420.34044  24016647.2664                   24016648.9144
  -2690712.13346  -2084772.19543  24023276.9064                   24023277.2584
 -21215976.71148 -16518402.88345  21852044.9924                   21852042.6214
  -9761900.71946  -7595287.70743  24211233.7034                   24211235.8364
 -17495439.69147 -13621134.63346  20989245.9064                   20989242.9694
  -9495133.86347  -7383008.58646  22052767.8524                   22052765.3594
 -15268477.32048 -11882243.59446  21371957.0234                   21371954.1524
 11  7 25  2 12  0.0000000  0  9G02G17G25G09G04G27G10G05G12
 -22722166.27748 -17693143.47347  20671247.1804                   20671242.5474
 -21605199.56646 -16822716.14844  23437339.2894                   23437336.7704
   4025492.91847   3152430.49644  23992472.5784                   23992474.5124
  -2638036.21546  -2043726.07444  24033301.2664                   24033301.1054
 -21168661.89548 -16481534.20745  21861048.0704                   21861046.7854
  -9726161.73846  -7567439.27743  24218035.5784                   24218036.2384
 -17525334.99647 -13644429.65246  20983556.8284                   20983553.8914
  -9614184.28147  -7475775.07446  22030113.1094                   22030110.6994
 -15350482.62948 -11946143.80146  21356351.4844                   21356348.6994
 11  7 25  2 12 30.0000000  0  9G02G17G25G09G04G27G10G05G12
 -22750467.55548 -17715196.37147  20665861.9384                   20665856.8324
 -21577122.78546 -16800838.12144  23442681.6334                   23442679.2544
   3898678.77747   3053614.29744  23968340.7504                   23968341.9024
  -2585225.18047  -2002574.68444  24043351.1564                   24043350.2814
 -21121195.43048 -16444547.37945  21870080.8204                   21870079.1134
  -9690375.40246  -7539553.89543  24224845.4064                   24224845.0634
 -17554582.68447 -13667220.03946  20977991.2664                   20977988.3554
  -9732902.39147  -7568282.62146  22007521.8984                   22007519.3984
 -15432007.81248 -12009669.88746  21340837.8284                   21340834.9884
 11  7 25  2 13  0.0000000  0  9G02G17G25G09G04G27G10G05G12
 -22778466.34848 -17737013.56247  20660534.0084                   20660528.8444
 -21548870.73046 -16778823.52744  23448057.8594                   23448055.5514
   3772090.69947   2954974.25044  23944252.0394                   23944252.9774
  -2532282.14147  -1961320.41443  24053425.6024                   24053425.4414
 -21073579.02748 -16407443.70345  21879142.0634                   21879140.4104
  -9654543.85246  -7511633.27343  24231662.9144                   24231664.1764
 -17583181.61348 -13689504.89846  20972549.3834                   20972546.2974
  -9851284.70747  -7660528.51646  21984993.6954                   21984991.6914
 -15513050.21148 -12072819.78946  21325416.1024                   21325412.9654
 11  7 25  2 13 30.0000000  0  9G02G17G25G09G04G27G10G05G12
 -22806164.06648 -17758596.16047  20655262.9064                   20655257.8404
 -21520443.39846 -16756672.35944  23453467.7814                   23453464.7114
   3645730.75847   2856511.93444  23920206.9774                   23920207.8134
  -2479211.10947  -1919966.43444  24063524.9694                   24063524.5744
 -21025815.00048 -16370224.98445  21888231.4304                   21888228.8874
  -9618670.42646  -7483680.04743  24238489.8834                   24238490.9344
 -17611132.86748 -13711285.07846  20967230.2814                   20967227.0084
  -9969328.92647  -7752510.94546  21962531.0164                   21962528.8444
 -15593608.41448 -12135592.39146  21310086.1254                   21310083.1914
 11  7 25  2 14  0.0000000  0  9G02G17G25G09G04G27G10G05G12
 -22833561.22348 -17779944.55547  20650049.5314                   20650044.6604
 -21491839.64146 -16734383.71144  23458910.4064                   23458908.3524
   3519602.55547   2758230.21144  23896205.3594                   23896206.5984
  -2426014.37147  -1878514.49244  24073647.6564                   24073648.3014
 -20977904.28148 -16332891.94545  21897348.6174                   21897346.4494
  -9582756.80946  -7455695.51243  24245325.2194                   24245325.5004
 -17638434.98848 -13732559.44546  20962034.8284                   20962031.7274
 -10087031.42247  -7844227.11346  21940133.0314                   21940130.6374
 -15673679.37548 -12197985.32846  21294849.1954                   21294846.3014
 11  7 25  2 14 30.0000000  0  9G02G17G25G09G04G27G10G05G12
 -22860661.27748 -17801061.44147  20644892.6884                   20644887.5634
 -21463061.24246 -16711958.97344  23464386.8524                   23464384.7034
   3393706.57047   2660129.45344  23872248.1414                   23872249.9414
  -2372697.37147  -1836968.84844  24083793.7664                   24083795.0234
 -20929851.06648 -16295447.88345  21906492.6484                   21906490.3794
  -9546808.04746  -7427683.57443  24252165.2034                   24252165.8324
 -17665090.28948 -13753329.78146  20956962.2734                   20956959.5164
 -10204391.43747  -7935676.41046  21917800.1644                   21917797.5044
 -15753263.25048 -12259998.71146  21279704.6414                   21279701.9494
 11  7 25  2 15  0.0000000  0  9G02G17G25G09G04G27G10G05G12
 -22887463.84048 -17821946.52047  20639792.0634                   20639787.0204
 -21434106.38346 -16689396.73844  23469897.3054                   23469894.2774
   3268046.64847   2562212.65244  23848336.0234                   23848337.2854
  -2319262.33247  -1795331.25444  24093962.3284                   24093963.3164
 -20881656.18748 -16257893.41045  21915663.8364                   21915661.2704
  -9510825.81646  -7399645.51243  24259011.8134                   24259012.9454
 -17691097.51647 -13773595.13746  20952012.9064                   20952010.2464
 -10321404.73447  -8026855.53546  21895533.2584                   21895530.9844
 -15832356.64848 -12321629.91046  21264653.6724                   21264651.0314
 11  7 25  2 15 30.0000000  0  9G02G17G25G09G04G27G10G05G12
 -22913968.05148 -17842599.12147  20634748.5944                   20634743.4224
 -21404972.68746 -16666695.14844  23475440.7584                   23475438.6054
   3142627.50447   2464483.45744  23824469.3754                   23824470.3524
  -2265710.33647  -1753602.51644  24104153.3754                   24104152.8834
 -20833319.27048 -16220228.25845  21924862.1644                   21924859.9614
  -9474810.66845  -7371581.87143  24265865.2424                   24265867.1024
 -17716454.55948 -13793353.85946  20947188.0704                   20947185.2734
 -10438066.80547  -8117760.98446  21873332.9304                   21873330.5274
 -15910955.48848 -12382875.73846  21249697.2034                   21249693.9694
 11  7 25  2 16  0.0000000  0  9G02G17G25G09G04G27G10G05G12
 -22940178.86747 -17863023.09847  20629761.0164                   20629755.8954
 -21375663.82446 -16643857.07844  23481018.1094                   23481016.1254
   3017447.73847   2366940.78944  23800648.5864                   23800648.3484
  -2212049.08247  -1711788.58244  24114365.6954                   24114363.3984
 -20784846.34047 -16182457.12145  21934086.2274                   21934083.9304
  -9438769.35246  -7343497.84043  24272724.6024                   24272725.4844
 -17741165.39147 -13812609.03546  20942485.9064                   20942482.9494
 -10554378.93447  -8208393.73846  21851199.4064                   21851197.0984
 -15989061.93048 -12443737.87946  21234834.0314                   21234830.4454
 11  7 25  2 16 30.0000000  0  9G02G17G25G09G04G27G10G05G12
 -22966094.24248 -17883216.86747  20624829.0474                   20624824.1564
 -21346176.05946 -16620879.59844  23486629.6564                   23486627.2234
   2892513.28947   2269589.32044  23776874.1094                   23776874.0664
  -2158278.74647  -1669889.64844  24124596.2734                   24124596.1254
 -20736236.03148 -16144578.94545  21943335.9224                   21943334.2734
  -9402701.42246  -7315393.03543  24279587.9694                   24279588.8594
 -17765226.66848 -13831358.07046  20937906.8834                   20937904.1524
 -10670334.99647  -8298749.04746  21829133.9534                   21829131.3554
 -16066670.52348 -12504212.09046  21220065.5634                   21220062.4534
 11  7 25  2 17  0.0000000  0  9G02G17G25G09G04G27G10G05G12
 -22991717.54348 -17903183.05147  20619953.2974                   20619948.1024
 -21316511.35246 -16597764.23044  23492274.4304                   23492272.4344
   2767824.58247   2172429.35944  23753146.5944                   23753147.5354
  -2104404.73046  -1627910.00043  24134847.3674                   24134849.5944
 -20687492.41048 -16106596.89145  21952611.8284                   21952609.6564
  -9366611.51245  -7287271.10543  24286455.0234                   24286455.4654
 -17788640.75448 -13849602.79746  20933451.3594                   20933448.2664
 -10785934.43047  -8388826.45746  21807135.8674                   21807133.4844
 -16143781.66448 -12564298.68446  21205391.4384                   21205388.2544
 11  7 25  2 17 30.0000000  0  9G02G17G25G09G04G27G10G05G12
 -23017050.72348 -17922923.16047  20615132.2114                   20615127.5634
 -21286670.16846 -16574511.34844  23497952.8834                   23497950.3794
   2643383.57847   2075462.44544  23729466.1094                   23729467.7544
  -2050431.10246  -1585852.77044  24145118.7424                   24145120.7814
 -20638617.89548 -16068512.85245  21961912.4774                   21961910.3054
  -9330503.18746  -7259134.78943  24293327.4774                   24293326.5744
 -17811408.77748 -13867344.09846  20929118.9384                   20929115.8484
 -10901175.27347  -8478624.46146  21785206.0474                   21785203.9574
 -16220394.03148 -12623996.61746  21190813.0084                   21190809.6484
 11  7 25  2 18  0.0000000  0  9G02G17G25G09G04G27G10G05G12
 -23042094.37148 -17942437.67246  20610366.7034                   20610361.5204
 -21256651.55546 -16551120.22344  23503665.1094                   23503662.8674
   2519193.48047   1978691.02744  23705833.5634                   23705835.2234
  -1996360.65646  -1543720.07044  24155409.2034                   24155409.3324
 -20589613.91848 -16030327.91845  21971237.2734                   21971235.2934
  -9294378.61346  -7230985.80543  24300201.9844                   24300202.2194
 -17833530.19548 -13884581.55146  20924909.0474                   20924906.4264
 -11016054.21148  -8568140.44946  21763345.0784                   21763342.8524
 -16296504.85248 -12683303.72346  21176329.1644                   21176326.3874
 11  7 25  2 18 30.0000000  0  9G02G17G25G09G04G27G10G05G12
 -23066847.61348 -17961725.89146  20605656.5234                   20605651.6764
 -21226453.23046 -16527589.05144  23509411.8364                   23509409.6954
   2395258.61747   1882118.50844  23682249.5234                   23682250.8014
  -1942195.09047  -1501513.17243  24165717.2424                   24165715.1294
 -20540480.77347 -15992042.32045  21980587.1954                   21980584.8754
  -9258238.76645  -7202824.97743  24307077.7274                   24307080.1764
 -17855003.59448 -13901314.04746  20920822.8054                   20920819.9184
 -11130566.70747  -8657370.90646  21741554.3984                   21741551.6764
 -16372110.89148 -12742217.49646  21161941.9224                   21161938.2584
 11  7 25  2 19  0.0000000  0  9G02G17G25G09G04G27G10G05G12
 -23091313.69548 -17980790.34447  20601000.5474                   20600995.5274
 -21196076.79746 -16503919.11344  23515192.5314                   23515189.7034
   2271579.90647   1785745.59844  23658713.9534                   23658714.9614
  -1887939.41046  -1459236.04743  24176040.9144                   24176040.4304
 -20491221.85947 -15953658.72345  21989960.7734                   21989959.0784
  -9222088.12945  -7174655.77743  24313957.0084                   24313960.0984
 -17875830.75848 -13917542.98046  20916859.7344                   20916857.0354
 -11244711.80147  -8746315.06246  21719832.9144                   21719831.0554
 -16447211.81648 -12800737.67646  21147650.7274                   21147647.7074
 11  7 25  2 19 30.0000000  0  9G02G17G25G09G04G27G10G05G12
 -23115493.07048 -17999631.39546  20596399.4774                   20596394.5394
 -21165521.46546 -16480109.75044  23521006.6094                   23521003.8914
   2148160.44547   1689574.71544  23635228.5394                   23635228.4694
  -1833596.39146  -1416890.96543  24186381.6414                   24186381.9924
 -20441838.63347 -15915178.25845  21999358.1724                   21999356.1294
  -9185929.23845  -7146480.14543  24320839.3834                   24320840.0234
 -17896011.58248 -13933268.28146  20913019.2814                   20913016.4304
 -11358486.50048  -8834970.60546  21698182.5474                   21698179.9844
 -16521805.05948 -12858862.25446  21133455.9304                   21133453.0274
 11  7 25  2 20  0.0000000  0  9G02G17G25G09G04G27G10G05G12
 -23139387.00048 -18018250.02747  20591852.6024                   20591847.5044
 -21134786.66046 -16456160.56644  23526855.6564                   23526853.6134
   2025002.91047   1593607.93844  23611791.5944                   23611792.1024
  -1779169.29746  -1374480.32443  24196738.5474                   24196740.4574
 -20392332.94147 -15876602.37145  22008778.7194                   22008776.6254
  -9149764.58246  -7118299.94143  24327721.8914                   24327721.1604
 -17915546.20348 -13948490.04346  20909301.7504                   20909299.0704
 -11471887.96547  -8923335.31246  21676602.9774                   21676600.2934
 -16595888.54748 -12916589.60946  21119358.3364                   21119355.4024
 11  7 25  2 20 30.0000000  0  9G02G17G25G09G04G27G10G05G12
 -23162996.10248 -18036646.71546  20587359.9694                   20587354.6804
 -21103871.80146 -16432071.05144  23532738.5234                   23532736.2664
   1902110.43847   1497847.69944  23588405.8054                   23588407.1564
  -1724660.96546  -1332006.35544  24207111.2504                   24207113.5274
 -20342706.03547 -15837932.04745  22018222.4454                   22018220.2154
  -9113596.20346  -7090116.82043  24334603.1644                   24334603.3284
 -17934434.41048 -13963208.11346  20905707.3914                   20905704.7274
 -11584913.15647  -9011406.84046  21655094.8134                   21655092.3404
 -16669460.51648 -12973918.39146  21105358.0944                   21105354.6954
 11  7 25  2 21  0.0000000  0  9G02G17G25G09G04G27G10G05G12
 -23186322.81647 -18054823.35947  20582920.9144                   20582915.8524
 -21072777.63746 -16407841.82444  23538655.4304                   23538653.3404
   1779484.50847   1402295.15644  23565070.8524                   23565071.8954
  -1670075.97746  -1289472.65244  24217499.2504                   24217499.8524
 -20292960.82447 -15799169.52745  22027688.8284                   22027686.4804
  -9077428.15245  -7061934.02043  24341484.6644                   24341486.5984
 -17952677.95748 -13977423.84846  20902235.9924                   20902233.0784
 -11697560.48847  -9099183.92246  21633658.6724                   21633656.1764
 -16742520.02048 -13030847.82446  21091455.2664                   21091452.3554
 11  7 25  2 21 30.0000000  0  9G02G17G25G09G04G27G10G05G12
 -23209367.57048 -18072780.30546  20578535.4224                   20578530.5944
 -21041503.19946 -16383472.14844  23544607.0704                   23544604.7344
   1657128.37547   1306952.85544  23541787.7894                   23541788.2584
  -1615417.18746  -1246881.46543  24227900.2194                   24227900.5164
 -20243098.57847 -15760315.82445  22037177.5784                   22037174.7734
  -9041262.38746  -7033753.04343  24348368.8204                   24348369.5004
 -17970276.46548 -13991136.97346  20898887.2194                   20898884.3984
 -11809826.62147  -9186663.96946  21612295.1174                   21612292.7274
 -16815064.42648 -13087375.89146  21077650.7734                   21077647.7194
 11  7 25  2 22  0.0000000  0  9G02G17G25G09G04G27G10G05G12
 -23232131.35948 -18090518.30947  20574203.7664                   20574198.8984
 -21010048.03546 -16358961.62144  23550592.3594                   23550590.3674
   1535044.90647   1211823.01244  23518555.7664                   23518555.9964
  -1560687.59847  -1204235.10244  24238316.0234                   24238315.2664
 -20193120.94147 -15721372.19945  22046687.5474                   22046685.8404
  -9005101.52346  -7005575.83644  24355249.8674                   24355251.4774
 -17987229.97348 -14004347.48446  20895660.6254                   20895657.9964
 -11921708.62947  -9273844.69546  21591004.6724                   21591002.2734
 -16887092.15248 -13143501.34846  21063943.9924                   21063940.7774
 11  7 25  2 22 30.0000000  0  9G02G17G25G09G04G27G10G05G12
 -23254614.01248 -18108037.25446  20569925.5394                   20569920.4064
 -20978410.40246 -16334308.92244  23556612.7114                   23556610.9734
   1413238.00447   1116908.67244  23495376.2584                   23495376.6174
  -1505888.99647  -1161534.90644  24248743.6334                   24248744.0274
 -20143028.12147 -15682338.81245  22056219.8834                   22056217.9774
  -8968946.89146  -6977403.50044  24362129.5554                   24362132.2624
 -18003537.71948 -14017054.80546  20892557.6414                   20892554.7114
 -12033202.75447  -9360723.18746  21569788.1884                   21569785.9224
 -16958599.81648 -13199221.55946  21050336.5864                   21050333.3014
 11  7 25  2 23  0.0000000  0  9G02G17G25G09G04G27G10G05G12
 -23276817.77048 -18125338.85947  20565700.2424                   20565694.6724
 -20946591.78546 -16309515.17644  23562667.5474                   23562665.5004
   1291708.88347   1022210.78544  23472250.2664                   23472250.2424
  -1451026.35947  -1118784.90644  24259182.5944                   24259184.3404
 -20092823.92247 -15643218.62545  22065773.3914                   22065771.2304
  -8932802.69946  -6949239.34443  24369007.0004                   24369009.6214
 -18019201.45348 -14029260.28946  20889576.8674                   20889573.9654
 -12144307.74647  -9447298.45346  21548645.4454                   21548643.1764
 -17029587.23448 -13254536.38346  21036828.1024                   21036825.0204
 11  7 25  2 23 30.0000000  0  9G02G17G25G09G04G27G10G05G12
 -23298744.10948 -18142424.30546  20561527.7274                   20561522.7384
 -20914591.26646 -16284579.69144  23568757.0084                   23568755.3754
   1170460.51647    927731.66445  23449177.8134                   23449177.6024
  -1396102.76247  -1075987.35944  24269634.1024                   24269635.8094
 -20042509.25447 -15604012.37945  22075348.0704                   22075345.8404
  -8896671.16046  -6921085.00843  24375883.4694                   24375884.1604
 -18034221.52748 -14040964.22346  20886718.7664                   20886715.5864
 -12255020.60948  -9533568.16446  21527577.7274                   21527575.3754
 -17100052.09848 -13309444.02046  21023418.9534                   21023415.7544
 11  7 25  2 24  0.0000000  0  9G02G17G25G09G04G27G10G05G12
 -23320394.12548 -18159294.43047  20557408.0554                   20557402.7664
 -20882408.66046 -16259502.30144  23574881.2814                   23574879.6414
   1049495.33647    833473.19544  23426158.1564                   23426158.8634
  -1341121.69547  -1033145.04744  24280097.4774                   24280097.4534
 -19992086.30947 -15564721.75845  22084943.4224                   22084940.8954
  -8860555.10946  -6892942.69143  24382756.7194                   24382755.8094
 -18048598.60248 -14052167.12146  20883982.9774                   20883980.0234
 -12365338.84047  -9619530.37946  21506584.6564                   21506582.1334
 -17169992.78548 -13363943.21546  21010109.7274                   21010106.4384
 11  7 25  2 24 30.0000000  0  9G02G17G25G09G04G27G10G05G12
 -23341772.67648 -18175953.03147  20553339.7664                   20553334.4454
 -20850047.35946 -16234285.68044  23581039.9774                   23581037.5124
    928812.45347    739434.68044  23403192.7894                   23403193.0634
  -1286089.93446   -990263.21944  24290569.6094                   24290569.9924
 -19941560.22747 -15525350.78545  22094557.8834                   22094556.0044
  -8824460.91446  -6864817.45343  24389623.8984                   24389625.6174
 -18062336.84048 -14062872.21546  20881368.4534                   20881365.5904
 -12475263.57047  -9705185.96546  21485666.5554                   21485664.0514
 -17239410.83248 -13418035.15246  20996899.6724                   20996896.7154
 11  7 25  2 25  0.0000000  0  9G02G17G25G09G04G27G10G05G12
 -23362877.96148 -18192398.68746  20549323.2734                   20549318.5634
 -20817504.64847 -16208927.71144  23587232.8364                   23587229.7624
    808417.35547    645620.41844  23380282.0474                   23380282.5904
  -1231007.86746   -947342.18743  24301050.8284                   24301052.5864
 -19890930.18047 -15485898.81245  22104192.5554                   22104190.6604
  -8788388.34445  -6836709.09843  24396488.8134                   24396490.9184
 -18075433.69148 -14073077.53146  20878876.5004                   20878873.3444
 -12584789.47747  -9790530.77746  21464824.3364                   21464821.6844
 -17308302.65248 -13471717.04746  20983790.1414                   20983786.9144
 11  7 25  2 25 30.0000000  0  9G02G17G25G09G04G27G10G05G12
 -23383710.76648 -18208632.02347  20545358.9844                   20545353.9534
 -20784779.66046 -16183427.68444  23593459.4844                   23593457.1564
    688313.03547    552032.71544  23357427.2194                   23357426.8594
  -1175878.10547   -904383.98444  24311542.5004                   24311543.4734
 -19840197.24647 -15446366.66445  22113846.6564                   22113844.4844
  -8752339.83246  -6808619.48843  24403349.9144                   24403351.6524
 -18087889.91048 -14082783.66046  20876506.0084                   20876502.9964
 -12693913.71947  -9875562.60546  21444058.6484                   21444055.9884
 -17376665.66048 -13524986.88346  20970781.0394                   20970777.6604
 11  7 25  2 26  0.0000000  0  9G02G17G25G09G04G27G10G05G12
 -23404270.42648 -18224652.52046  20541446.7814                   20541441.7194
 -20751869.92646 -16157783.69944  23599722.0554                   23599719.5634
    568503.96947    458675.05944  23334628.1644                   23334627.5634
  -1120702.35947   -861389.96143  24322041.0704                   24322043.7274
 -19789361.70347 -15406754.55945  22123520.4064                   22123518.2894
  -8716316.27746  -6780549.27043  24410205.0864                   24410206.3794
 -18099703.96148 -14091989.39846  20874257.8524                   20874254.8204
 -12802631.17248  -9960277.45346  21423370.2974                   21423367.8634
 -17444496.33648 -13577841.91846  20957873.2974                   20957870.1054
 11  7 25  2 26 30.0000000  0  9G02G17G25G09G04G27G10G05G12
 -23424560.18448 -18240462.69947  20537585.6334                   20537580.7504
 -20718777.34846 -16131997.26244  23606019.6724                   23606017.2194
    448990.75047    365547.91444  23311885.6414                   23311885.7344
  -1065486.06646   -818364.35243  24332549.6414                   24332550.7894
 -19738426.93047 -15367065.12545  22133212.8054                   22133210.5394
  -8680322.05546  -6752501.90643  24417053.6024                   24417054.2154
 -18110878.69948 -14100696.96946  20872131.0474                   20872128.3244
 -12910941.76648 -10044675.27346  21402759.6724                   21402756.9844
 -17511794.90648 -13630282.33646  20945066.5704                   20945063.9104
 11  7 25  2 27  0.0000000  0  9G02G17G25G09G04G27G10G05G12
 -23444579.80548 -18256062.37947  20533776.3524                   20533771.1484
 -20685500.53146 -16106067.25044  23612351.1954                   23612348.4224
    329777.53947    272654.54745  23289200.4384                   23289200.8404
  -1010230.79346   -775308.37943  24343062.6564                   24343064.7424
 -19687393.28147 -15327298.63745  22142924.4924                   22142922.1454
  -8644358.39845  -6724478.36742  24423895.9694                   24423897.3054
 -18121413.30548 -14108905.73846  20870126.6334                   20870123.7114
 -13018841.64848 -10128753.05946  21382226.9224                   21382224.2894
 -17578558.31648 -13682305.74646  20932362.3364                   20932359.1604
 11  7 25  2 27 30.0000000  0  9G02G17G25G09G04G27G10G05G12
 -23464329.48448 -18271451.71947  20530017.9534                   20530012.8874
 -20652037.85546 -16079992.43044  23618719.1804                   23618716.6764
    210867.94947    179997.78145  23266572.2894                   23266573.9734
   -954938.68446   -732223.68043  24353585.5864                   24353585.7114
 -19636261.46147 -15287455.66445  22152654.2974                   22152652.2704
  -8608426.91445  -6696479.95742  24430734.3204                   24430735.4304
 -18131307.27348 -14116615.28946  20868243.8674                   20868240.8914
 -13126327.16448 -10212507.94946  21361772.9694                   21361770.3284
 -17644784.16048 -13733910.26646  20919759.7664                   20919756.1724
 11  7 25  2 28  0.0000000  0  8G02G17G25G09G04G10G05G12
 -23483811.20348 -18286632.25446  20526310.4924                   20526305.3914
 -20618390.30946 -16053773.55144  23625122.3284                   23625119.7114
     92263.76647     87578.98845  23244002.6564                   23244004.4344
   -899613.80546   -689113.49643  24364113.8834                   24364113.0474
 -19585033.87947 -15247538.07445  22162403.0554                   22162400.6024
 -18140562.27348 -14123826.95746  20866482.8594                   20866479.7664
 -13233396.71148 -10295938.72746  21341398.2034                   21341395.5784
 -17710471.53548 -13785095.20746  20907259.7194                   20907256.6054
 11  7 25  2 28 30.0000000  0  8G02G17G25G09G04G10G05G12
 -23503027.60248 -18301606.03947  20522653.6254                   20522648.8554
 -20584558.80546 -16027411.34044  23631560.1024                   23631557.5744
    -26033.83647     -4600.92644  23221491.1484                   23221492.4494
   -844260.93746   -645981.48443  24374647.7894                   24374647.6914
 -19533713.87147 -15207548.46145  22172168.6644                   22172166.6094
 -18149180.72348 -14130542.60546  20864842.5784                   20864839.7424
 -13340049.05548 -10379044.39546  21321102.9384                   21321100.5004
 -17775619.80548 -13835860.06646  20894862.7504                   20894859.3524
 11  7 25  2 29  0.0000000  0  8G02G17G25G09G04G10G05G12
 -23521970.10948 -18316366.41847  20519049.3134                   20519043.8094
 -20550533.32846 -16000897.98844  23638034.8054                   23638032.0084
   -144012.24247    -96532.11744  23199040.6414                   23199041.8204
   -788873.50046   -602822.55143  24385188.1024                   24385188.8754
 -19482292.99647 -15167480.25845  22181953.3284                   22181951.8364
 -18157153.61748 -14136755.23846  20863325.2894                   20863322.5234
 -13446271.78948 -10461815.32446  21300889.5084                   21300886.8984
 -17840218.27348 -13886196.51246  20882569.6334                   20882566.5204
 11  7 25  2 29 30.0000000  0  8G02G17G25G09G04G10G05G12
 -23540637.59048 -18330912.48047  20515496.9144                   20515491.8404
 -20516311.50446 -15974231.62544  23644547.1884                   23644544.5124
   -261666.93747   -188211.07844  23176651.8054                   23176652.7584
   -733452.73046   -559637.61743  24395733.1564                   24395734.8244
 -19430771.09847 -15127333.30945  22191757.7274                   22191756.1414
 -18164479.60948 -14142463.77746  20861930.9924                   20861928.2234
 -13552060.76648 -10544248.24646  21280758.5314                   21280755.9614
 -17904263.23448 -13936101.64846  20870382.4614                   20870379.0984
 11  7 25  2 30  0.0000000  0  8G02G17G25G09G04G10G05G12
 -23559035.31248 -18345248.34046  20511995.9224                   20511990.7774
 -20481897.04346 -15947415.16844  23651095.9304                   23651094.2584
   -378999.07047   -279638.70345  23154324.7734                   23154325.2854
   -678005.40245   -516432.00843  24406283.8134                   24406286.0824
 -19379153.57447 -15087111.85545  22201580.4534                   22201578.5984
 -18171163.31648 -14147671.84046  20860659.1884                   20860656.4884
 -13657417.05948 -10626344.00846  21260709.6254                   21260707.0784
 -17967756.72748 -13985577.08246  20858299.7894                   20858296.8134
 11  7 25  2 30 30.0000000  0  8G02G17G25G09G04G10G05G12
 -23577164.15648 -18359374.68746  20508546.1724                   20508541.0164
 -20447289.71146 -15920448.40644  23657681.5864                   23657679.1134
   -496005.94547   -370812.89144  23132058.7504                   23132058.8674
   -622534.82446   -473208.32043  24416840.5474                   24416840.8914
 -19327442.03147 -15046817.15245  22211420.4304                   22211418.7154
 -18177205.57448 -14152380.07446  20859509.2114                   20859506.4924
 -13762338.35248 -10708100.81646  21240744.0704                   21240741.3834
 -18030697.40648 -14034621.74646  20846322.7734                   20846319.6644
 11  7 25  2 31  0.0000000  0  8G02G17G25G09G04G10G05G12
 -23595029.67648 -18373295.85547  20505146.5314                   20505141.6174
 -20412493.23846 -15893334.27044  23664303.8134                   23664300.4414
   -612688.97747   -461734.75845  23109854.5864                   23109854.4024
   -567048.30146   -429972.12543  24427400.0704                   24427398.5864
 -19275642.05547 -15006453.53545  22221278.1804                   22221275.8484
 -18182611.39148 -14156592.37546  20858480.5704                   20858477.9494
 -13866826.07448 -10789519.77346  21220860.4144                   21220857.7704
 -18093087.73448 -14083237.56646  20834450.4454                   20834446.9534
 11  7 25  2 31 30.0000000  0  8G02G17G25G09G04G10G05G12
 -23612633.19148 -18387012.86346  20501796.4534                   20501791.5004
 -20377507.89546 -15866072.96144  23670960.0394                   23670958.5044
   -729045.85247   -552402.44145  23087712.6094                   23087711.8094
   -511549.00846   -386725.98843  24437962.0164                   24437960.9104
 -19223755.57447 -14966022.52045  22231151.9384                   22231149.5744
 -18187382.16848 -14160309.84446  20857572.8364                   20857570.3204
 -13970878.01248 -10870599.16446  21201060.2894                   21201057.5554
 -18154926.46948 -14131423.57046  20822682.7584                   20822679.4494
 11  7 25  2 32  0.0000000  0  8G02G17G25G09G04G10G05G12
 -23629977.42248 -18400527.83247  20498495.9144                   20498490.9804
 -20342335.00846 -15838665.52044  23677654.3364                   23677651.2074
   -845075.45747   -642815.11344  23065632.8204                   23065631.9184
   -456042.06646   -343473.92644  24448523.5394                   24448524.0274
 -19171785.79347 -14925526.57045  22241041.4614                   22241039.2464
 -18191520.15248 -14163534.23046  20856785.1954                   20856782.6764
 -14074493.70348 -10951338.61746  21181342.6174                   21181340.0984
 -18216213.83248 -14179179.93446  20811020.0944                   20811016.6724
 11  7 25  2 32 30.0000000  0  8G02G17G25G09G04G10G05G12
 -23647062.82848 -18413841.11346  20495244.7424                   20495239.5744
 -20306973.67646 -15811111.21944  23684382.9694                   23684380.2734
   -960774.48847   -732970.19545  23043616.0314                   23043615.7544
   -400529.71146   -300217.66044  24459086.5634                   24459088.3714
 -19119733.69547 -14884966.47745  22250946.3834                   22250944.0124
 -18195025.72348 -14166265.83246  20856118.2194                   20856115.4304
 -14177669.71148 -11031735.46546  21161708.3834                   21161705.9534
 -18276947.74648 -14226505.03146  20799462.8134                   20799459.4064
 11  7 25  2 33  0.0000000  0  8G02G17G25G09G04G10G05G12
 -23663893.14548 -18426955.62147  20492041.9924                   20492036.9224
 -20271426.05546 -15783411.78144  23691147.4224                   23691145.1644
  -1076142.89147   -822867.60545  23021661.8754                   23021662.3594
   -345017.82446   -256961.77344  24469650.4384                   24469653.0044
 -19067603.18047 -14844345.28945  22260866.5864                   22260864.0744
 -18197902.69148 -14168507.60946  20855571.0634                   20855568.2854
 -14280406.09848 -11111789.74646  21142158.8594                   21142155.7934
 -18337129.45348 -14273399.84446  20788010.7114                   20788007.1564
 11  7 25  2 33 30.0000000  0  8G02G17G25G09G04G10G05G12
 -23680471.43448 -18439873.75446  20488887.3134                   20488882.1414
 -20235693.98446 -15755568.60944  23697946.9454                   23697944.8834
  -1191179.74647   -912506.63345  22999771.1644                   22999771.8594
   -289511.40646   -213710.14144  24480213.8284                   24480214.9454
 -19015397.72747 -14803665.70345  22270800.9454                   22270798.3204
 -18200153.74648 -14170261.68046  20855142.4694                   20855139.7734
 -14382702.09448 -11191500.87146  21122692.5164                   21122689.8364
 -18396759.05148 -14319864.43446  20776663.4304                   20776660.0594
 11  7 25  2 34  0.0000000  0  8G02G17G25G09G04G10G05G12
 -23696796.00848 -18452594.18446  20485780.9144                   20485775.5044
 -20199774.44546 -15727579.33644  23704782.6414                   23704779.8984
  -1305879.81647  -1001883.21145  22977944.8444                   22977945.3794
   -234010.61346   -170462.86344  24490775.3834                   24490776.5164
 -18963116.35547 -14762926.95745  22280749.4924                   22280747.3794
 -18201777.10248 -14171526.61746  20854833.6724                   20854831.0744
 -14484553.04348 -11270865.20346  21103310.6094                   21103308.2894
 -18455831.96148 -14365895.25046  20765422.1564                   20765419.1804
 11  7 25  2 34 30.0000000  0  8G02G17G25G09G04G10G05G12
 -23712869.18748 -18465118.73046  20482722.1094                   20482716.9924
 -20163668.06246 -15699444.49244  23711653.1884                   23711650.8054
  -1420241.39547  -1090996.01645  22956182.7194                   22956183.1214
   -178519.67246   -127223.25043  24501334.1564                   24501335.4064
 -18910761.35247 -14722130.84845  22290712.5474                   22290710.4734
 -18202774.91048 -14172304.12546  20854643.8984                   20854640.6644
 -14585957.67248 -11349881.75446  21084014.1024                   21084011.2304
 -18514348.68748 -14411492.66846  20754286.8444                   20754283.4024
 11  7 25  2 35  0.0000000  0  8G02G17G25G09G04G10G05G12
 -23728691.48048 -18477447.77746  20479711.3834                   20479706.2464
 -20127374.25846 -15671163.59844  23718559.3914                   23718557.3014
  -1534261.13747  -1179842.44945  22934485.4224                   22934485.9804
   -123040.87946    -83993.09843  24511891.9304                   24511890.9844
 -18858333.57847 -14681278.03145  22300688.8204                   22300686.8404
 -18203147.60248 -14172594.52346  20854573.0784                   20854569.9024
 -14686912.71948 -11428547.98846  21064802.7114                   21064800.0704
 -18572307.09447 -14456655.03546  20743257.8674                   20743254.4804
 11  7 25  2 35 30.0000000  0  8G02G17G25G09G04G10G05G12
 -22168844.58248 -17261982.64547  20776540.2734                   20776535.1954
 -18515475.28546 -14415138.42644  24025293.5394                   24025291.4344
    -72513.90647    -40818.51645  23212646.6724                   23212647.1334
   1507839.69946   1186822.87543  24822237.5634                   24822237.6684
 -17230417.43047 -13412771.93445  22610471.1174                   22610469.2234
 -16627477.79348 -12944799.85546  21154412.8134                   21154409.7934
 -13211993.59048 -10279260.30546  21345470.6884                   21345468.1134
 -17054284.83248 -13273780.51646  21032127.7584                   21032124.4144
 11  7 25  2 36  0.0000000  0  8G02G17G25G09G04G10G05G12
 -22184169.23048 -17273923.91047  20773623.8524                   20773618.9184
 -18478806.91447 -14386565.67644  24032270.8054                   24032269.6094
   -185843.21947   -129126.95745  23191080.4924                   23191081.2274
   1563284.19546   1230026.27343  24832788.9534                   24832790.2934
 -17177849.57047 -13371809.97345  22620474.6094                   22620472.7234
 -16626604.93447 -12944119.69146  21154578.6724                   21154575.9494
 -13312043.30148 -10357221.06646  21326431.9614                   21326429.0354
 -17111122.94148 -13318069.93446  21021311.7664                   21021308.6844
 11  7 25  2 36 30.0000000  0  8G02G17G25G09G04G10G05G12
 -22199247.71548 -17285673.35947  20770754.4224                   20770749.6764
 -18441951.80547 -14357847.40244  24039284.3984                   24039282.3874
   -298824.42647   -217164.12945  23169580.5394                   23169581.3954
   1618705.61746   1273211.65244  24843336.1724                   24843338.2424
 -17125215.02347 -13330796.02745  22630490.7504                   22630488.8364
 -16625111.87947 -12942956.26646  21154862.9924                   21154860.1174
 -13411638.26248 -10434827.49646  21307479.2894                   21307476.7274
 -17167399.87548 -13361922.06246  21010602.5394                   21010599.0664
 11  7 25  2 37  0.0000000  0  8G02G17G25G09G04G10G05G12
 -22214080.40648 -17297231.27347  20767932.0474                   20767927.0904
 -18404909.03146 -14328982.89544  24046333.6484                   24046331.6804
   -411453.91447   -304927.25845  23148147.5394                   23148147.7464
   1674101.99246   1316377.56343  24853877.6644                   24853880.4024
 -17072514.12147 -13289730.36745  22640518.8364                   22640517.4344
 -16622998.69547 -12941309.61746  21155264.8204                   21155261.7664
 -13510774.87948 -10512076.76246  21288614.7114                   21288611.2934
 -17223113.66848 -13405335.37546  21000000.8984                   20999997.4964
 11  7 25  2 37 30.0000000  0  8G02G17G25G09G04G10G05G12
 -22228669.63748 -17308599.49247  20765155.6414                   20765150.4804
 -18367679.75446 -14299973.03944  24053418.1564                   24053416.0474
   -523730.41447   -392415.32044  23126781.4694                   23126782.1644
   1729468.96946   1359520.55943  24864413.1484                   24864415.5314
 -17019749.88347 -13248615.37145  22650560.0944                   22650557.7034
 -16620268.13747 -12939181.89146  21155784.7114                   21155781.5514
 -13609451.87548 -10588967.88346  21269836.8204                   21269834.1374
 -17278264.43048 -13448309.97346  20989505.4534                   20989502.5744
 11  7 25  2 38  0.0000000  0  8G02G17G25G09G04G10G05G12
 -22243015.43048 -17319778.00847  20762425.7424                   20762420.8794
 -18330262.71146 -14270816.91044  24060538.7114                   24060536.1174
   -635650.15247   -479625.37545  23105483.5944                   23105484.3094
   1784804.60546   1402639.13743  24874941.9924                   24874943.6724
 -16966922.56647 -13207451.21944  22660612.7274                   22660610.2814
 -16616920.55148 -12936573.38346  21156421.7194                   21156418.5984
 -13707666.07048 -10665498.38346  21251147.0704                   21251144.4454
 -17332849.48448 -13490843.75846  20979118.6724                   20979115.2234
 11  7 25  2 38 30.0000000  0  8G02G17G25G09G04G10G05G12
 -22257119.48048 -17330768.16047  20759742.0474                   20759737.0904
 -18292658.01246 -14241514.52344  24067694.4064                   24067691.9224
   -747210.84847   -566555.67645  23084254.6334                   23084254.6954
   1840105.46846   1445730.70743  24885466.2584                   24885464.2664
 -16914033.77747 -13166239.17245  22670677.0164                   22670674.2304
 -16612957.34448 -12933485.16446  21157175.7814                   21157172.7974
 -13805415.75048 -10741666.92246  21232545.8754                   21232543.4184
 -17386868.02748 -13532936.10946  20968839.1724                   20968835.6884
 11  7 25  2 39  0.0000000  0  8G02G17G25G09G04G10G05G12
 -22270981.78148 -17341569.93446  20757104.1804                   20757098.9844
 -18254864.66046 -14212065.12944  24074886.2814                   24074883.8754
   -858409.21147   -653203.64545  23063093.7584                   23063094.4264
   1895369.46146   1488793.46543  24895983.0704                   24895984.2584
 -16861084.29747 -13124979.82445  22680752.7894                   22680750.1954
 -16608379.20348 -12929917.77746  21158046.8284                   21158044.0204
 -13902697.78148 -10817471.05946  21214033.6174                   21214030.8284
 -17440318.43748 -13574585.75846  20958667.9534                   20958664.4534
 11  7 25  2 39 30.0000000  0  8G02G17G25G09G04G10G05G12
 -22284607.62148 -17352187.44147  20754511.5004                   20754505.8874
 -18216886.68046 -14182471.87544  24082113.1724                   24082110.1954
   -969246.59047   -739570.32445  23042002.8284                   23042002.6724
   1950589.37546   1531821.86743  24906491.4614                   24906494.4924
 -16808079.60247 -13083677.45345  22690839.4304                   22690837.0204
 -16603191.39847 -12925875.32046  21159034.5474                   21159031.5664
 -13999513.81248 -10892912.08246  21195610.3594                   21195607.5164
 -17493203.23048 -13615794.66046  20948604.3754                   20948600.9804
 11  7 25  2 40  0.0000000  0  8G02G17G25G09G04G10G05G12
 -22297994.18748 -17362618.51246  20751963.8204                   20751958.6914
 -18178719.90246 -14152731.52344  24089375.9144                   24089374.1254
  -1079716.44547   -825650.64545  23020980.9694                   23020980.9694
   2005766.33646   1574816.78543  24916990.9144                   24916995.3404
 -16755016.95347 -13042329.93045  22700936.6644                   22700934.4414
 -16597391.21547 -12921355.68046  21160137.9534                   21160135.0274
 -14095857.66448 -10967985.17246  21177276.6884                   21177273.6294
 -17545517.45348 -13656558.97746  20938649.0944                   20938646.0984
 11  7 25  2 40 30.0000000  0  8G02G17G25G09G04G10G05G12
 -22311142.28948 -17372863.76246  20749461.8364                   20749456.6174
 -18140363.68446 -14122843.52344  24096674.9384                   24096672.8754
  -1189815.70747   -911442.20345  23000029.8754                   23000029.3794
   2060898.10545   1617776.45743  24927481.3984                   24927484.8634
 -16701897.59847 -13000938.23045  22711045.3834                   22711043.2544
 -16590979.62947 -12916359.63746  21161358.1724                   21161355.2704
 -14191726.77748 -11042688.34046  21159033.0784                   21159030.3594
 -17597259.10948 -13696877.12946  20928802.9064                   20928799.7274
 11  7 25  2 41  0.0000000  0  8G02G17G25G09G04G10G05G12
 -22324055.41448 -17382925.91846  20747004.5784                   20746999.3054
 -18101820.68046 -14092809.99644  24104009.9144                   24104007.3484
  -1299544.31647   -996944.93745  22979149.5234                   22979148.5944
   2115978.73046   1660696.35243  24937963.9384                   24937962.5664
 -16648725.07447 -12959505.09445  22721163.6174                   22721161.0314
 -16583960.65647 -12910890.29746  21162693.7194                   21162690.9184
 -14287121.58648 -11117021.92246  21140880.2734                   21140877.4614
 -17648430.17648 -13736750.67246  20919065.5004                   20919062.2304
 11  7 25  2 41 30.0000000  0  7G02G17G25G04G10G05G12
 -22336735.74648 -17392806.67246  20744591.3594                   20744586.2034
 -18063091.43446 -14062631.34444  24111379.0164                   24111376.4344
  -1408900.63347  -1082157.60245  22958339.4774                   22958338.6254
 -16595501.93747 -12918032.52045  22731291.7424                   22731289.3444
 -16576336.56247 -12904949.43746  21164144.6254                   21164141.5124
 -14382040.71948 -11190984.84846  21122817.9774                   21122814.7584
 -17699030.12547 -13776179.18746  20909436.8284                   20909433.3754
 11  7 25  2 42  0.0000000  0  7G02G17G25G04G10G05G12
 -22349181.13348 -17402504.35547  20742223.4224                   20742218.2384
 -18024172.35946 -14032304.79344  24118785.5474                   24118783.1294
  -1517878.77747  -1167075.58645  22937601.3594                   22937601.2814
 -16542226.07047 -12876518.84445  22741430.0944                   22741427.5944
 -16568105.55547 -12898535.65246  21165710.9224                   21165708.2034
 -14476478.70748 -11264572.84846  21104846.5554                   21104843.9064
 -17749054.77747 -13815159.42246  20899917.2584                   20899914.1054
 11  7 25  2 42 30.0000000  0  7G02G17G25G04G10G05G12
 -22361385.53148 -17412014.25846  20739900.7274                   20739895.4104
 -17985056.63346 -14001825.00844  24126228.8134                   24126225.8674
  -1626469.19147  -1251691.44945  22916937.3364                   22916937.3634
 -16488892.05147 -12834959.87545  22751578.7274                   22751576.2974
 -16559261.90647 -12891644.48446  21167393.4844                   21167390.8134
 -14570426.56648 -11337778.94946  21086968.9534                   21086966.1604
 -17798496.15247 -13853685.14847  20890508.8834                   20890505.7194
 11  7 25  2 43  0.0000000  0  7G02G17G25G04G10G05G12
 -22373346.04748 -17421334.11346  20737624.6334                   20737619.3404
 -17945740.17246 -13971188.78944  24133710.5394                   24133708.1954
  -1734665.18047  -1335999.97745  22896348.2664                   22896348.2734
 -16435496.99647 -12793353.34844  22761739.1804                   22761737.2734
 -16549803.19547 -12884274.05546  21169193.9774                   21169190.5004
 -14663877.89548 -11410598.12546  21069185.5784                   21069183.1294
 -17847348.78947 -13891752.11746  20881212.8284                   20881209.2734
 11  7 25  2 43 30.0000000  0  7G02G17G25G04G10G05G12
 -22385065.95348 -17430466.49247  20735394.3444                   20735389.3014
 -17906224.75046 -13940397.57844  24141229.3984                   24141227.2384
  -1842466.27347  -1420000.78145  22875834.5004                   22875834.7894
 -16382044.43747 -12751702.01244  22771910.9924                   22771909.1294
 -16539733.00447 -12876427.13746  21171109.9224                   21171106.7624
 -14756832.66448 -11483030.37546  21051497.0944                   21051494.2274
 -17895614.01248 -13929361.37146  20872028.1564                   20872024.6054
 11  7 25  2 44  0.0000000  0  7G02G17G25G04G10G05G12
 -22396549.67248 -17439414.81246  20733209.0634                   20733204.0274
 -17866513.78546 -13909453.97344  24148787.0234                   24148784.5944
  -1949873.24247  -1503694.48845  22855395.2584                   22855395.5594
 -16328538.84847 -12710009.34444  22782093.1484                   22782090.7974
 -16529055.99247 -12868107.36746  21173141.8594                   21173139.0944
 -14849292.21548 -11555076.74246  21033902.6024                   21033899.5354
 -17943294.28548 -13966514.81646  20862955.0164                   20862951.1914
 11  7 25  2 44 30.0000000  0  7G02G17G25G04G10G05G12
 -22407802.35248 -17448183.11746  20731067.8834                   20731062.6334
 -17826611.09446 -13878360.98043  24156380.1174                   24156377.6174
  -2056887.66847  -1587082.30945  22835031.7114                   22835031.4694
 -16274985.66847 -12668279.59444  22792283.6884                   22792281.4454
 -16517778.13347 -12859319.41846  21175287.7664                   21175284.6334
 -14941258.31248 -11626738.59846  21016402.2114                   21016399.4654
 -17990392.56247 -14003214.75446  20853992.0784                   20853988.8874
 11  7 25  2 45  0.0000000  0  7G02G17G25G04G10G05G12
 -22418824.91448 -17456772.10546  20728970.2504                   20728964.9144
 -17786516.61746 -13847118.56643  24164010.0704                   24164007.2544
  -2163506.72347  -1670162.04745  22814741.9384                   22814742.8484
 -16221385.97747 -12626513.59044  22802483.8134                   22802481.6644
 -16505900.65247 -12850064.21946  21177548.2814                   21177544.9734
 -15032728.75448 -11698014.22346  20998995.7504                   20998992.8054
 -18036907.82447 -14039460.39146  20845140.2894                   20845136.9304
 11  7 25  2 45 30.0000000  0  7G02G17G25G04G10G05G12
 -22429620.46148 -17465184.19946  20726915.8984                   20726910.9344
 -17746232.28146 -13815728.16443  24171675.7194                   24171672.8914
  -2269730.00447  -1752933.37945  22794528.4064                   22794529.2344
 -16167743.29747 -12584714.10944  22812691.5084                   22812688.9344
 -16493427.27347 -12840344.68746  21179921.7424                   21179919.0634
 -15123703.92248 -11768903.92646  20981684.0004                   20981680.6954
 -18082841.30547 -14075252.69946  20836399.6644                   20836396.0474
 11  7 25  2 46  0.0000000  0  7G02G17G25G04G10G05G12
 -22440189.38748 -17473419.71546  20724904.6954                   20724899.5594
 -17705757.38346 -13784189.30143  24179377.8054                   24179375.5044
  -2375554.45747  -1835393.95345  22774390.9924                   22774391.1484
 -16114058.28147 -12542881.61344  22822907.7194                   22822905.2154
 -16480358.90247 -12830161.52046  21182408.3204                   21182405.6994
 -15214180.94548 -11839405.47746  20964466.6644                   20964463.5514
 -18128191.48047 -14110590.48846  20827769.8054                   20827766.4844
 11  7 25  2 46 30.0000000  0  7G02G17G25G04G10G05G12
 -22450534.72748 -17481481.00446  20722935.9614                   20722930.7034
 -17665093.17646 -13752502.91043  24187115.4144                   24187113.2974
  -2480979.05547  -1917542.94145  22754328.7584                   22754329.1604
 -16060333.46147 -12501018.12944  22833130.5474                   22833128.8094
 -16466698.95347 -12819517.38746  21185008.0554                   21185004.9454
 -15304159.53548 -11909518.62546  20947344.1724                   20947341.1334
 -18172958.93747 -14145474.20347  20819251.0004                   20819247.4614
 11  7 25  2 47  0.0000000  0  7G02G17G25G04G10G05G12
 -22460656.53948 -17489368.11346  20721009.8914                   20721004.3364
 -17624239.20347 -13720668.65243  24194889.9774                   24194887.6804
  -2586000.45747  -1999377.75045  22734344.2424                   22734344.3204
 -16006569.53147 -12459124.15644  22843361.6094                   22843359.2664
 -16452448.27047 -12808412.94546  21187719.7734                   21187716.4844
 -15393636.89848 -11979241.20746  20930317.1484                   20930314.1604
 -18217141.66447 -14179902.27746  20810842.8984                   20810840.1374
 11  7 25  2 47 30.0000000  0  7G02G17G25G04G10G05G12
 -22470560.02348 -17497085.09846  20719125.3594                   20719120.0984
 -17583199.23447 -13688689.44143  24202699.7734                   24202696.9224
  -2690620.07847  -2080899.47745  22714435.6644                   22714435.1414
 -15952771.67647 -12417203.75844  22853599.0784                   22853596.4574
 -16437612.60247 -12796852.67246  21190542.6094                   21190539.4964
 -15482614.91448 -12048574.68746  20913385.2974                   20913382.1484
 -18260743.30548 -14213877.55546  20802546.1254                   20802542.5744
 11  7 25  2 48  0.0000000  0  7G02G17G25G04G10G05G12
 -22480244.36348 -17504631.32446  20717282.4694                   20717277.0664
 -17541971.55946 -13656563.94543  24210544.9924                   24210542.1994
  -2794833.67647  -2162104.84045  22694604.4454                   22694604.1024
 -15898939.34847 -12375256.47344  22863842.8444                   22863840.6644
 -16422191.81247 -12784836.46146  21193477.0634                   21193474.4184
 -15571089.94548 -12117516.23846  20896549.1644                   20896546.0314
 -18303761.45348 -14247398.18046  20794359.7274                   20794356.4924
 11  7 25  2 48 30.0000000  0  7G02G17G25G04G10G05G12
 -22489711.69148 -17512008.44146  20715480.7664                   20715475.6724
 -17500556.96147 -13624292.79743  24218426.4694                   24218423.3554
  -2898639.87947  -2242992.74645  22674850.9304                   22674849.9614
 -15845074.80547 -12333284.10544  22874093.0394                   22874090.6024
 -16406188.54347 -12772366.37146  21196522.5004                   21196519.6604
 -15659060.92248 -12186065.01646  20879808.2814                   20879805.1054
 -18346196.28148 -14280464.26246  20786285.0634                   20786281.4104
 11  7 25  2 49  0.0000000  0  7G02G17G25G04G10G05G12
 -22498962.91848 -17519217.16846  20713720.5004                   20713714.8284
 -17458955.27346 -13591875.89143  24226342.4694                   24226340.3554
  -3002035.87147  -2323561.00445  22655175.5784                   22655174.3134
 -15791179.03547 -12291287.37944  22884349.4614                   22884346.1914
 -16389604.61347 -12759443.81646  21199678.4384                   21199675.3984
 -15746525.77348 -12254219.41046  20863164.2894                   20863161.5784
 -18388046.65648 -14313074.93046  20778320.6644                   20778317.4104
 11  7 25  2 49 30.0000000  0  7G02G17G25G04G10G05G12
 -22508002.18048 -17526260.73446  20712000.1644                   20711995.3164
 -17417169.59846 -13559315.60943  24234294.2584                   24234291.6334
  -3105022.33647  -2403810.15245  22635577.3054                   22635576.6214
 -15737256.27047 -12249269.64844  22894610.6644                   22894608.0004
 -16372444.65647 -12746072.40646  21202943.5234                   21202940.8834
 -15833485.83248 -12321980.45346  20846616.4924                   20846613.5474
 -18429314.89148 -14345231.97746  20770467.8364                   20770464.3874
 11  7 25  2 50  0.0000000  0  7G02G17G25G04G10G05G12
 -22516828.77348 -17533138.58246  20710320.5234                   20710315.3484
 -17375198.39846 -13526610.75443  24242280.8444                   24242278.4534
  -3207594.95747  -2483736.81645  22616058.6484                   22616058.1334
 -15683305.88747 -12207230.38344  22904877.1094                   22904874.6764
 -16354708.77747 -12732252.23846  21206318.8054                   21206315.6294
 -15919937.46148 -12389345.32446  20830164.8054                   20830162.1094
 -18469998.66047 -14376933.60546  20762725.9614                   20762722.6564
 11  7 25  2 50 30.0000000  0  8G02G17G25G29G04G10G05G12
 -22525445.55148 -17539852.94146  20708681.0394                   20708675.7624
 -17333043.01646 -13493762.40643  24250302.7504                   24250300.5784
  -3309753.07047  -2563340.48445  22596618.2344                   22596617.9064
  10866791.81356   8480384.12553  24621821.3984                   24621819.8754
 -15629331.03147 -12165172.05544  22915147.8914                   22915145.5234
 -16336400.53947 -12717986.06246  21209802.4454                   21209799.9224
 -16005879.96148 -12456313.46546  20813810.9384                   20813808.0314
 -18510098.82448 -14408180.47346  20755095.3444                   20755091.6954
 11  7 25  2 51  0.0000000  0  8G02G17G25G29G04G10G05G12
 -22533858.33247 -17546408.33246  20707079.9614                   20707074.5784
 -17290708.28146 -13460774.32043  24258359.2114                   24258356.8594
  -3411498.98047  -2642622.94545  22577256.5944                   22577256.6804
  10757580.54746   8395284.53543  24601039.6724                   24601038.0554
 -15575337.42647 -12123099.10544  22925422.5314                   22925420.2234
 -16317526.59847 -12703279.09046  21213394.4534                   21213391.1414
 -16091316.78548 -12522887.56646  20797552.7344                   20797549.6414
 -18549619.62947 -14438975.88746  20747574.5634                   20747571.1214
 11  7 25  2 51 30.0000000  0  8G02G17G25G29G04G10G05G12
 -22542075.17648 -17552811.05946  20705516.5864                   20705510.8204
 -17248201.49246 -13427652.16043  24266447.4454                   24266445.5434
  -3512837.42647  -2721587.89545  22557972.4384                   22557972.2974
  10648295.60546   8310127.55543  24580242.9774                   24580241.8094
 -15521333.36747 -12081018.01644  22935699.1024                   22935696.9574
 -16298095.85947 -12688138.23846  21217091.6644                   21217088.7854
 -16176253.06648 -12589071.65246  20781389.9224                   20781386.9104
 -18588567.69548 -14469325.01646  20740163.0784                   20740159.4384
 11  7 25  2 52  0.0000000  0  8G02G17G25G29G04G10G05G12
 -22550091.91448 -17559057.84846  20703990.6884                   20703985.3284
 -17205517.27746 -13394391.77043  24274570.4224                   24274568.3754
  -3613760.48847  -2800229.16045  22538767.2504                   22538767.6174
  10538942.74246   8224917.66844  24559432.8134                   24559432.6764
 -15467314.78147 -12038925.61744  22945978.3364                   22945976.7854
 -16278104.72347 -12672560.71146  21220895.9774                   21220893.3244
 -16260681.98848 -12654860.38746  20765323.4384                   20765320.5274
 -18626937.04348 -14499223.19146  20732861.3524                   20732858.0864
 11  7 25  2 52 30.0000000  0  8G02G17G25G29G04G10G05G12
 -22557909.40648 -17565149.38346  20702503.1254                   20702497.6454
 -17162655.33646 -13360992.87944  24282726.7664                   24282724.6684
  -3714265.59047  -2878544.75445  22519641.9224                   22519641.7194
  10429523.05946   8139655.71943  24538610.4774                   24538610.8204
 -15413282.48046 -11996822.54344  22956260.0474                   22956258.6374
 -16257555.07847 -12656547.99246  21224806.5474                   21224803.5204
 -16344601.23448 -12720251.97746  20749354.5164                   20749351.0594
 -18664726.65248 -14528669.63346  20725670.4304                   20725666.8324
 11  7 25  2 53  0.0000000  0  8G02G17G25G29G04G10G05G12
 -22565524.55147 -17571083.25046  20701054.1414                   20701048.8954
 -17119611.89846 -13327452.56643  24290917.8834                   24290915.0634
  -3814346.37147  -2956529.73045  22500597.0784                   22500597.4344
  10320040.77746   8054345.00044  24517777.1884                   24517777.7464
 -15359233.41846 -11954706.42644  22966545.5784                   22966543.4494
 -16236444.94547 -12640098.53546  21228823.4454                   21228820.5164
 -16428004.82848 -12785241.74646  20733483.2734                   20733480.2974
 -18701932.27747 -14557661.00846  20718590.2974                   20718586.7974
 11  7 25  2 53 30.0000000  0  8G02G17G25G29G04G10G05G12
 -22572938.55147 -17576860.37946  20699643.4924                   20699637.8094
 -17076386.41446 -13293770.38743  24299143.2894                   24299140.2194
  -3914000.23847  -3034182.04745  22481633.9064                   22481633.7734
  10210496.75446   7968986.15243  24496931.3674                   24496931.7894
 -15305168.94546 -11912578.28944  22976833.5164                   22976831.7344
 -16214775.98047 -12623213.62546  21232947.2584                   21232944.2504
 -16510891.32048 -12849828.59446  20717710.4694                   20717707.2154
 -18738552.86747 -14586196.52346  20711621.6024                   20711618.1954
 11  7 25  2 54  0.0000000  0  8G02G17G25G29G04G10G05G12
 -22580150.88747 -17582480.36746  20698270.4064                   20698265.3094
 -17032978.08646 -13259945.71944  24307403.1334                   24307401.2584
  -4013223.34847  -3111498.71145  22462752.3284                   22462752.5634
  10100893.04746   7883580.78944  24476074.9224                   24476074.8204
 -15251088.38746 -11870437.60544  22987124.8134                   22987123.0664
 -16192548.82447 -12605893.76646  21237176.8914                   21237174.3054
 -16593257.19148 -12914009.76246  20702036.5944                   20702033.4574
 -18774586.79747 -14614274.89546  20704764.6254                   20704761.1024
 11  7 25  2 54 30.0000000  0  8G02G17G25G29G04G10G05G12
 -22587161.08647 -17587942.84046  20696937.0084                   20696931.5704
 -16989385.12947 -13225977.18744  24315699.4924                   24315696.4614
  -4112011.66847  -3188476.55945  22443953.2894                   22443953.1094
   9991231.56646   7798130.40643  24455206.9454                   24455206.7034
 -15196991.47346 -11828284.18044  22997419.4844                   22997417.1994
 -16169763.65647 -12588139.07446  21241512.5004                   21241509.7734
 -16675099.18448 -12977782.71546  20686462.4304                   20686459.5274
 -18810031.97747 -14641894.50046  20698019.5634                   20698015.8164
 11  7 25  2 55  0.0000000  0  8G02G17G25G29G04G10G05G12
 -22593969.89148 -17593248.38346  20695641.0394                   20695635.7114
 -16945607.42247 -13191864.68044  24324029.8054                   24324027.2234
  -4210362.98047  -3265113.89545  22425237.7344                   22425237.8204
   9881512.80146   7712635.37143  24434328.2114                   24434327.2114
 -15142879.26646 -11786118.83644  23007716.7194                   23007714.5864
 -16146422.82047 -12569951.39846  21245954.4144                   21245951.3874
 -16756415.82848 -13041146.29746  20670988.6024                   20670985.4924
 -18844887.78548 -14669054.85546  20691386.8364                   20691383.3204
 11  7 25  2 55 30.0000000  0  8G02G17G25G29G04G10G05G12
 -22600579.85948 -17598399.00046  20694382.9844                   20694377.7304
 -16901646.72347 -13157609.58244  24332395.0634                   24332393.0744
  -4308276.37947  -3341410.00045  22406605.6024                   22406605.1094
   9771736.21146   7627095.28143  24413438.9694                   24413437.2464
 -15088754.27747 -11743943.53544  23018016.0784                   23018013.3714
 -16122529.84447 -12551333.48046  21250501.3364                   21250498.0204
 -16837207.09448 -13104100.49646  20655614.0314                   20655610.9804
 -18879155.44148 -14695756.91846  20684865.8444                   20684862.3484
 11  7 25  2 56  0.0000000  0  8G02G17G25G29G04G10G05G12
 -22606995.30547 -17603398.03546  20693162.4614                   20693157.0004
 -16857506.14147 -13123214.31244  24340795.1024                   24340793.0204
  -4405752.47747  -3417365.34845  22388056.0004                   22388056.1174
   9661899.30146   7541508.13343  24392537.8834                   24392535.4844
 -15034620.48046 -11701761.37544  23028317.6564                   23028314.9064
 -16098089.89547 -12532289.35546  21255151.6254                   21255148.8794
 -16917474.24648 -13166646.30146  20640340.0234                   20640336.8204
 -18912837.82848 -14722002.91446  20678456.3054                   20678452.5704
 11  7 25  2 56 30.0000000  0  8G02G17G25G29G04G10G05G12
 -22613213.36748 -17608243.26646  20691978.9694                   20691973.6174
 -16813181.80547 -13088675.85543  24349229.4844                   24349226.4774
  -4502784.99247  -3492975.03945  22369591.4454                   22369591.4774
   9552006.32046   7455877.30143  24371625.6644                   24371623.3164
 -14980475.22346 -11659570.28544  23038621.3524                   23038618.7624
 -16073100.60247 -12512817.16446  21259907.2034                   21259903.7814
 -16997211.60248 -13228779.27746  20625166.5164                   20625163.2584
 -18945930.25448 -14747789.20746  20672159.0084                   20672155.4144
 11  7 25  2 57  0.0000000  0  8G02G17G25G29G04G10G05G12
 -22619236.23048 -17612936.37946  20690832.9844                   20690827.5744
 -16768674.93746 -13053995.17643  24357699.0394                   24357696.0554
  -4599372.87547  -3568238.26645  22351211.6564                   22351211.2074
   9442056.83646   7370202.41843  24350702.9454                   24350700.0824
 -14926320.62146 -11617371.89144  23048926.8444                   23048923.9804
 -16047565.42247 -12492919.60946  21264766.3834                   21264762.9804
 -17076418.75448 -13290499.10246  20610093.8834                   20610090.5784
 -18978433.85248 -14773116.66846  20665973.6094                   20665970.1914
 11  7 25  2 57 30.0000000  0  8G02G17G25G29G04G10G05G12
 -22625066.34448 -17617479.29746  20689723.5234                   20689718.3484
 -16723987.26246 -13019173.59043  24366202.5164                   24366199.9104
  -4695515.35247  -3643154.42245  22332915.7194                   22332915.7344
   9332050.03546   7284482.87543  24329768.8834                   24329767.0354
 -14872159.36747 -11575168.33644  23059233.5084                   23059230.2934
 -16021488.13747 -12472599.63346  21269728.5704                   21269725.4574
 -17155095.90248 -13351805.93746  20595121.9844                   20595119.0744
 -19010349.70748 -14797986.16046  20659900.4614                   20659896.7154
 11  7 25  2 58  0.0000000  0  8G02G17G25G29G04G10G05G12
 -22630703.43748 -17621871.80946  20688650.8054                   20688645.3794
 -16679117.89546 -12984210.45743  24374740.4384                   24374738.6374
  -4791208.74247  -3717720.63345  22314705.7194                   22314705.6844
   9221987.92246   7198720.16043  24308825.4614                   24308823.5944
 -14817991.07446 -11532959.28144  23069541.0944                   23069538.7194
 -15994869.60247 -12451857.90645  21274793.6174                   21274790.5594
 -17233239.91448 -13412697.34846  20580251.8834                   20580248.5904
 -19041676.02348 -14822396.26646  20653938.9454                   20653935.3404
 11  7 25  2 58 30.0000000  0  8G02G17G25G29G04G10G05G12
 -22636149.43448 -17626115.40646  20687614.4774                   20687609.3054
 -16634067.42646 -12949106.18743  24383313.7034                   24383310.9454
  -4886451.66447  -3791935.83246  22296581.8054                   22296580.8834
   9111870.08247   7112914.04743  24287869.9924                   24287869.9104
 -14763817.69946 -11490746.26244  23079849.7974                   23079847.2114
 -15967712.59447 -12430696.57846  21279961.4454                   21279958.3094
 -17310850.28948 -13473172.93046  20565483.0084                   20565479.6134
 -19072413.70748 -14846347.68746  20648090.1334                   20648086.1214
 11  7 25  2 59  0.0000000  0  8G02G17G25G29G04G10G05G12
 -22641407.65248 -17630212.70346  20686613.3364                   20686608.4614
 -16588838.16846 -12913862.63743  24391920.3834                   24391917.6524
  -4981244.09447  -3865800.00045  22278543.1644                   22278542.1844
   9001694.93847   7027063.29344  24266904.8914                   24266904.3794
 -14709642.41046 -11448531.77744  23090159.0554                   23090156.6914
 -15940021.75847 -12409119.29345  21285231.2114                   21285227.8444
 -17387927.61348 -13533233.14846  20550815.6334                   20550812.2384
 -19102564.16448 -14869841.55146  20642352.8134                   20642349.1684
 11  7 25  2 59 30.0000000  0  7G02G25G29G04G10G05G12
 -22646477.27048 -17634163.02346  20685648.9454                   20685643.7464
  -5075582.15647  -3939310.11345  22260591.7034                   22260590.9024
   8891465.00447   6941169.85244  24245928.4774                   24245928.0434
 -14655464.64847 -11406315.34844  23100468.5634                   23100466.3714
 -15911797.38747 -12387126.27045  21290601.6174                   21290598.7074
 -17464468.82848 -13592875.62947  20536250.3984                   20536246.9024
 -19132126.35948 -14892877.01646  20636727.2894                   20636723.5514
 11  7 25  3  0  0.0000000  0  7G02G25G29G04G10G05G12
 -22651356.13348 -17637964.72346  20684720.7034                   20684715.4844
  -5169460.13747  -4012461.71945  22242727.1254                   22242726.2624
   8781184.21947   6855236.80544  24224942.5084                   24224941.8984
 -14601281.99646 -11364095.11344  23110778.6564                   23110777.1604
 -15883038.45747 -12364716.71145  21296074.6174                   21296071.4024
 -17540468.97348 -13652096.49247  20521787.9144                   20521784.6884
 -19161096.48048 -14915451.13346  20631214.2734                   20631210.4304
 11  7 25  3  0 30.0000000  0  7G02G25G29G04G10G05G12
 -22656038.28148 -17641613.12946  20683829.8204                   20683824.2114
  -5262869.06647  -4085247.83245  22224951.8914                   22224951.3094
   8670859.82047   6769269.78544  24203948.2734                   24203947.5704
 -14547088.42646 -11321866.36744  23121091.4774                   23121090.0864
 -15853740.71947 -12341887.30545  21301649.4924                   21301646.7344
 -17615920.05548 -13710889.51646  20507429.9384                   20507426.3954
 -19189467.68448 -14937558.55146  20625814.9384                   20625811.4304
 11  7 25  3  1  0.0000000  0  7G02G25G29G04G10G05G12
 -22660522.26648 -17645107.12546  20682976.2584                   20682971.2664
  -5355804.09847  -4157664.66845  22207267.1644                   22207266.4734
   8560495.51647   6683271.69944  24182946.3984                   24182945.6604
 -14492882.54346 -11279628.03544  23131406.6564                   23131404.9144
 -15823903.21147 -12318637.28145  21307327.0704                   21307324.1524
 -17690818.08648 -13769251.59046  20493177.3134                   20493174.2894
 -19217236.88348 -14959196.87546  20620531.2274                   20620527.4614
 11  7 25  3  1 30.0000000  0  7G02G25G29G04G10G05G12
 -22664811.75448 -17648449.55946  20682160.1174                   20682155.0204
  -5448265.89848  -4229712.76246  22189671.8524                   22189671.7814
   8450089.20747   6597240.89144  24161936.6094                   24161934.7034
 -14438668.12147 -11237383.06244  23141723.6414                   23141721.8204
 -15793531.09847 -12294970.69145  21313107.2504                   21313103.8984
 -17765164.38348 -13827183.73846  20479029.9224                   20479026.5234
 -19244406.85948 -14980368.28546  20615360.7584                   20615357.2624
 11  7 25  3  2  0.0000000  0  7G02G25G29G04G10G05G12
 -22668911.95748 -17651644.50046  20681379.5234                   20681374.5664
  -5540256.32447  -4301393.55146  22172166.5314                   22172166.9304
   8339637.28547   6511174.57444  24140918.6724                   24140916.1604
 -14384449.99647 -11195135.17244  23152041.2734                   23152038.9964
 -15762630.99247 -12270892.68045  21318987.0314                   21318984.3714
 -17838961.60947 -13884688.05547  20464986.5704                   20464983.3244
 -19270981.46948 -15001075.76246  20610303.6724                   20610300.2464
 11  7 25  3  2 30.0000000  0  7G02G25G29G04G10G05G12
 -21097404.31648 -16427093.08246  20980427.3914                   20980422.8284
  -4056350.80947  -3145103.47746  22454544.7424                   22454544.6024
   9804563.48847   7652675.63744  24419684.5004                   24419682.7074
 -12754811.99647  -9925287.39544  23462150.6334                   23462149.1524
 -14155786.77347 -11018806.28145  21624759.4844                   21624756.2624
 -16336786.72347 -12714162.14147  20750841.0554                   20750837.9184
 -17721540.94148 -13793719.50046  20905152.8914                   20905149.0514
 11  7 25  3  3  0.0000000  0  7G02G25G29G04G10G05G12
 -21101133.29748 -16429998.77746  20979717.8984                   20979712.8594
  -4147396.41448  -3216048.05946  22437219.2274                   22437219.0394
   9694018.00847   7566536.41444  24398648.5164                   24398645.9884
 -12700594.28147  -9883039.82844  23472468.3204                   23472466.0704
 -14123841.52047 -10993913.88345  21630838.6174                   21630835.4264
 -16409486.11348 -12770810.99647  20737006.4614                   20737003.3324
 -17746929.89148 -13813503.09446  20900320.9844                   20900317.7584
 11  7 25  3  3 30.0000000  0  7G02G25G29G04G10G05G12
 -21104679.75048 -16432762.24646  20979043.2894                   20979037.8834
  -4237967.94148  -3286623.21946  22419983.6564                   22419983.7304
   9583425.25846   7480360.37544  24377603.1254                   24377600.9964
 -12646379.62547  -9840794.62544  23482784.5554                   23482783.0274
 -14091378.73447 -10968618.20345  21637016.0394                   21637012.7504
 -16481636.57048 -12827032.10246  20723276.5944                   20723273.6094
 -17771727.44948 -13832825.86346  20895602.2584                   20895598.7774
 11  7 25  3  4  0.0000000  0  7G02G25G29G04G10G05G12
 -21108046.09448 -16435385.36346  20978402.7504                   20978397.4144
  -4328064.79747  -3356828.50446  22402839.0164                   22402838.8754
   9472784.66446   7394147.04344  24356548.6564                   24356546.8284
 -12592170.54747  -9798553.78944  23493100.6954                   23493098.2974
 -14058402.49647 -10942922.42245  21643291.0314                   21643287.7274
 -16553238.03148 -12882825.42647  20709651.0394                   20709648.2664
 -17795935.15248 -13851689.00046  20890995.7034                   20890992.2074
 11  7 25  3  4 30.0000000  0  7G02G25G29G04G10G05G12
 -21111231.31248 -16437867.34846  20977796.5084                   20977791.2774
  -4417682.67647  -3426660.57045  22385785.0084                   22385784.5664
   9362099.10546   7307898.69143  24335485.4534                   24335484.4454
 -12537965.66047  -9756316.20744  23503415.7584                   23503412.9774
 -14024912.74648 -10916826.51245  21649663.8444                   21649660.6684
 -16624286.89148 -12938188.15247  20696131.3204                   20696128.0984
 -17819550.79748 -13870090.79746  20886501.8284                   20886498.4454
 11  7 25  3  5  0.0000000  0  7G02G25G29G04G10G05G12
 -21114237.43048 -16440209.77046  20977224.6724                   20977219.3484
  -4506820.85948  -3496118.84445  22368822.1804                   22368821.8834
   9251367.41046   7221614.36743  24314414.2274                   24314412.7664
 -12483767.28547  -9714083.72744  23513729.0704                   23513726.2854
 -13990913.45747 -10890333.56246  21656134.1334                   21656130.7624
 -16694783.30148 -12993120.39547  20682716.4144                   20682712.7774
 -17842575.60248 -13888032.19146  20882120.1954                   20882116.8054
 11  7 25  3  5 30.0000000  0  7G02G25G29G04G10G05G12
 -21117065.13348 -16442413.16446  20976686.3914                   20976681.1024
  -4595476.92647  -3565201.46145  22351951.6954                   22351950.8444
   9140591.09846   7135295.30143  24293333.8524                   24293333.2974
 -12429576.09447  -9671856.80944  23524040.6254                   23524038.6214
 -13956406.67648 -10863445.16045  21662700.3754                   21662697.2504
 -16764726.15648 -13047621.29747  20669406.8834                   20669403.4144
 -17865009.88748 -13905513.44946  20877851.3754                   20877847.6484
 11  7 25  3  6  0.0000000  0  7G02G25G29G04G10G05G12
 -21119716.84448 -16444479.43046  20976181.4454                   20976176.3444
  -4683650.31648  -3633907.97745  22335172.8524                   22335171.8554
   9029769.48046   7048940.89143  24272245.5554                   24272244.7194
 -12375394.34847  -9629637.27344  23534351.2194                   23534348.9414
 -13921396.15647 -10836164.22345  21669362.4304                   21669359.1724
 -16834115.56648 -13101690.94147  20656202.4844                   20656199.0084
 -17886855.08648 -13922535.67246  20873694.3204                   20873690.6484
 11  7 25  3  6 30.0000000  0  7G02G25G29G04G10G05G12
 -21122191.07848 -16446407.39546  20975711.0004                   20975705.5824
  -4771336.10947  -3702234.55145  22318486.9614                   22318485.6054
   8918906.25846   6962554.05544  24251149.1644                   24251147.9804
 -12321219.96947  -9587423.47344  23544660.7034                   23544658.2664
 -13885881.63348 -10808490.55145  21676120.6484                   21676117.5944
 -16902947.43048 -13155326.12547  20643104.1414                   20643100.5704
 -17908108.41848 -13939096.69946  20869649.7424                   20869646.0474
 11  7 25  3  7  0.0000000  0  7G02G25G29G04G10G05G12
 -21124491.17648 -16448199.67246  20975273.3754                   20975267.9654
  -4858534.76648  -3770181.53946  22301893.6334                   22301892.2734
   8807999.57046   6876133.37544  24230043.8984                   24230043.8874
 -12267056.53147  -9545218.17244  23554967.6414                   23554965.0984
 -13849868.02747 -10780427.98445  21682974.3284                   21682970.8094
 -16971223.06248 -13208527.89547  20630111.5314                   20630107.9574
 -17928772.74248 -13955198.76246  20865717.5554                   20865714.1954
 11  7 25  3  7 30.0000000  0  7G02G25G29G04G10G05G12
 -21126619.04748 -16449857.74246  20974868.3674                   20974862.9344
  -4945245.50048  -3837748.33646  22285393.0314                   22285392.0084
   8697049.20746   6789678.66044  24208930.8524                   24208930.0784
 -12212905.96546  -9503022.92644  23565271.6564                   23565269.7074
 -13813359.09848 -10751979.45745  21689920.9534                   21689917.9144
 -17038942.75448 -13261296.45747  20617224.8524                   20617221.3674
 -17948849.46948 -13970842.95746  20861897.1094                   20861893.4414
 11  7 25  3  8  0.0000000  0  7G02G25G29G04G10G05G12
 -21128573.50848 -16451380.68446  20974496.3444                   20974490.9344
  -5031464.08648  -3904931.63746  22268986.2734                   22268985.1884
   8586057.89146   6703192.04344  24187809.4224                   24187809.3914
 -12158767.07446  -9460836.77744  23575574.1254                   23575571.7854
 -13776354.97747 -10723145.07445  21696962.8134                   21696959.9844
 -17106103.35548 -13313629.37147  20604444.6334                   20604441.1024
 -17968336.47748 -13986027.62146  20858188.7504                   20858185.0514
 11  7 25  3  8 30.0000000  0  7G02G25G29G04G10G05G12
 -21130358.89548 -16452771.88346  20974156.1484                   20974151.0274
  -5117191.82848  -3971732.45746  22252672.4844                   22252671.4964
   8475023.11346   6616671.55144  24166681.0704                   24166679.8524
 -12104643.93046  -9418662.92244  23585873.6564                   23585871.4264
 -13738861.45347 -10693929.33645  21704097.7424                   21704094.6254
 -17172706.73848 -13365528.07447  20591770.6174                   20591767.0664
 -17987237.56648 -14000755.73446  20854592.1094                   20854588.6914
 11  7 25  3  9  0.0000000  0  7G02G25G29G04G10G05G12
 -21131971.64848 -16454028.57046  20973849.5474                   20973844.5664
  -5202422.24648  -4038145.74646  22236453.7344                   22236453.0084
   8363950.62146   6530121.70344  24145543.7274                   24145543.2384
 -12050532.84046  -9376498.43743  23596170.3914                   23596168.1914
 -13700876.39147 -10664330.56645  21711326.0004                   21711322.8674
 -17238747.88348 -13416988.67247  20579203.1174                   20579199.7424
 -18005548.58248 -14015024.05546  20851107.4774                   20851103.9454
 11  7 25  3  9 30.0000000  0  7G02G25G29G04G10G05G12
 -21133415.77048 -16455153.84846  20973575.0084                   20973569.6724
  -5287156.57048  -4104172.45746  22220329.3524                   22220329.1884
   8252837.57046   6443540.26244  24124399.1644                   24124399.6524
 -11996437.97346  -9334346.59844  23606464.9064                   23606462.3484
 -13662405.35247 -10634353.12145  21718646.6884                   21718643.8674
 -17304228.25048 -13468012.31247  20566742.5944                   20566739.3094
 -18023272.39848 -14028834.81646  20847734.4064                   20847731.1914
 11  7 25  3 10  0.0000000  0  7G02G25G29G04G10G05G12
 -21134691.81648 -16456148.15646  20973332.0474                   20973327.1724
  -5371392.26648  -4169810.62546  22204299.6954                   22204299.7344
   8141685.65246   6356928.48744  24103247.5084                   24103247.9774
 -11942359.13346  -9292207.24244  23616755.1094                   23616753.1644
 -13623450.43448 -10603998.62145  21726059.9384                   21726056.4574
 -17369146.70348 -13518598.09447  20554389.0704                   20554385.6914
 -18040409.58248 -14042188.45346  20844473.6094                   20844469.9344
 11  7 25  3 10 30.0000000  0  7G02G25G29G04G10G05G12
 -21135801.11748 -16457012.53146  20973121.3284                   20973115.6094
  -5455127.75448  -4235059.01246  22188365.4534                   22188365.4224
   8030495.32046   6270286.91444  24082089.2974                   24082088.7894
 -11888297.73446  -9250081.46544  23627042.7894                   23627041.1604
 -13584014.64847 -10573269.43045  21733564.2814                   21733560.8834
 -17433502.43448 -13568745.37947  20542142.5084                   20542139.3204
 -18056960.61348 -14055085.35946  20841324.1254                   20841320.4224
 11  7 25  3 11  0.0000000  0  7G02G25G29G04G10G05G12
 -21136744.50848 -16457747.62546  20972941.6804                   20972936.2034
  -5538361.22348  -4299916.21546  22172526.7584                   22172526.9184
   7919267.23046   6183615.83244  24060922.4774                   24060922.4104
 -11834254.84047  -9207970.10944  23637326.9774                   23637324.5944
 -13544100.49247 -10542167.46945  21741159.3524                   21741156.5354
 -17497294.96548 -13618453.82047  20530003.1094                   20529999.7464
 -18072925.95748 -14067525.88346  20838285.9064                   20838282.5314
 11  7 25  3 11 30.0000000  0  7G02G25G29G04G10G05G12
 -21137520.97348 -16458352.64546  20972793.7894                   20972788.4414
  -5621089.02748  -4364379.40246  22156783.9774                   22156783.6994
   7808003.98446   6096917.38344  24039749.4534                   24039748.8484
 -11780229.33247  -9165872.30544  23647607.3134                   23647605.8714
 -13503708.78547 -10510693.39545  21748845.8364                   21748842.8594
 -17560521.79348 -13667721.44947  20517971.6174                   20517968.0864
 -18088303.89548 -14079508.68746  20835359.9144                   20835356.0044
 11  7 25  3 12  0.0000000  0  7G02G25G29G04G10G05G12
 -21138131.58248 -16458828.43746  20972677.5944                   20972672.0204
  -5703309.16048  -4428446.99646  22141138.2194                   22141137.7584
   7696706.62946   6010192.32044  24018570.3754                   24018569.7384
 -11726221.84447  -9123788.57844  23657885.2734                   23657882.9844
 -13462841.89547 -10478849.05545  21756622.4454                   21756619.5594
 -17623181.10548 -13716546.85247  20506047.7114                   20506044.8134
 -18103095.16848 -14091034.35546  20832544.6414                   20832541.1334
 11  7 25  3 12 30.0000000  0  7G02G25G29G04G10G05G12
 -21138576.50048 -16459175.10946  20972592.8444                   20972587.3754
  -5785019.26648  -4492117.15646  22125589.5314                   22125589.0634
   7585376.80146   5923441.96944  23997385.1414                   23997383.9734
 -11672232.65647  -9081719.10244  23668159.0704                   23668156.4264
 -13421501.74247 -10446635.93745  21764489.3524                   21764486.2194
 -17685271.73048 -13764929.13347  20494232.2584                   20494228.7384
 -18117299.96548 -14102103.02346  20829841.9224                   20829838.4654
 11  7 25  3 13  0.0000000  0  7G02G25G29G04G10G05G12
 -21138858.24247 -16459394.63746  20972538.9694                   20972533.9224
  -5866218.98448  -4555389.62546  22110137.5314                   22110137.3794
   7474013.78947   5836665.73444  23976193.3914                   23976192.5234
 -11618263.82447  -9039665.45344  23678428.6094                   23678426.6374
 -13379692.61748 -10414057.38345  21772445.1484                   21772441.7664
 -17746794.63748 -13812869.03547  20482524.8204                   20482521.3284
 -18130919.90648 -14112715.96546  20827250.2194                   20827246.4574
 11  7 25  3 13 30.0000000  0  7G02G25G29G04G10G05G12
 -21138980.52348 -16459489.91046  20972515.7194                   20972510.5354
  -5946909.22748  -4618265.09046  22094782.7034                   22094782.2034
   7362615.69547   5749862.15644  23954994.9064                   23954994.0084
 -11564319.05547  -8997630.57844  23688693.8284                   23688691.8094
 -13337420.02748 -10381117.69145  21780489.1954                   21780486.4064
 -17807751.57848 -13860367.93047  20470925.1094                   20470921.4884
 -18143958.35948 -14122875.79346  20824768.5314                   20824765.4734
 11  7 25  3 14  0.0000000  0  7G02G25G29G04G10G05G12
 -21138940.80948 -16459458.95746  20972523.4694                   20972517.9384
  -6027085.03948  -4680739.69546  22079525.7424                   22079525.1724
   7251186.75447   5663034.50044  23933791.6174                   23933789.1644
 -11510395.69147  -8955612.37543  23698955.1484                   23698952.8674
 -13294683.16048 -10347816.23045  21788622.2664                   21788618.7624
 -17868138.79748 -13907422.87147  20459433.8134                   20459430.5354
 -18156412.46948 -14132580.29346  20822398.9384                   20822395.6994
 11  7 25  3 14 30.0000000  0  7G02G25G29G04G10G05G12
 -21138739.53948 -16459302.11346  20972561.9064                   20972556.0704
  -6106743.97748  -4742811.55946  22064366.7274                   22064366.2424
   7139728.12547   5576183.72744  23912580.7894                   23912578.9224
 -11456493.95747  -8913611.01644  23709212.1334                   23709210.0044
 -13251484.04747 -10314154.58245  21796842.4774                   21796839.1914
 -17927954.77348 -13954032.69547  20448051.2584                   20448047.7974
 -18168282.65648 -14141829.78546  20820140.3284                   20820136.8634
 11  7 25  3 15  0.0000000  0  7G02G25G29G04G10G05G12
 -21138378.08648 -16459020.44546  20972630.6254                   20972624.9694
  -6185884.79748  -4804479.68046  22049306.5474                   22049306.5164
   7028240.44947   5489310.27744  23891364.7424                   23891363.2504
 -11402615.11747  -8871627.51243  23719465.0394                   23719463.0124
 -13207826.05947 -10280135.35245  21805150.2814                   21805147.1214
 -17987198.81648 -14000196.85247  20436777.1174                   20436774.0354
 -18179569.82448 -14150624.96946  20817992.2034                   20817988.5744
 11  7 25  3 15 30.0000000  0  7G02G25G29G04G10G05G12
 -21137855.84048 -16458613.48446  20972729.7504                   20972724.4064
  -6264504.49648  -4865741.75446  22034346.2584                   22034345.5704
   6916726.25847   5402416.17244  23870144.7194                   23870142.9574
 -11348758.74247  -8829661.53144  23729714.1564                   23729711.9694
 -13163710.33647 -10245759.46145  21813544.9534                   21813541.8014
 -18045869.39148 -14045914.15247  20425612.7114                   20425609.1024
 -18190272.89148 -14158965.01646  20815955.6254                   20815952.2664
 11  7 25  3 16  0.0000000  0  7G02G25G29G04G10G05G12
 -21137174.63747 -16458082.67246  20972859.3444                   20972854.2344
  -6342602.02348  -4926596.93446  22019484.5784                   22019483.9414
   6805185.73046   5315501.58644  23848918.6564                   23848917.5394
 -11294925.96146  -8787713.93044  23739958.1174                   23739955.4414
 -13119140.14147 -10211029.44145  21822026.5234                   21822023.8404
 -18103966.39547 -14091184.51647  20414557.3674                   20414553.5594
 -18200393.94948 -14166851.54346  20814029.9224                   20814026.2814
 11  7 25  3 16 30.0000000  0  7G02G25G29G04G10G05G12
 -21136336.46947 -16457429.54346  20973018.8204                   20973013.6094
  -6420176.84048  -4987044.80546  22004722.2894                   22004721.4774
   6693618.72346   5228566.35944  23827688.0864                   23827687.5314
 -11241118.76247  -8745786.25843  23750197.6174                   23750194.9454
 -13074119.23847 -10175948.21145  21830593.6334                   21830591.0204
 -18161490.66447 -14136008.59847  20403610.6954                   20403607.4384
 -18209934.71948 -14174285.89546  20812213.9694                   20812210.6174
 11  7 25  3 17  0.0000000  0  7G02G25G29G04G10G05G12
 -21135340.07848 -16456653.13746  20973208.8984                   20973203.1884
  -6497225.19148  -5047082.46546  21990060.8444                   21990060.0434
   6582027.83646   5141612.51244  23806453.1024                   23806452.2704
 -11187335.61747  -8703877.29343  23760431.8524                   23760429.5204
 -13028648.25047 -10140516.25445  21839246.6094                   21839243.9574
 -18218439.17648 -14180384.03147  20392773.7734                   20392770.4264
 -18218893.78948 -14181266.98446  20810509.2194                   20810505.9104
 11  7 25  3 17 30.0000000  0  7G02G25G29G04G10G05G12
 -21134187.33248 -16455754.88346  20973428.0944                   20973422.9024
  -6573746.61348  -5106709.52746  21975499.0784                   21975498.5354
   6470413.05546   5054640.03144  23785214.0314                   23785213.3164
 -11133578.61346  -8661988.72343  23770661.1334                   23770658.9654
 -12982731.46547 -10104736.95745  21847984.2894                   21847981.2854
 -18274812.53948 -14224311.30547  20382045.8914                   20382042.8134
 -18227272.54348 -14187795.87546  20808914.7894                   20808911.3674
 11  7 25  3 18  0.0000000  0  7G02G25G29G04G10G05G12
 -21132878.61748 -16454735.09046  20973677.1174                   20973671.5514
  -6649738.74648  -5165924.15646  21961038.4844                   21961037.6094
   6358776.61347   4967650.67644  23763970.5234                   23763969.6954
 -11079847.68446  -8620120.45343  23780886.1094                   23780884.0434
 -12936370.66847 -10068611.66445  21856806.5554                   21856803.0784
 -18330609.25448 -14267789.24247  20371428.4224                   20371425.2154
 -18235071.34448 -14193872.85546  20807430.5394                   20807427.3364
 11  7 25  3 18 30.0000000  0  7G02G25G29G04G10G05G12
 -21131416.86348 -16453596.05946  20973955.3364                   20973949.8014
  -6725202.15248  -5224726.81246  21946678.1804                   21946677.2974
   6247116.71147   4880643.03944  23742722.0634                   23742721.0514
 -11026145.35946  -8578274.48044  23791105.6254                   23791102.8794
 -12889571.00047 -10032144.38745  21865712.1254                   21865709.3204
 -18385831.42648 -14310819.48047  20360919.9304                   20360916.3984
 -18242293.54348 -14199500.53946  20806056.5864                   20806053.2664
 11  7 25  3 19  0.0000000  0  7G02G25G29G04G10G05G12
 -21129800.19148 -16452336.30946  20974262.5944                   20974257.3634
  -6800132.38348  -5283113.99246  21932419.3834                   21932418.2304
   6135437.28947   4793620.19944  23721470.4304                   23721469.5084
 -10972469.96946  -8536449.50043  23801319.1414                   23801317.0354
 -12842332.14147  -9995334.89145  21874701.5314                   21874697.9804
 -18440475.18748 -14353399.01247  20350521.7504                   20350518.2894
 -18248937.10247 -14204677.32846  20804792.2734                   20804788.7034
 11  7 25  3 19 30.0000000  0  7G02G25G29G04G10G05G12
 -21128031.41448 -16450958.04746  20974599.5314                   20974594.0434
  -6874529.90248  -5341086.08646  21918261.9694                   21918260.9144
   6023737.12947   4706581.18444  23700214.5084                   23700213.6054
 -10918824.02346  -8494647.46544  23811527.9614                   23811525.5434
 -12794658.74247  -9958186.78945  21883773.6024                   21883770.3324
 -18494542.34048 -14395529.23447  20340233.0944                   20340229.2734
 -18255004.84048 -14209405.43746  20803637.5314                   20803634.3404
 11  7 25  3 20  0.0000000  0  7G02G25G29G04G10G05G12
 -21126110.19148 -16449460.99646  20974965.0704                   20974959.4614
  -6948392.00848  -5398640.96146  21904206.5394                   21904205.6994
   5912018.69147   4619527.94544  23678955.2974                   23678954.0274
 -10865206.92246  -8452867.91043  23821730.6024                   23821728.4264
 -12746552.34447  -9920701.29745  21892927.8674                   21892924.4024
 -18548031.42248 -14437209.01647  20330054.3364                   20330050.8164
 -18260496.18748 -14213684.39846  20802592.6484                   20802589.0084
 11  7 25  3 20 30.0000000  0  7G02G25G29G04G10G05G12
 -21124036.50048 -16447845.12546  20975359.5474                   20975353.9804
  -7021716.17648  -5455776.66446  21890253.5554                   21890252.6994
   5800284.01647   4532462.03944  23657692.4614                   23657691.0274
 -10811618.32046  -8411110.55544  23831928.1484                   23831926.2274
 -12698015.04347  -9882880.03545  21902164.0004                   21902161.1954
 -18600940.93748 -14478437.18747  20319986.0004                   20319982.6054
 -18265411.51648 -14217514.52046  20801657.1644                   20801653.6024
 11  7 25  3 21  0.0000000  0  7G02G25G29G04G10G05G12
 -21121813.81248 -16446113.16046  20975782.4144                   20975776.9924
  -7094503.92248  -5512494.37546  21876402.3204                   21876401.1844
   5688531.00847   4445381.87144  23636426.3444                   23636424.3404
 -10758062.03946  -8369378.39143  23842120.1484                   23842117.7974
 -12649052.45747  -9844727.37145  21911481.2114                   21911478.4534
 -18653273.10248 -14519215.46947  20310027.3524                   20310023.7154
 -18269754.64148 -14220898.77046  20800830.7814                   20800827.3794
 11  7 25  3 21 30.0000000  0  7G02G25G29G04G10G05G12
 -21119439.22748 -16444262.82846  20976234.5634                   20976229.1214
  -7166749.84448  -5568789.88346  21862654.2664                   21862653.1684
   5576764.49246   4358291.18444  23615158.1334                   23615155.0354
 -10704534.65246  -8327668.70743  23852305.6254                   23852303.2734
 -12599663.23047  -9806242.26245  21920879.7664                   21920876.9414
 -18705024.05948 -14559540.87147  20300179.6334                   20300176.0784
 -18273522.38748 -14223834.67246  20800113.7584                   20800110.3094
 11  7 25  3 22  0.0000000  0  7G02G25G29G04G10G05G12
 -21116916.21548 -16442296.84846  20976714.5554                   20976708.8404
  -7238454.89848  -5624663.92646  21849009.1334                   21849008.5004
   5464983.18046   4271188.95744  23593886.0944                   23593882.4104
 -10651039.18446  -8285983.91043  23862485.6094                   23862483.4774
 -12549852.78947  -9767428.93745  21930358.5864                   21930355.1724
 -18756195.80148 -14599414.92647  20290441.7894                   20290438.3364
 -18276718.42648 -14226325.09446  20799505.7814                   20799502.0664
 11  7 25  3 22 30.0000000  0  7G02G25G29G04G10G05G12
 -21114241.96148 -16440213.01246  20977223.4304                   20977217.6174
  -7309614.10948  -5680112.63346  21835468.1174                   21835467.2664
   5353191.69946   4184078.82844  23572613.2194                   23572609.1914
 -10597572.74246  -8244321.74644  23872659.7114                   23872657.6764
 -12499620.41847  -9728286.83245  21939917.1804                   21939913.9384
 -18806784.26648 -14638834.49247  20280815.1564                   20280811.7664
 -18279340.46548 -14228368.24246  20799006.6884                   20799002.8754
 11  7 25  3 23  0.0000000  0  7G02G25G29G04G10G05G12
 -21111418.92248 -16438013.23046  20977760.3674                   20977755.1054
  -7380227.69948  -5735136.17246  21822030.7274                   21822030.0204
   5241389.69547   4096960.50844  23551337.9144                   23551333.4774
 -10544137.72746  -8202684.05144  23882828.1334                   23882825.7344
 -12448970.40647  -9688819.30145  21949555.7974                   21949553.2074
 -18856790.77748 -14677800.58247  20271299.3054                   20271295.5744
 -18281390.95748 -14229966.02346  20798616.3524                   20798612.9104
 11  7 25  3 23 30.0000000  0  7G02G25G29G04G10G05G12
 -21108448.63348 -16435698.71946  20978325.9694                   20978320.6024
  -7450295.15248  -5789734.14546  21808697.2734                   21808696.6454
   5129577.21147   4009834.02744  23530060.5554                   23530055.7894
 -10490735.49246  -8161071.91843  23892990.1804                   23892988.0784
 -12397906.92247  -9649029.56645  21959272.5634                   21959269.7304
 -18906216.21148 -14716313.88747  20261893.9694                   20261890.4654
 -18282871.64848 -14231119.80546  20798334.6334                   20798331.0904
 11  7 25  3 24  0.0000000  0  7G02G25G29G04G10G05G12
 -21105332.80548 -16433270.79746  20978918.7664                   20978913.1644
  -7519815.90648  -5843906.10946  21795467.7424                   21795467.1214
   5017754.39147   3922699.48844  23508781.1644                   23508776.9494
 -10437367.33246  -8119486.34443  23903145.8444                   23903143.5784
 -12346433.00846  -9608920.02345  21969068.0004                   21969064.9304
 -18955060.86748 -14754374.63347  20252598.8594                   20252595.2544
 -18283784.40648 -14231831.04346  20798160.8054                   20798157.3554
 11  7 25  3 24 30.0000000  0  7G02G25G29G04G10G05G12
 -21102071.14148 -16430729.22746  20979539.4844                   20979534.0984
  -7588787.66048  -5897650.29346  21782343.0944                   21782342.3554
   4905923.24247   3835558.45344  23487500.1724                   23487496.5904
 -10384032.99646  -8077927.10943  23913295.6644                   23913292.4344
 -12294550.73047  -9568492.27045  21978940.9064                   21978937.7704
 -19003323.69548 -14791982.00847  20243415.0164                   20243411.4104
 -18284129.86748 -14232100.23046  20798094.9384                   20798091.4694
 11  7 25  3 25  0.0000000  0  7G02G25G29G04G10G05G12
 -21098665.03548 -16428075.11746  20980187.6954                   20980182.2424
  -7657209.37547  -5950965.87546  21769322.8594                   21769321.9414
   4794084.75447   3748411.71144  23466218.2664                   23466214.8794
 -10330733.39146  -8036394.93743  23923437.4454                   23923435.0634
 -12242263.33247  -9527748.84845  21988890.9924                   21988887.8594
 -19051004.70348 -14829136.01247  20234341.6254                   20234337.9064
 -18283909.34048 -14231928.37946  20798136.9924                   20798133.5164
 11  7 25  3 25 30.0000000  0  7G02G25G29G04G10G05G12
 -21095117.89548 -16425311.09846  20980862.5394                   20980857.3834
  -7725082.51648  -6003853.98846  21756406.9694                   21756406.5474
   4682237.04347   3661257.78944  23444933.8594                   23444931.2234
 -10277471.73846  -7994892.33243  23933572.1254                   23933571.3134
 -12189576.35947  -9486694.05945  21998917.0704                   21998914.0164
 -19098106.63348 -14865838.79347  20225378.1644                   20225374.7304
 -18283126.53548 -14231318.40646  20798286.1484                   20798282.1604
 11  7 25  3 26  0.0000000  0  7G02G25G29G04G10G05G12
 -21091426.39148 -16422434.59846  20981564.9774                   20981559.1914
  -7792401.60548  -6056310.37546  21743596.6804                   21743595.6604
   4570385.54347   3574100.90644  23423649.3134                   23423647.1174
 -10224244.66846  -7953416.67243  23943701.6484                   23943699.4454
 -12136488.58247  -9445326.96545  22009018.9384                   22009016.0204
 -19144625.12548 -14902086.94547  20216525.9454                   20216522.6334
 -18281778.74248 -14230268.17246  20798542.8594                   20798539.0084
 11  7 25  3 26 30.0000000  0  7G02G25G29G04G10G05G12
 -21087592.24648 -16419446.94546  20982294.3754                   20982289.3204
  -7859166.48048  -6108334.92246  21730891.6254                   21730890.6094
   4458530.48847   3486941.24644  23402363.9454                   23402362.0864
 -10171053.65246  -7911969.11343  23953823.6804                   23953820.4884
 -12083003.78947  -9403650.49245  22019197.0004                   22019193.7974
 -19190560.89848 -14937881.03147  20207784.7504                   20207781.2274
 -18279868.40648 -14228779.59446  20798905.9384                   20798902.4104
 11  7 25  3 27  0.0000000  0  7G02G25G29G04G10G05G12
 -21083615.12548 -16416347.89146  20983051.5784                   20983045.7974
  -7925374.91848  -6159925.87146  21718292.4694                   21718291.7424
   4346673.81347   3399780.32844  23381077.2894                   23381076.6844
 -10117898.35546  -7870549.37943  23963939.3204                   23963936.6684
 -12029123.93447  -9361666.19145  22029450.2274                   22029446.7114
 -19235913.04348 -14973220.34047  20199154.5004                   20199151.0274
 -18277395.41048 -14226852.58246  20799376.6804                   20799373.0864
 11  7 25  3 27 30.0000000  0  7G02G25G29G04G10G05G12
 -21079497.69948 -16413139.50046  20983835.1094                   20983829.7814
  -7991027.27747  -6211083.52346  21705799.3054                   21705798.4494
   4234814.92647   3312617.67244  23359791.2734                   23359790.8244
 -10064780.74646  -7829159.02043  23974046.8834                   23974044.0984
 -11974853.16047  -9319377.26645  22039777.2114                   22039773.7934
 -19280683.14148 -15008106.10947  20190634.8524                   20190631.2504
 -18274362.81648 -14224489.51646  20799953.4534                   20799950.2274
 11  7 25  3 28  0.0000000  0  7G02G25G29G04G10G05G12
 -21075237.95748 -16409820.20346  20984645.5164                   20984640.0164
  -8056119.91448  -6261805.02346  21693412.5164                   21693411.6254
   4122957.73847   3225456.35945  23338505.6564                   23338505.1604
 -10011698.98446  -7787796.59043  23984147.6254                   23984145.1524
 -11920192.25847  -9276784.35245  22050178.7424                   22050175.5474
 -19324868.69948 -15042536.38747  20182226.9384                   20182223.1954
 -18270769.36748 -14221689.42246  20800637.7344                   20800634.2464
 11  7 25  3 28 30.0000000  0  7G02G25G29G04G10G05G12
 -21070839.55148 -16406392.86746  20985482.4064                   20985477.1214
  -8120654.30548  -6312091.52746  21681132.2584                   21681130.8324
   4011100.46947   3138294.96945  23317220.4844                   23317219.5354
  -9958656.32446  -7746464.59843  23994241.6024                   23994239.3054
 -11865147.03547  -9233891.95345  22060653.3754                   22060650.2424
 -19368472.14148 -15076513.07047  20173929.5084                   20173926.0354
 -18266619.06648 -14218455.41446  20801427.5394                   20801424.0434
 11  7 25  3 29  0.0000000  0  7G02G25G29G04G10G05G12
 -21066302.11748 -16402857.19146  20986345.7344                   20986340.6374
  -8184628.09448  -6361941.20746  21668957.9694                   21668957.4344
   3899245.72747   3051135.53145  23295934.7664                   23295933.9924
  -9905651.87946  -7705162.43443  24004327.9224                   24004325.1954
 -11809718.78547  -9190701.09845  22071201.2114                   22071198.2034
 -19411492.45348 -15110035.37547  20165742.9694                   20165739.3094
 -18261911.86748 -14214787.45346  20802323.1564                   20802319.5004
